GFSSGP_850_spd_000.txt.gz
Wind_Speed
6 6 4 2 5 3 10 8 7 10 6 2 1 4 8 8 6 5 10 8 9 11 11 10 10 8 6 6 5 4 3 2 3 4 5 6 7 7 7 8 8 10 12 13 16 19 22 20 17
7 7 3 4 5 11 8 10 9 7 12 11 8 4 4 7 6 11 10 11 12 13 11 10 11 9 7 6 6 5 5 5 5 6 5 6 7 8 8 9 10 13 16 18 20 22 22 18 16
6 5 5 3 3 10 11 8 13 13 7 5 5 4 3 7 8 12 11 15 14 13 13 12 12 11 10 8 8 6 5 4 3 3 4 4 6 7 9 10 12 15 17 17 17 16 15 12 9
3 3 3 4 14 6 14 14 15 10 6 4 6 8 7 5 11 9 13 14 12 11 12 16 15 12 9 7 5 4 4 3 4 5 4 5 5 6 7 8 10 12 13 13 13 12 11 9 10
3 5 7 11 15 11 10 14 9 6 7 8 3 6 9 9 8 13 14 14 12 13 16 15 12 9 6 5 3 2 3 3 4 4 4 5 5 5 6 6 8 9 9 8 8 7 8 9 10
6 5 12 13 14 10 9 8 6 3 6 6 8 11 8 7 13 13 15 14 13 15 17 13 11 8 5 3 0 1 2 4 4 4 6 6 6 6 7 8 7 9 10 11 11 11 10 11 11
3 4 13 15 14 11 9 7 8 9 10 7 9 7 6 11 14 13 14 13 15 14 12 10 9 6 4 2 1 1 3 4 5 4 5 5 6 7 8 8 9 9 11 12 12 12 13 13 14
3 5 13 14 11 12 8 8 7 7 6 8 6 6 8 15 17 14 14 13 11 11 9 8 7 5 3 3 2 1 2 3 2 2 4 5 7 8 8 8 9 11 14 15 15 16 16 16 15
2 6 8 9 9 10 9 8 5 2 9 4 4 3 8 18 18 15 12 11 10 9 10 8 5 3 2 2 2 3 2 2 1 2 4 7 6 9 10 10 11 13 15 17 18 18 17 17 16
3 5 6 4 5 11 10 6 8 7 7 6 7 5 12 19 19 16 15 13 11 10 9 6 4 2 1 1 2 3 3 2 3 3 5 6 8 9 11 13 13 15 17 18 18 19 19 17 12
2 8 10 7 9 9 10 8 6 8 8 10 11 11 17 19 17 14 12 11 10 10 9 6 3 0 1 1 1 2 3 4 5 6 7 8 10 9 10 10 11 14 19 14 18 18 14 18 17
11 7 6 8 6 6 8 6 6 7 6 4 5 10 16 17 16 15 15 13 12 11 10 6 4 1 1 2 2 2 3 5 6 7 11 10 10 11 12 12 13 15 14 18 15 14 20 20 18
13 11 9 5 5 4 2 3 2 5 5 4 8 11 15 14 13 14 15 15 14 13 11 9 6 3 3 1 2 2 3 5 6 8 9 10 10 11 12 13 14 15 14 14 14 14 15 18 16
6 8 7 3 5 4 3 3 4 6 3 6 8 11 15 15 14 15 17 17 16 12 11 10 9 5 3 2 1 2 5 5 6 7 8 10 11 11 12 13 13 12 13 13 13 14 15 14 15
8 10 6 7 4 3 4 7 5 3 2 1 7 11 15 16 16 16 14 14 12 9 9 11 11 6 4 3 3 3 3 6 4 6 10 10 11 12 14 13 13 13 13 16 14 16 16 16 14
5 4 5 7 1 3 4 8 8 5 7 9 7 6 16 20 19 15 13 13 12 11 11 11 12 7 4 4 3 2 3 7 6 9 11 12 12 13 15 14 15 16 19 17 17 17 16 16 15
2 2 1 7 4 4 3 2 8 10 9 12 10 8 14 18 19 15 14 13 12 12 13 14 11 6 6 4 1 3 5 5 6 9 10 12 14 16 17 19 20 20 21 22 20 20 20 20 19
1 3 3 1 6 6 2 3 7 10 2 3 3 5 9 15 17 14 12 13 13 11 11 14 11 6 8 6 4 5 6 7 10 12 14 17 18 18 19 21 24 25 21 23 23 24 24 25 25
1 2 2 3 4 6 2 3 9 11 11 10 8 7 9 13 9 9 12 12 11 9 11 11 9 11 11 7 6 7 8 9 8 9 17 20 21 26 29 30 26 26 23 25 30 27 28 28 27
2 2 1 2 1 5 1 6 8 11 13 12 13 13 11 11 9 8 6 7 8 7 9 11 11 12 13 8 11 11 9 8 12 13 21 24 29 29 26 24 24 23 24 23 24 26 28 29 28
1 2 4 4 4 3 4 7 6 7 11 13 14 15 15 14 13 12 11 10 8 8 8 7 9 9 7 4 6 7 9 11 11 18 21 27 28 29 27 26 27 28 25 24 24 25 27 32 31
1 3 8 7 6 4 3 4 6 4 8 9 10 12 12 11 10 8 7 6 5 5 5 4 1 2 5 11 13 19 13 15 21 20 19 28 30 31 32 33 33 32 30 24 24 24 26 28 34
5 8 5 4 6 4 2 6 9 3 7 7 10 11 11 9 9 8 7 7 7 6 6 6 7 9 15 18 23 19 19 16 15 18 22 23 22 28 32 34 34 33 31 25 29 26 21 22 27
6 3 1 1 2 4 2 5 7 2 4 7 10 11 9 7 6 8 8 8 9 8 7 10 10 13 18 21 26 24 21 21 22 22 24 23 25 25 24 31 29 27 23 17 15 14 12 9 7
8 2 2 2 4 1 1 6 7 5 7 7 6 9 9 8 7 6 6 5 5 6 11 15 22 14 25 34 32 30 27 20 21 23 24 28 26 25 24 28 16 14 11 9 7 8 7 8 10
7 6 3 3 2 4 3 2 6 7 7 7 7 7 7 8 8 6 4 5 6 11 17 21 18 13 21 23 19 20 18 19 22 24 28 30 28 26 26 15 12 12 11 11 10 9 6 7 8
3 4 2 2 1 3 1 4 7 7 6 5 5 3 4 4 4 5 7 8 8 8 11 18 22 23 21 19 16 20 20 23 29 33 31 24 24 19 15 13 11 8 5 5 6 8 13 10 10
4 3 2 2 3 4 3 6 6 9 4 3 2 1 3 1 3 8 11 11 11 12 15 21 22 15 14 14 16 18 24 26 28 24 22 20 16 14 12 9 8 8 9 10 14 22 18 12 14
3 2 2 1 2 3 4 4 5 3 2 3 9 8 7 5 10 14 17 17 16 13 11 12 13 13 12 14 18 20 20 18 19 19 17 15 14 13 11 11 11 12 15 24 24 14 11 12 11
2 1 1 2 2 2 4 6 4 1 2 5 13 6 7 9 14 16 17 16 14 9 10 11 11 12 16 21 20 18 17 16 17 18 16 14 13 12 11 13 18 23 18 14 14 14 15 15 16

GFSSGP_850_spd_003.txt.gz
Wind_Speed
6 5 3 8 7 9 8 7 11 11 9 6 6 10 13 15 14 5 11 9 12 12 8 7 8 8 6 6 6 5 4 4 4 4 4 5 6 7 7 8 9 11 13 14 15 17 19 19 18
4 7 6 12 9 10 9 9 13 11 14 10 8 5 9 13 13 15 12 12 14 12 11 7 9 8 8 7 6 5 4 2 2 3 3 5 6 7 8 9 11 14 16 16 16 18 18 16 14
7 9 15 6 13 8 9 9 14 13 9 5 8 10 4 9 10 12 15 14 14 14 9 9 10 10 9 7 6 4 3 2 3 2 3 4 6 7 8 9 11 14 15 15 14 13 13 13 12
5 8 10 10 8 11 11 13 15 11 7 1 7 12 9 11 10 13 15 14 13 12 8 12 11 9 8 7 7 5 3 2 3 4 5 6 7 8 9 9 10 10 11 11 11 11 11 10 9
9 15 9 7 12 10 12 14 12 13 12 7 4 8 14 10 12 15 14 13 13 13 10 10 10 8 6 4 2 0 2 3 3 3 3 4 6 6 7 8 10 10 11 11 12 11 10 9 10
14 17 6 9 13 9 9 9 2 5 7 6 3 13 14 11 14 14 13 13 13 12 11 10 9 7 6 3 0 2 3 3 3 3 4 5 5 6 8 8 7 8 10 12 13 13 12 11 11
17 10 9 16 11 10 9 5 5 4 7 3 6 8 11 13 13 14 13 13 13 11 10 8 7 7 5 2 2 3 4 4 4 4 5 5 6 8 9 8 8 10 12 15 16 16 15 15 14
16 2 11 11 11 11 8 6 4 3 9 8 1 7 15 16 15 14 13 12 11 11 9 8 7 5 4 4 3 1 1 2 2 3 4 6 9 9 8 8 9 11 13 15 17 17 17 16 16
7 5 7 7 8 8 9 6 3 1 7 4 5 10 15 18 16 14 14 12 11 11 9 7 5 5 4 4 5 6 3 3 5 7 7 8 6 8 10 15 13 14 14 17 19 19 19 19 16
11 4 11 5 4 9 11 7 7 7 9 7 7 7 13 16 16 15 14 14 13 12 9 6 6 4 4 3 3 1 3 2 2 2 5 6 8 8 12 14 19 19 18 21 18 19 19 16 11
10 7 9 5 2 6 9 5 4 7 8 9 13 12 16 16 16 15 14 13 13 12 10 8 5 3 4 1 2 2 2 2 3 6 6 6 8 8 10 10 13 14 18 12 15 14 13 15 16
9 11 8 7 4 2 5 5 5 7 8 10 8 13 15 16 16 16 16 14 13 12 10 6 4 1 2 3 1 1 2 2 3 4 7 8 8 9 10 11 12 13 13 14 13 13 15 15 16
10 10 10 10 7 2 3 6 2 7 5 8 8 12 14 14 14 14 14 14 13 11 10 7 6 4 1 1 1 1 1 2 2 4 5 6 7 9 10 12 12 13 12 13 14 14 14 15 13
8 10 10 7 6 4 7 6 9 7 7 10 11 12 14 14 13 12 13 14 13 12 11 10 8 7 3 3 3 3 1 2 3 3 3 7 6 8 10 11 11 12 12 13 14 14 15 14 14
9 9 9 7 9 5 6 10 13 7 6 9 13 14 14 14 12 11 13 16 14 12 11 10 10 8 5 4 3 3 2 2 3 3 5 6 8 8 10 11 12 13 14 16 17 17 18 18 17
11 10 11 8 8 5 10 14 12 7 7 13 11 12 13 14 13 12 12 14 14 13 11 9 9 9 6 6 4 3 3 3 4 6 7 8 7 9 12 13 15 16 18 18 19 20 21 21 22
9 11 4 8 3 3 8 2 11 4 10 14 14 13 12 14 15 15 14 13 12 10 10 10 11 10 6 6 4 3 4 4 6 7 8 8 9 10 12 14 17 19 21 22 23 24 25 25 26
7 5 9 4 7 8 6 6 6 4 5 9 11 12 11 14 17 15 12 11 10 10 10 12 12 9 7 6 5 5 6 6 8 9 8 9 10 10 13 16 18 20 22 24 26 27 29 30 31
5 5 5 6 4 6 3 3 5 5 7 6 4 3 5 11 12 10 8 6 5 6 7 11 11 10 6 6 6 7 8 9 8 9 10 11 11 17 16 17 19 20 22 24 26 28 29 29 29
4 5 1 2 2 6 4 8 6 8 8 9 8 8 9 9 8 6 6 5 3 4 6 8 5 4 4 4 4 5 6 6 9 8 13 13 16 22 22 23 19 19 21 23 25 26 28 29 29
4 8 7 10 3 9 7 9 12 8 12 13 13 13 13 12 11 11 12 11 10 8 7 7 6 5 4 4 2 5 7 9 12 15 16 18 22 23 19 19 19 20 20 23 24 25 27 30 31
6 5 8 8 7 8 10 3 8 12 9 10 10 11 11 10 9 9 10 10 10 11 11 9 7 5 6 3 5 10 10 12 14 17 20 24 21 21 20 20 20 19 20 23 24 24 27 28 32
6 8 7 8 9 8 9 9 10 9 8 9 9 8 8 8 8 8 9 9 9 9 9 7 4 5 6 6 8 12 16 21 30 30 22 21 19 19 20 21 22 24 23 22 21 21 19 21 22
8 7 6 6 4 5 3 6 10 6 7 7 7 6 5 6 7 7 7 7 6 6 5 6 5 5 8 11 15 25 42 34 18 19 19 18 20 20 20 22 21 21 20 19 19 19 18 17 16
9 6 3 3 4 2 4 7 9 8 6 7 3 4 5 6 4 3 3 2 2 3 5 8 10 12 14 17 19 16 13 15 17 19 19 22 22 22 22 22 20 20 19 20 20 20 21 18 14
6 7 3 4 3 5 9 4 7 10 9 5 4 3 3 5 5 4 2 3 6 8 11 13 13 15 16 14 14 15 16 17 17 18 20 21 21 23 22 23 21 22 20 21 19 14 15 17 20
4 4 3 2 1 3 4 5 9 9 8 4 3 4 2 2 2 2 4 6 12 13 14 14 14 15 14 14 16 15 15 16 17 17 18 21 23 24 24 24 24 21 17 16 15 16 16 17 20
9 3 3 2 3 4 3 10 8 8 4 5 3 2 4 5 5 7 12 14 16 18 18 14 14 15 15 16 14 13 16 18 18 19 22 24 24 24 23 22 20 18 18 20 21 22 23 21 18
1 2 3 4 4 4 5 3 8 5 3 5 9 10 11 9 10 15 16 16 17 19 18 16 17 13 13 14 15 18 16 17 18 20 21 20 21 21 22 25 22 21 24 27 23 17 19 19 18
4 4 3 2 2 2 3 6 6 5 3 6 9 10 8 12 13 16 18 16 19 19 21 19 13 14 16 13 15 17 17 18 19 19 20 19 18 18 20 23 26 24 20 19 20 20 18 19 19

GFSSGP_850_spd_006.txt.gz
Wind_Speed
5 3 1 8 4 6 14 3 14 9 8 14 17 15 20 23 11 9 15 15 13 8 13 12 11 10 10 9 7 6 6 4 2 1 2 5 7 7 8 9 10 11 12 13 13 13 14 15 16
6 2 6 7 6 11 3 10 13 16 17 11 13 5 21 18 19 20 19 18 14 17 9 12 11 10 10 8 7 6 4 3 2 2 4 5 6 7 8 10 11 13 14 14 14 14 14 13 14
6 4 6 4 9 14 7 10 16 15 11 11 6 23 17 17 21 18 20 19 17 14 7 11 12 12 10 8 6 5 4 3 3 4 5 6 6 8 8 9 10 12 13 14 14 13 12 12 12
4 5 8 7 15 12 17 16 17 11 5 3 17 14 19 16 17 19 19 18 16 7 12 13 12 11 9 7 5 4 2 2 3 4 4 5 6 6 7 8 9 10 12 13 14 13 13 12 12
8 7 8 11 6 12 14 16 11 8 9 8 4 20 21 18 19 19 18 17 16 9 14 13 12 10 7 5 3 1 1 2 3 4 5 5 6 7 8 9 10 10 12 13 14 14 14 13 12
11 5 7 13 13 11 11 7 5 19 14 9 8 19 19 16 17 17 18 18 16 12 13 13 12 10 7 4 2 1 2 3 4 5 5 6 7 8 9 8 7 8 10 12 14 14 14 13 13
13 7 15 8 10 9 8 4 3 2 6 6 9 17 17 16 15 16 16 16 16 15 13 13 11 8 6 4 2 2 3 3 4 5 6 8 8 9 9 8 7 10 11 13 16 17 17 16 16
20 9 18 8 7 10 8 4 5 3 16 13 4 4 16 20 17 17 16 17 14 13 12 8 8 8 6 7 6 5 4 5 7 7 8 10 12 18 15 12 16 16 15 16 18 18 18 18 17
20 13 6 8 10 10 10 6 2 7 10 6 4 9 25 21 17 17 16 14 13 12 10 9 9 8 3 5 6 7 10 10 9 10 12 12 11 11 16 18 18 19 18 21 18 20 20 15 12
12 9 10 8 9 10 10 9 9 6 11 6 7 15 20 19 17 16 15 14 12 12 10 10 6 7 10 3 7 9 11 10 7 4 7 5 8 5 11 13 17 18 20 20 18 19 19 16 19
12 2 10 9 8 6 10 8 6 7 7 14 13 13 19 16 16 15 14 15 15 13 12 9 10 7 7 4 4 5 4 4 5 4 9 4 7 4 5 9 13 16 16 14 22 15 16 19 23
4 9 9 14 3 2 8 8 4 7 8 13 17 16 19 16 16 15 15 16 15 16 17 12 7 6 10 6 5 4 3 0 3 5 4 4 2 4 6 5 9 7 10 13 14 15 16 18 22
7 6 10 9 7 2 6 4 3 6 11 7 10 16 17 15 14 13 13 16 15 17 20 18 13 6 3 9 4 6 5 3 2 2 6 5 5 7 8 10 10 10 11 12 13 16 15 16 18
9 10 10 10 7 4 4 6 6 9 12 11 9 13 16 16 17 17 14 14 17 18 20 18 12 8 6 7 6 4 3 0 3 2 7 6 7 9 11 13 13 12 12 14 19 19 20 22 23
7 8 7 7 8 6 6 7 11 12 7 11 12 12 15 16 14 17 15 17 16 18 19 25 17 14 12 7 4 7 5 0 0 3 8 11 8 9 12 14 12 11 14 19 20 18 21 22 23
9 9 9 11 9 7 7 12 14 12 12 10 14 16 15 17 15 15 14 15 17 15 15 4 23 14 10 7 6 5 4 2 1 4 5 10 8 12 14 14 16 17 19 23 22 24 23 24 25
9 9 8 9 6 2 8 5 13 10 5 10 13 15 12 12 15 16 14 11 12 14 6 15 13 11 7 7 4 4 5 3 7 8 7 9 8 10 14 17 20 24 25 24 24 26 26 25 25
11 10 6 4 9 6 9 9 9 4 7 14 16 16 17 17 13 18 15 14 8 6 5 4 8 8 8 6 7 3 7 6 4 5 9 12 10 12 18 21 20 20 24 24 24 26 28 31 32
9 7 8 13 6 3 9 8 10 7 4 4 3 7 5 9 14 19 13 5 3 2 2 8 7 11 5 3 6 7 5 5 6 4 8 11 14 18 25 25 21 22 23 23 24 28 29 29 28
6 6 6 5 6 5 8 9 11 7 10 14 9 9 14 17 17 14 9 6 7 9 9 4 6 7 4 6 3 4 6 6 6 6 10 11 17 23 38 32 25 20 23 24 23 22 26 27 27
4 7 9 8 9 8 10 6 14 11 11 12 16 19 17 16 15 14 13 13 12 12 11 9 8 8 8 8 3 2 3 4 9 16 24 21 26 38 22 20 22 24 27 28 25 25 26 28 28
3 6 5 8 7 7 12 3 13 14 11 13 15 17 14 12 13 14 14 12 12 11 10 9 9 7 3 1 12 16 15 16 22 31 31 28 19 19 16 18 21 23 26 27 24 24 26 28 28
6 5 6 8 9 10 10 6 13 16 13 13 13 12 11 12 13 12 11 11 11 9 8 7 4 3 5 12 14 12 12 19 20 17 16 16 13 16 21 22 24 25 29 29 24 25 24 23 23
7 10 9 8 9 3 11 2 6 2 12 12 11 9 9 9 7 8 9 8 8 6 5 4 5 7 13 12 9 19 20 17 13 15 13 14 19 24 22 23 25 25 22 23 24 23 22 23 24
9 9 3 2 3 2 5 2 10 11 12 13 10 11 8 5 5 5 7 6 3 5 8 10 12 14 14 18 17 11 12 13 13 14 16 21 26 18 22 22 24 23 22 21 24 26 24 27 26
5 6 2 4 5 4 1 3 8 14 13 12 11 7 5 6 4 5 4 4 4 6 10 14 14 15 16 16 15 14 12 12 14 16 21 20 17 22 20 19 20 19 23 25 25 23 24 23 26
7 6 3 1 3 1 5 13 14 11 8 10 6 1 3 3 5 1 5 1 5 9 13 15 16 14 16 14 12 13 13 14 20 21 16 18 16 16 19 26 27 25 28 29 28 25 25 28 26
6 2 2 3 2 3 8 5 7 4 6 4 6 6 5 2 1 6 12 14 14 15 16 16 15 15 17 16 16 19 22 18 14 16 17 18 22 26 25 22 26 22 22 20 25 29 28 26 22
1 2 2 4 1 2 3 2 4 7 4 5 6 7 7 7 7 7 14 16 17 21 21 20 20 14 14 18 23 20 16 15 16 16 19 22 27 29 24 25 27 26 24 24 25 26 25 22 23
3 5 3 0 2 0 1 5 7 9 15 9 9 8 12 11 13 16 17 16 20 22 20 15 17 20 23 23 15 17 17 18 17 18 22 22 21 19 20 23 23 24 23 24 25 26 24 26 22

GFSSGP_850_spd_009.txt.gz
Wind_Speed
7 4 2 2 3 2 4 6 5 8 7 31 26 23 17 16 6 7 19 15 14 19 19 15 14 13 12 11 10 9 9 8 8 8 8 9 10 10 9 9 9 10 12 12 11 10 10 11 12
6 4 1 4 2 2 3 12 11 8 13 35 31 29 30 17 28 28 26 14 11 19 18 16 14 13 11 11 10 9 8 7 8 8 8 8 9 8 9 10 12 12 12 12 12 11 11 11 11
7 3 2 3 2 5 5 11 9 5 14 20 12 27 14 15 13 20 21 11 11 14 13 15 14 13 12 11 10 9 8 7 7 7 8 8 8 9 10 11 11 11 12 12 14 14 14 13 12
6 2 3 1 8 7 11 9 13 8 17 33 23 10 29 23 24 22 20 16 14 12 15 16 14 13 11 9 8 7 6 5 6 8 8 8 8 8 9 10 10 10 11 13 15 15 14 14 14
3 2 1 2 6 3 9 17 18 7 7 31 34 14 23 25 28 22 17 12 11 19 18 16 13 12 10 8 6 5 5 6 7 8 7 6 6 7 8 8 8 9 10 12 13 15 15 15 15
4 1 3 4 5 5 5 11 16 15 10 26 32 24 23 25 23 23 16 14 16 19 17 15 13 10 8 6 5 5 4 5 6 7 6 5 6 8 9 9 10 11 12 13 15 16 17 17 16
4 2 4 4 8 6 6 15 11 21 9 16 26 11 23 24 22 21 17 13 18 18 17 15 12 9 7 5 5 5 5 6 6 6 6 9 10 12 13 13 12 13 13 15 16 17 17 15 14
6 3 6 3 1 1 7 18 24 17 9 22 23 8 16 26 24 20 15 17 14 15 14 11 10 10 10 9 8 8 8 8 9 10 10 9 10 12 14 13 15 15 16 17 16 20 16 15 13
17 1 6 13 12 4 10 7 15 15 17 21 10 30 33 28 24 21 19 18 16 11 11 8 7 8 9 12 10 9 9 8 9 11 10 8 8 8 13 13 15 15 18 17 20 21 19 20 20
7 4 6 3 10 7 7 10 8 9 15 23 28 32 30 26 23 21 22 20 20 14 16 11 5 8 7 8 11 10 10 9 10 10 7 5 7 6 8 8 10 12 13 15 19 20 21 22 23
6 6 5 11 27 20 11 15 9 13 5 26 33 31 25 20 21 20 19 19 21 14 19 11 7 14 5 3 4 5 8 9 5 7 5 5 4 2 3 7 9 10 11 14 16 17 20 22 22
3 14 15 8 17 17 9 13 4 2 15 26 28 28 23 20 19 18 21 22 19 19 22 12 8 11 13 9 6 6 5 4 3 2 3 2 1 1 1 4 7 8 9 11 13 15 21 20 22
8 8 13 8 9 13 11 9 4 14 19 23 27 27 22 19 20 17 18 23 18 23 23 16 8 8 10 11 11 10 8 5 4 5 3 3 1 4 4 8 10 11 8 11 14 17 20 19 21
11 15 13 8 6 4 1 3 5 13 18 22 26 28 24 22 22 20 18 22 19 26 24 18 9 3 8 14 10 6 8 3 2 3 5 6 6 6 8 9 11 12 12 14 19 22 21 21 23
18 6 7 7 13 6 5 4 7 15 19 19 21 25 22 22 24 23 19 16 17 27 29 22 10 9 7 9 5 7 4 2 2 5 8 11 10 8 11 11 13 14 16 18 23 26 24 24 23
3 5 5 6 13 9 10 7 7 18 16 22 22 18 24 23 24 25 19 17 19 21 32 22 14 16 16 11 6 8 5 2 2 6 4 5 2 5 8 8 13 15 16 21 25 25 24 24 24
2 5 6 6 15 5 4 2 14 21 20 16 21 23 19 21 23 26 21 17 16 17 16 14 10 19 12 13 9 7 6 4 4 7 6 7 6 7 9 11 18 21 23 25 23 20 23 25 29
5 4 5 8 3 4 3 3 4 10 7 7 9 6 21 6 15 21 17 16 12 11 15 13 22 18 15 11 10 7 8 5 7 5 5 8 9 10 14 20 25 33 27 27 29 29 28 30 30
5 5 10 5 5 2 2 5 8 25 24 27 28 33 31 32 25 21 20 16 11 12 17 20 18 11 16 16 14 11 12 6 6 5 8 12 15 20 31 29 29 28 22 22 24 28 29 27 28
5 7 6 4 3 3 2 2 8 16 16 28 28 34 32 29 25 22 20 24 27 24 21 22 22 17 12 11 11 9 6 4 9 12 12 15 24 24 24 23 23 20 22 27 30 31 30 32 29
10 6 5 4 7 5 2 2 8 9 24 31 33 29 26 23 21 16 15 16 18 17 14 12 10 8 5 2 2 5 8 9 13 16 21 26 21 19 16 16 17 19 24 28 30 32 33 32 32
5 6 5 6 4 2 4 1 4 12 13 20 29 33 31 28 22 16 12 10 11 14 11 8 8 8 5 8 13 13 12 16 17 19 15 11 19 17 15 17 20 25 29 29 31 30 29 26 27
2 0 3 3 4 3 7 5 2 13 12 9 19 22 22 21 19 16 10 8 8 7 8 9 10 16 18 19 13 14 12 14 9 10 13 14 14 15 19 25 31 29 28 27 27 28 27 28 26
5 4 5 3 2 2 6 5 2 4 9 6 19 20 15 13 9 7 6 6 8 12 12 10 7 8 12 16 11 13 9 8 11 15 17 18 20 25 30 26 25 21 22 21 22 25 27 29 29
6 6 3 3 4 3 6 7 2 7 7 11 16 21 17 16 13 14 11 6 4 7 8 7 11 15 16 12 12 13 15 15 16 15 18 23 27 21 23 23 20 21 25 23 22 22 21 20 23
5 4 4 2 1 4 8 5 1 9 21 20 16 12 12 9 8 6 6 7 6 7 6 7 11 14 10 12 16 16 16 15 15 17 27 18 19 19 18 20 25 31 29 27 27 27 25 25 27
5 5 2 5 1 3 2 4 4 8 8 16 10 9 18 17 12 8 12 8 4 6 10 11 11 12 13 14 15 15 15 19 24 20 15 18 19 18 23 30 27 27 25 25 24 27 27 26 23
6 2 5 4 2 2 3 3 3 3 4 5 7 11 7 14 15 10 8 5 7 10 14 17 18 17 14 16 19 24 26 19 10 14 17 18 22 25 30 28 25 27 27 26 24 23 22 23 20
4 3 4 2 4 3 1 3 3 10 7 7 16 23 23 19 14 10 9 12 13 16 19 21 23 23 25 27 30 30 26 20 19 24 26 27 29 28 23 21 21 22 23 23 25 25 24 23 22
1 4 5 4 3 1 4 4 4 8 15 15 17 16 14 14 12 11 11 12 17 22 26 28 20 21 26 27 32 28 25 23 27 32 26 24 22 17 16 19 24 24 23 23 22 22 23 23 20

GFSSGP_850_spd_012.txt.gz
Wind_Speed
3 3 3 2 2 3 4 5 5 9 7 18 19 16 11 12 2 7 25 15 22 23 21 17 15 14 12 11 11 11 10 11 10 10 9 9 10 10 10 11 11 12 12 10 10 10 10 11 11
5 5 2 1 3 2 4 2 16 15 22 21 24 21 20 8 19 26 26 23 17 21 20 17 14 13 12 12 11 10 10 10 9 8 8 8 8 9 10 10 11 12 12 13 13 13 13 12 12
9 6 3 3 3 5 3 2 16 15 18 10 8 12 7 13 18 18 23 20 18 20 19 17 15 13 12 11 10 9 9 8 7 7 7 7 8 8 9 9 10 10 11 13 14 15 14 13 13
6 4 1 3 7 7 9 6 20 25 23 20 19 8 12 20 24 22 24 22 19 19 19 16 14 13 11 10 9 8 7 7 7 7 7 8 8 9 9 10 11 11 11 12 13 14 14 13 12
4 3 2 1 6 4 2 4 23 8 11 18 21 6 10 18 23 24 21 14 14 21 18 16 14 12 10 9 8 8 7 6 6 6 7 7 7 8 10 10 11 11 11 12 12 12 12 11 10
1 3 2 1 5 10 7 11 23 20 29 26 26 18 11 27 26 25 18 15 19 21 20 17 13 11 9 8 6 6 5 5 6 7 7 6 7 9 11 10 10 11 11 13 13 14 13 11 9
4 4 3 4 2 9 5 10 8 17 13 7 20 7 18 27 23 23 15 18 19 19 17 15 13 10 8 5 4 5 7 7 8 8 6 8 9 10 11 11 12 13 14 14 15 15 15 13 13
3 4 3 3 3 5 5 16 23 19 6 25 24 7 19 28 24 20 16 18 19 18 15 14 12 10 9 7 8 8 9 10 9 9 8 9 11 12 11 13 12 14 14 15 18 18 18 16 16
7 3 2 4 3 2 14 13 17 22 22 7 7 32 35 29 24 20 21 21 19 15 13 11 11 12 13 11 10 10 10 10 11 8 7 8 9 9 10 11 11 13 13 14 16 18 20 21 19
7 4 7 8 9 5 4 17 13 9 20 15 24 32 35 32 26 22 24 23 19 17 12 9 9 11 11 11 11 11 11 10 10 8 6 5 5 5 6 8 10 12 12 13 14 15 18 21 20
1 4 4 6 18 18 10 10 9 20 3 26 35 38 34 32 26 25 24 22 22 17 15 12 11 9 9 4 6 7 8 8 7 6 5 3 2 3 5 7 9 10 11 13 14 18 18 23 20
3 5 6 4 11 17 12 14 7 10 12 25 30 36 35 29 27 28 27 25 26 20 15 14 12 11 11 8 6 4 4 2 3 3 2 1 2 1 2 3 5 8 9 12 15 18 20 24 21
7 4 10 13 14 10 14 8 6 5 22 27 31 33 28 25 24 22 26 27 30 23 21 17 15 12 10 8 8 7 4 2 2 3 3 4 2 1 1 2 3 4 6 10 12 15 19 23 20
8 13 9 9 7 7 6 2 9 11 33 35 34 31 25 24 22 25 29 32 32 28 26 19 17 15 14 11 9 7 8 9 7 5 5 5 6 5 3 5 5 6 8 11 14 18 21 22 21
22 6 4 1 4 2 6 3 3 20 30 36 33 31 28 26 23 26 28 35 37 34 28 23 18 13 10 12 9 8 11 7 6 4 7 8 7 8 9 8 8 10 12 15 19 23 26 26 24
5 6 3 3 6 2 5 7 7 19 33 34 36 34 31 31 28 23 23 28 38 36 33 30 20 15 8 10 7 7 9 6 9 9 12 13 12 11 11 12 15 18 21 22 28 35 32 29 29
6 3 3 2 10 3 3 5 6 26 29 33 33 34 25 22 26 26 24 20 31 35 37 33 18 10 9 11 12 10 11 8 10 10 11 12 9 8 11 16 19 26 36 36 34 33 27 29 30
4 4 3 7 4 2 4 3 5 9 15 6 9 17 18 14 10 14 9 10 23 31 25 18 12 10 11 16 12 13 11 12 9 5 2 4 7 12 16 20 29 35 28 28 35 28 26 29 31
5 3 7 3 2 4 6 7 6 12 25 26 31 33 39 36 29 24 23 20 21 22 14 13 16 15 17 11 16 12 9 4 1 3 5 10 20 17 24 31 35 30 27 24 23 27 31 33 34
4 8 5 5 7 5 8 8 6 14 12 26 32 34 39 37 34 30 27 25 22 21 18 9 13 13 13 10 4 5 1 1 4 9 15 18 23 28 28 22 20 19 19 21 24 29 33 35 36
5 6 3 2 3 6 13 6 7 8 21 26 28 33 33 32 31 28 26 22 18 16 15 12 9 6 3 3 2 3 8 12 13 17 21 23 22 21 21 16 17 19 23 28 30 30 31 33 33
3 3 4 3 3 5 2 4 5 5 11 17 23 31 32 31 26 24 22 19 17 14 10 9 9 6 1 5 11 15 16 16 18 20 18 16 20 16 17 20 24 27 31 32 30 29 28 27 28
4 1 1 1 3 3 3 6 5 5 8 8 15 27 26 23 22 19 15 14 14 11 9 8 8 9 9 12 15 15 17 19 18 16 17 14 14 17 20 29 30 26 24 24 24 24 23 21 21
2 1 6 4 3 3 5 5 4 3 7 5 12 24 22 19 16 13 12 11 11 10 8 7 7 10 12 13 13 14 16 15 13 12 13 16 20 23 26 27 27 23 22 24 28 25 23 21 24
8 5 3 4 4 4 4 7 1 2 5 14 17 19 18 16 13 9 7 6 6 6 5 4 6 9 10 12 13 13 12 11 13 14 18 22 26 27 20 24 21 23 29 26 24 25 25 26 25
4 4 4 4 2 3 6 3 0 4 23 22 18 17 15 14 13 12 11 10 9 9 7 7 9 11 14 13 10 10 13 20 25 25 32 32 23 20 19 20 25 26 22 20 21 20 16 20 20
3 4 4 6 3 3 1 3 2 3 7 15 7 12 17 17 20 23 15 7 3 4 8 11 13 14 15 16 18 22 28 29 31 29 29 26 24 23 21 26 26 25 23 21 21 23 22 19 18
6 2 4 4 2 2 3 3 4 5 5 9 11 12 15 20 18 15 11 9 9 11 12 14 16 14 15 17 23 25 31 31 35 32 28 27 28 27 26 21 25 22 20 20 17 20 18 19 23
5 3 5 4 3 4 2 4 3 8 8 10 14 22 21 18 17 14 11 10 10 13 16 15 12 15 19 22 25 28 30 33 34 31 28 32 30 27 23 22 19 20 20 20 20 20 21 21 23
2 3 4 4 2 2 4 4 3 6 19 25 22 19 18 13 12 9 9 10 14 15 15 13 15 17 18 19 22 25 28 30 33 28 28 23 20 13 14 23 21 19 19 23 24 23 25 24 25

GFSSGP_850_spd_015.txt.gz
Wind_Speed
4 4 7 3 2 3 2 5 2 2 4 7 10 8 8 9 3 1 28 22 28 25 22 19 16 14 12 11 11 10 9 10 10 10 11 11 11 12 12 12 13 13 13 14 14 14 14 13 12
2 7 7 4 3 1 3 2 6 6 17 20 15 13 7 4 12 14 19 30 27 25 23 20 16 14 12 12 11 10 9 9 10 10 9 10 10 11 12 12 13 13 14 14 14 14 13 12 12
6 6 3 4 3 4 3 4 6 16 17 15 4 8 2 10 25 22 22 29 25 25 22 18 15 13 12 11 10 10 9 9 9 8 8 8 10 11 12 12 12 12 12 13 13 13 12 10 10
7 4 3 3 5 7 4 6 14 12 13 7 20 4 7 5 18 19 28 25 23 21 20 17 14 12 11 11 10 9 8 7 7 7 7 9 10 11 11 11 11 11 12 12 13 12 11 11 10
6 2 3 2 2 5 5 6 17 6 7 12 10 7 6 9 15 25 25 24 22 22 19 16 14 13 11 9 7 7 6 7 6 6 8 10 11 11 11 12 12 12 14 13 13 13 12 11 10
2 2 3 2 1 3 5 11 11 6 8 16 16 12 3 16 22 23 23 23 21 20 18 16 13 11 9 8 7 6 6 6 5 8 10 11 12 12 12 13 14 15 15 15 15 15 15 14 15
4 3 4 2 3 5 3 9 4 14 12 6 20 5 14 24 20 20 18 19 20 19 18 16 13 10 8 8 7 6 6 5 8 10 11 13 12 13 13 13 14 14 14 15 16 17 16 16 17
1 3 0 2 8 4 9 3 14 17 4 20 21 7 12 29 23 23 22 21 20 18 16 14 11 9 8 7 8 8 9 10 11 11 11 11 11 11 11 12 13 13 13 13 14 17 19 18 18
3 3 1 3 8 7 23 6 19 6 21 5 2 20 34 33 29 27 25 23 20 18 14 13 11 11 10 10 12 12 12 12 10 10 9 7 8 8 8 10 10 10 10 10 12 14 18 20 18
3 4 6 4 9 6 17 9 16 8 7 6 21 25 36 35 31 26 27 25 21 17 14 13 12 12 13 13 13 12 11 12 8 6 6 4 4 5 6 8 8 9 9 9 11 13 14 17 19
5 5 5 6 18 24 21 11 6 20 3 21 31 37 38 33 28 23 25 21 18 15 15 15 15 13 12 13 13 12 11 10 6 4 3 1 2 3 4 5 6 6 7 8 10 12 15 18 20
3 11 5 4 20 15 13 12 10 10 12 25 25 38 38 33 31 25 24 21 20 18 16 15 16 15 11 11 10 9 9 7 5 2 1 1 3 3 2 2 2 3 4 7 9 10 13 17 19
3 3 2 12 14 14 10 8 7 5 18 27 32 37 36 34 30 25 22 20 21 21 20 18 18 16 13 11 11 9 6 4 3 1 1 3 3 5 5 4 4 5 7 11 12 14 17 20 24
10 3 8 8 12 10 6 2 1 3 27 31 37 38 35 34 32 29 27 25 28 25 23 21 19 16 14 11 10 9 7 6 3 2 2 3 4 6 7 7 7 8 10 13 16 22 21 25 30
12 4 4 2 3 2 6 2 3 18 31 35 36 35 36 33 30 31 33 29 28 28 25 20 18 14 12 12 10 8 8 6 4 4 6 8 8 9 11 12 12 14 16 18 24 30 29 29 30
4 5 3 4 3 2 3 7 1 21 30 31 35 34 28 27 28 26 30 31 30 29 26 21 18 16 14 14 10 10 9 8 9 10 11 12 11 11 11 12 13 17 21 26 34 36 31 31 27
6 3 2 3 5 3 3 5 5 20 30 28 14 13 13 15 14 18 18 22 30 33 30 24 23 15 11 10 4 6 11 10 9 10 10 11 9 8 11 16 19 22 29 33 34 31 29 25 25
3 2 2 5 3 4 2 5 8 7 14 11 10 10 11 11 12 12 16 16 26 37 34 25 19 9 7 8 10 12 10 4 4 3 4 7 8 12 18 21 25 28 31 31 30 27 26 28 31
2 3 3 2 2 7 5 9 10 14 22 23 22 21 20 15 12 13 12 13 20 25 26 16 10 15 8 6 9 7 3 1 3 3 5 13 23 25 25 26 26 32 31 26 27 28 30 31 33
6 6 2 3 8 10 10 12 9 16 13 20 24 27 30 28 23 18 15 12 13 13 8 5 10 5 4 6 6 5 4 4 9 14 16 18 21 25 20 26 28 25 21 22 25 29 32 33 30
4 2 2 5 6 5 10 9 8 9 18 21 24 27 29 29 26 22 18 13 11 12 10 10 9 4 1 4 4 6 9 10 16 21 23 25 23 20 23 20 19 19 22 24 29 28 28 29 29
3 2 3 4 6 4 3 2 4 3 6 9 16 26 25 24 24 21 20 20 18 16 13 9 7 5 5 5 8 12 11 16 18 20 20 19 20 19 16 15 18 30 31 29 27 28 29 31 29
3 1 2 2 4 4 4 5 3 5 2 4 11 21 24 24 21 21 21 18 16 14 10 7 4 2 1 7 12 14 13 16 16 13 13 15 16 18 21 28 34 25 26 28 29 31 30 25 25
1 4 6 4 3 3 4 5 5 6 5 4 7 18 24 24 20 22 18 16 14 11 8 7 2 3 7 11 12 13 14 13 10 11 15 21 28 32 32 21 23 26 26 26 28 23 22 22 21
5 5 2 3 3 4 5 3 5 4 14 10 16 22 22 23 23 21 18 13 11 9 7 5 1 6 10 10 10 10 11 14 18 20 22 24 27 26 25 22 23 21 25 22 20 18 19 19 19
3 4 4 5 3 3 4 1 4 4 21 26 24 24 22 19 17 18 16 12 10 10 6 3 6 9 11 11 12 14 17 21 22 23 26 28 29 29 24 22 21 19 21 18 17 19 19 20 17
1 4 3 6 3 3 2 2 5 3 7 18 22 18 16 16 16 16 15 11 8 5 4 8 11 11 10 12 15 18 22 23 22 23 27 29 29 24 19 20 19 22 19 18 16 17 18 18 20
5 4 3 4 3 2 2 4 4 8 7 3 11 22 22 23 21 17 13 9 4 3 8 11 10 11 13 15 18 18 19 21 22 25 28 29 25 21 18 21 15 16 19 17 18 19 19 23 24
4 2 6 5 3 4 2 5 5 8 8 8 15 25 26 22 18 15 10 3 4 8 9 7 6 7 12 14 17 21 20 19 24 26 28 23 18 21 31 27 19 15 19 18 18 21 23 23 24
1 3 4 4 3 1 3 5 2 7 15 23 26 28 25 21 16 11 5 1 5 6 3 4 8 12 13 17 22 21 23 28 28 26 23 22 26 28 31 28 24 16 17 17 20 22 24 26 24

GFSSGP_850_spd_018.txt.gz
Wind_Speed
4 4 4 3 3 5 3 5 2 3 4 8 12 11 6 4 2 2 17 21 26 25 24 21 18 17 15 13 11 10 11 11 11 12 12 12 12 13 14 15 15 15 15 15 15 14 13 12 11
3 4 4 2 4 3 4 3 7 9 13 20 18 6 8 4 6 18 28 24 24 25 23 20 17 16 14 12 11 11 11 11 11 11 11 11 12 13 14 14 14 14 14 14 13 12 12 11 10
7 5 3 4 3 3 4 5 7 14 6 8 6 8 4 6 11 24 21 26 25 23 21 19 17 14 12 11 11 12 11 10 10 9 10 11 11 13 14 13 12 12 11 11 11 11 10 9 10
7 3 3 4 4 6 5 9 15 7 2 9 7 3 2 2 10 12 26 27 25 22 19 17 15 12 12 12 12 12 10 10 9 9 11 11 12 13 13 12 11 12 13 14 13 12 12 11 11
8 2 3 3 4 4 3 16 18 3 4 12 16 4 6 11 9 19 26 24 22 21 19 16 14 12 12 12 11 11 10 9 9 10 11 12 13 13 14 15 14 14 15 16 17 17 16 17 16
4 2 4 2 4 6 2 16 9 2 11 9 8 11 5 10 15 22 22 22 21 19 17 15 13 12 12 11 10 10 9 9 10 12 13 14 13 14 15 15 15 15 16 17 17 17 17 17 17
4 4 4 5 2 4 4 10 7 8 10 3 17 3 10 18 18 21 21 21 20 18 17 16 15 12 11 10 10 9 9 10 13 13 15 15 14 13 13 14 14 14 13 15 17 17 18 18 17
1 4 3 1 4 3 1 3 12 4 4 17 7 6 9 25 21 21 21 20 20 19 17 15 13 11 10 10 10 10 11 13 14 14 13 13 12 12 11 12 12 12 11 11 13 14 17 17 16
2 4 1 5 10 4 14 5 3 5 16 3 3 9 24 28 24 23 24 23 22 20 17 14 12 11 11 11 12 12 14 14 14 12 10 10 9 9 8 9 9 9 8 8 9 11 12 14 14
3 4 7 6 8 7 23 15 13 5 9 4 7 12 32 30 28 28 29 27 23 20 17 14 13 12 12 13 13 14 14 14 12 10 8 8 7 6 6 6 7 6 6 6 7 8 10 13 16
3 4 6 5 18 23 16 10 7 14 2 11 26 32 32 31 30 27 25 22 19 18 17 15 13 12 12 13 12 13 12 10 8 7 6 5 4 4 4 3 3 2 4 6 8 11 13 17 20
1 9 11 8 27 14 13 14 7 17 5 16 23 30 35 34 31 27 24 22 21 18 14 15 14 12 13 12 10 9 10 7 4 4 2 1 1 1 1 1 2 4 6 8 10 11 15 22 25
4 6 1 6 8 10 19 10 6 9 5 22 27 32 35 34 30 26 20 18 19 18 16 14 13 11 10 11 9 6 6 4 2 0 0 1 2 3 3 5 6 7 7 9 10 11 18 26 26
5 2 2 5 18 10 9 5 7 11 18 24 31 33 33 31 28 24 22 21 20 17 15 13 12 12 11 10 9 9 7 6 6 5 5 4 3 4 6 8 8 7 9 12 13 17 26 28 24
8 5 5 6 4 4 12 3 2 10 24 28 33 32 30 29 27 26 22 21 19 18 17 17 15 14 14 11 13 11 3 9 12 11 9 7 7 7 8 8 8 10 13 17 20 27 27 23 24
5 5 3 4 3 3 4 5 9 17 30 26 22 22 22 23 25 25 22 18 22 22 21 17 18 17 13 10 10 9 9 11 13 11 10 9 9 8 8 10 12 16 19 22 25 26 24 24 24
7 3 1 2 2 3 4 2 10 11 11 13 14 14 14 16 16 21 21 24 24 27 25 25 20 14 4 11 14 11 9 7 9 8 9 9 7 7 11 15 20 28 24 25 29 25 23 24 27
5 3 1 3 2 12 8 6 8 7 9 9 11 9 10 11 14 12 16 19 22 26 26 24 20 15 16 6 10 4 4 5 0 6 6 7 10 16 21 25 20 17 20 27 26 24 25 27 29
4 4 3 1 4 8 5 6 9 15 15 12 12 11 9 8 6 8 9 11 14 16 20 19 15 12 7 6 9 13 3 9 6 4 9 16 19 18 21 24 20 23 29 29 25 25 30 33 34
5 8 4 3 6 8 9 10 8 15 8 10 14 15 15 16 14 13 12 8 7 7 8 6 7 7 7 7 2 5 5 6 9 13 16 18 19 20 23 22 25 27 26 24 27 32 28 28 29
5 6 1 4 5 5 5 6 7 7 14 17 19 22 24 25 24 23 19 17 18 18 18 18 15 12 10 9 7 7 9 9 13 17 20 21 20 20 21 21 23 25 30 33 27 27 29 30 28
3 3 5 5 4 3 3 2 3 2 5 5 13 19 21 20 21 21 23 23 20 18 16 15 12 9 7 5 5 8 11 13 16 18 18 17 17 20 23 28 32 32 24 24 27 28 29 27 23
2 5 5 3 4 4 4 5 3 6 2 4 7 14 18 20 22 24 25 19 18 15 12 10 7 3 0 3 6 9 11 12 14 13 15 18 21 22 26 24 24 27 25 23 25 26 22 21 20
3 5 8 5 3 2 1 4 4 6 7 5 10 14 18 20 22 20 20 20 18 15 10 8 5 1 2 5 6 9 10 10 11 14 15 18 21 24 26 26 24 20 17 21 21 20 18 19 20
6 6 3 3 3 4 3 2 5 10 7 11 17 20 19 19 20 20 19 16 14 12 9 6 3 2 3 4 8 10 12 14 16 16 18 22 24 25 23 23 25 24 17 16 18 18 19 19 20
3 5 5 5 3 3 3 4 4 4 17 26 23 21 20 21 20 17 15 14 12 11 10 6 1 5 7 8 10 12 13 14 14 15 18 22 25 26 28 23 22 24 21 20 21 19 17 19 17
2 3 3 6 2 3 2 4 3 5 6 16 19 19 21 21 19 19 18 17 15 12 6 2 5 5 7 9 11 12 16 17 16 18 22 25 28 27 22 18 24 31 28 22 12 16 17 17 17
2 5 3 3 3 3 3 4 4 6 8 6 11 21 22 21 23 22 20 16 10 5 3 6 13 9 12 14 15 18 21 18 19 25 29 27 24 24 23 26 26 28 23 14 16 16 17 19 20
3 2 6 5 3 4 1 5 5 13 12 11 19 26 28 28 27 23 18 12 7 2 6 14 11 9 12 15 16 17 18 23 28 25 22 22 25 22 24 26 28 27 25 16 15 16 21 22 23
2 3 4 4 3 1 3 5 3 8 12 20 24 29 29 28 24 19 14 9 6 9 11 7 6 8 11 14 15 17 22 25 20 20 25 25 29 23 21 23 24 22 22 16 15 18 22 24 25

GFSSGP_850_spd_021.txt.gz
Wind_Speed
4 6 6 6 3 1 2 2 1 8 5 8 12 13 10 7 3 2 13 17 22 22 23 22 20 18 17 16 15 14 14 14 13 13 13 13 12 14 14 14 14 13 12 12 11 11 11 10 10
5 7 5 3 2 1 1 3 13 14 15 12 13 11 12 3 7 10 22 19 24 23 24 22 19 17 15 14 14 13 13 13 13 13 12 13 13 14 14 12 11 10 9 9 9 9 10 10 10
6 7 3 2 2 3 2 9 18 20 13 9 5 7 11 3 3 17 17 22 27 26 24 21 18 16 15 14 13 12 13 12 12 12 12 13 14 14 13 11 10 10 10 10 11 11 11 12 11
6 4 2 2 4 3 4 14 24 18 8 7 3 5 8 11 25 16 20 26 25 23 21 19 18 16 14 13 12 13 12 12 12 13 13 14 14 13 12 10 11 12 13 14 15 16 16 16 15
6 1 1 1 1 1 3 20 11 8 9 9 13 5 5 15 16 17 23 25 24 22 21 19 17 15 14 13 12 12 12 12 13 13 14 15 15 14 13 12 13 15 16 17 17 18 17 17 18
2 2 1 2 2 3 2 10 10 11 18 8 8 10 5 10 11 19 22 23 20 21 20 18 16 15 14 12 12 12 12 12 14 14 15 15 15 15 13 13 14 15 16 16 16 16 17 16 16
1 2 3 3 6 5 4 12 11 15 10 5 13 4 8 13 18 22 23 23 22 20 19 18 16 15 13 12 12 12 12 14 15 16 15 15 14 13 12 12 12 13 13 13 13 14 14 15 14
2 2 3 2 12 14 4 4 4 7 2 15 8 5 7 21 23 24 23 22 20 19 18 16 15 15 14 12 12 11 12 15 15 15 14 13 12 11 10 9 9 9 9 9 9 10 13 15 15
2 1 3 6 12 5 12 10 4 3 9 3 2 7 13 27 25 24 23 22 21 19 16 15 14 13 13 13 12 12 14 15 15 13 11 11 9 8 7 7 6 7 6 7 8 10 12 15 18
2 2 7 5 11 10 9 15 13 3 7 2 5 10 28 26 25 25 25 25 22 20 17 14 13 12 12 13 12 13 14 14 12 9 8 7 6 4 3 3 4 3 4 6 8 10 12 16 20
4 3 4 7 16 32 27 12 11 13 8 8 11 25 28 26 24 23 23 22 21 18 16 14 13 12 12 11 12 12 13 11 8 6 6 5 3 3 2 1 0 2 4 5 7 9 11 16 21
3 5 4 4 13 16 13 12 6 9 3 5 11 26 29 25 23 22 21 20 19 18 16 14 12 11 11 11 11 11 10 7 5 3 2 3 3 2 3 3 3 3 5 7 8 8 10 18 23
5 3 6 10 6 10 15 6 5 9 4 7 19 30 28 26 23 20 19 19 19 17 14 14 13 12 12 11 10 8 7 4 3 3 3 2 3 4 4 4 5 7 8 9 11 12 15 21 24
4 6 4 3 11 14 9 4 3 5 9 18 25 28 25 25 23 20 19 19 18 16 15 15 14 13 12 11 9 8 4 3 7 10 7 7 7 6 6 6 8 10 12 14 15 18 21 24 25
7 5 4 5 2 5 15 5 6 7 15 21 21 22 24 24 22 19 18 17 16 15 17 16 16 14 13 9 9 2 8 6 16 17 12 9 7 7 8 9 11 12 14 17 19 21 25 27 24
3 3 4 2 3 4 1 4 7 4 10 14 17 19 20 15 17 17 17 16 15 16 17 18 15 16 13 8 4 11 21 17 18 15 11 7 5 7 7 9 12 16 19 18 20 22 24 22 22
6 3 3 4 8 4 6 2 11 3 9 10 11 13 15 15 13 16 15 16 15 14 16 18 15 13 12 9 13 20 17 13 5 2 3 6 5 6 10 19 26 24 19 18 22 22 21 22 23
4 4 1 4 4 12 9 5 8 6 9 10 10 11 12 13 14 11 14 16 13 17 17 20 16 10 7 15 4 8 4 6 3 6 3 3 7 15 20 20 20 20 18 22 22 23 27 29 31
5 4 5 3 1 7 6 6 9 7 9 7 8 10 10 9 9 10 8 8 10 8 12 16 15 11 10 3 6 10 5 3 0 2 6 9 14 16 16 15 15 16 19 23 26 29 31 27 28
4 7 4 5 3 5 5 9 8 9 3 3 7 9 10 12 11 10 9 8 7 9 10 12 4 11 13 11 10 4 5 3 3 6 10 15 17 16 15 16 18 22 27 29 24 21 23 24 26
3 5 4 4 6 6 4 4 4 5 6 5 7 11 14 18 21 19 18 17 18 16 15 17 16 15 13 10 8 4 2 5 8 11 13 15 14 14 16 20 22 22 21 21 23 22 24 24 22
4 1 7 11 3 3 2 3 1 2 4 5 9 14 18 23 23 24 25 24 24 21 20 20 18 17 14 9 5 2 5 8 11 12 12 12 14 16 18 21 22 23 24 23 22 21 23 20 17
3 3 5 3 4 3 1 1 2 5 6 9 11 11 14 21 24 26 25 23 22 21 20 18 15 12 8 4 3 6 8 8 9 10 12 13 15 18 21 24 27 25 25 23 21 22 17 16 15
9 5 6 3 2 1 1 3 5 9 13 13 11 11 17 23 24 24 22 21 21 19 17 15 11 8 5 4 5 7 7 9 10 11 13 15 20 22 22 24 25 26 24 20 21 19 17 16 14
3 4 1 0 0 4 1 3 5 12 10 19 20 19 21 24 24 23 21 20 19 17 15 14 10 7 2 3 5 7 9 12 14 14 15 18 21 25 27 27 27 25 19 22 23 19 15 14 15
3 2 4 4 3 1 1 5 2 3 14 22 21 20 23 24 22 20 19 18 17 17 15 12 8 2 1 4 7 9 12 13 11 13 16 20 26 27 29 28 26 21 23 24 20 15 12 15 15
3 2 2 6 1 1 2 3 5 1 7 15 19 21 22 24 24 21 18 17 18 17 14 8 4 4 5 9 8 8 10 11 13 18 24 26 24 24 26 23 21 19 25 22 22 18 13 15 15
1 7 2 2 3 3 2 5 6 5 12 13 17 22 23 25 24 21 19 20 19 15 10 4 4 7 11 5 6 8 10 15 21 25 23 21 23 26 26 20 20 24 25 27 21 19 17 15 18
3 2 5 4 1 3 2 4 4 10 15 18 23 24 27 28 25 23 23 21 16 11 6 3 4 8 6 4 7 9 14 20 24 20 18 21 25 27 24 20 20 20 23 21 23 20 15 17 23
1 3 4 3 4 1 0 5 1 5 12 16 20 22 24 26 25 25 23 18 13 10 4 2 7 5 7 6 9 13 18 22 21 19 19 22 27 28 25 21 18 18 20 22 21 13 13 23 24

GFSSGP_850_spd_024.txt.gz
Wind_Speed
6 4 2 2 6 6 9 5 7 10 11 17 13 14 13 11 7 2 14 17 24 26 25 22 20 18 16 14 13 12 12 11 11 10 10 11 12 13 12 12 12 11 10 9 9 9 9 10 10
5 3 2 3 7 9 6 3 8 12 17 11 13 8 12 9 8 11 12 20 25 26 24 22 20 18 16 14 13 13 12 11 11 11 12 12 13 13 12 11 10 9 8 8 9 9 9 10 10
5 7 6 4 8 10 1 10 16 20 16 11 5 9 4 4 8 8 9 25 24 21 22 22 21 18 16 15 13 14 13 12 12 12 13 13 12 12 10 9 9 9 10 11 12 12 12 12 12
5 5 5 8 9 3 0 14 17 17 8 4 12 8 4 6 10 14 19 20 23 25 22 22 20 17 16 14 14 14 13 12 12 12 13 13 12 11 10 11 11 13 15 15 14 15 16 17 16
6 5 7 8 4 2 5 18 16 7 8 12 9 11 11 13 16 19 19 26 23 22 19 20 18 16 14 14 14 13 12 12 12 12 13 13 11 11 11 13 14 14 15 15 14 15 16 16 17
9 5 6 10 4 5 6 17 7 6 4 10 6 13 5 12 22 20 17 24 24 26 21 19 16 15 14 14 12 12 12 11 12 12 13 12 12 11 12 12 13 14 14 14 14 14 15 16 17
8 7 6 2 6 6 5 9 10 2 6 3 6 5 5 12 16 18 20 21 17 18 19 17 16 14 14 12 11 11 11 11 11 13 12 12 12 10 10 9 11 11 12 12 11 12 13 15 16
4 5 7 5 9 9 11 6 14 13 4 4 6 6 6 16 22 19 20 18 18 18 17 16 15 13 13 12 11 11 11 11 11 11 12 11 9 8 7 7 7 6 7 6 7 9 10 12 15
3 6 8 8 10 11 17 11 4 7 9 6 2 3 11 23 25 21 19 18 17 17 16 16 14 13 11 10 11 11 11 12 12 11 10 8 5 5 3 4 5 4 3 2 4 6 7 11 16
8 7 5 7 10 12 11 8 9 6 9 7 6 10 22 26 23 20 20 20 18 18 17 17 14 12 10 10 11 11 12 8 7 6 7 4 4 3 3 2 2 1 1 2 3 5 7 10 11
7 4 2 9 14 7 13 21 22 7 7 8 8 21 25 24 20 18 17 18 18 17 16 14 13 12 11 9 9 8 7 7 6 5 4 5 4 3 3 2 1 2 3 2 4 6 7 14 16
9 9 2 9 15 14 11 16 13 13 8 3 8 21 26 21 19 17 15 14 13 14 12 12 12 12 12 10 9 10 7 5 3 4 4 5 3 5 4 3 4 4 6 7 7 8 14 16 20
11 4 4 6 12 14 9 13 5 6 4 11 19 22 20 18 16 15 15 14 14 14 12 13 11 12 12 13 12 12 10 6 4 4 5 5 3 7 6 7 6 7 8 7 9 10 13 17 15
3 9 3 7 11 14 13 6 6 7 6 14 18 19 17 16 14 13 12 13 13 13 12 14 13 14 14 15 14 12 6 1 5 8 12 9 8 8 9 8 8 9 11 13 12 16 17 14 15
5 7 8 9 12 7 11 8 7 4 7 13 15 14 13 13 13 11 11 11 13 12 13 15 15 15 15 14 13 13 4 12 19 23 27 13 11 12 9 9 10 12 16 17 19 21 14 14 16
7 6 6 6 7 4 10 12 7 3 10 13 14 13 12 10 10 9 9 11 12 13 15 17 17 14 14 12 14 10 17 20 18 16 9 5 4 7 10 9 10 18 20 19 14 12 13 16 18
6 8 7 8 5 7 6 8 6 3 12 13 13 13 16 12 10 8 10 11 13 15 16 18 20 21 19 14 12 19 18 10 10 4 0 3 5 6 8 13 16 13 15 17 13 12 16 18 20
8 6 10 10 4 6 7 7 5 5 12 14 15 14 14 12 9 12 12 11 13 14 14 16 19 21 16 10 12 10 4 6 7 4 4 4 6 9 12 12 14 13 10 11 15 19 18 18 21
3 6 11 8 5 4 6 7 4 6 10 11 13 13 13 11 9 11 12 13 13 14 15 13 14 14 5 9 10 10 13 9 5 4 3 7 10 12 12 11 11 14 14 20 22 17 17 20 19
6 9 8 5 4 4 7 5 4 4 6 8 11 13 12 10 9 10 10 12 12 14 16 12 11 10 13 15 14 11 9 7 6 7 9 9 10 11 12 14 12 17 17 14 15 19 19 19 18
5 5 10 7 7 2 9 7 7 4 5 6 7 8 9 10 11 12 13 13 13 15 15 14 15 15 16 14 11 8 8 4 4 4 7 11 11 11 14 17 19 19 17 17 16 15 15 15 16
6 1 9 13 12 7 8 6 8 6 6 7 9 11 11 13 14 15 16 16 15 14 15 16 17 16 16 13 9 8 6 5 4 4 4 5 13 14 16 18 20 20 18 16 14 12 13 13 17
4 6 8 5 4 5 10 8 9 8 9 11 14 16 17 16 17 17 16 15 15 16 17 17 17 15 15 12 9 7 4 2 1 3 6 8 10 13 14 16 19 18 16 14 11 11 13 14 15
11 8 5 2 3 6 3 6 6 8 13 15 18 17 18 19 18 17 16 16 17 16 17 18 16 15 12 10 7 4 2 2 2 4 7 10 12 15 17 19 19 19 17 14 12 14 13 15 14
5 9 3 4 4 7 2 6 12 1 5 18 21 21 21 20 20 18 18 17 17 17 16 15 14 13 10 6 3 2 3 5 5 7 9 12 15 18 18 19 19 19 17 15 15 15 17 16 14
7 6 4 5 4 3 3 6 0 2 7 16 22 22 23 22 20 20 19 18 17 17 16 14 13 11 8 3 3 7 8 4 6 8 11 13 14 14 17 18 18 17 15 14 18 17 18 15 14
6 6 2 2 1 3 5 4 8 4 9 17 23 24 25 24 22 20 19 17 17 17 16 14 12 8 4 5 3 4 6 6 7 11 11 11 12 14 18 19 18 16 17 18 19 19 20 18 15
3 8 3 3 3 4 3 6 3 8 13 15 21 26 26 24 22 21 19 18 17 16 15 13 9 4 1 4 5 5 5 8 13 10 10 10 12 16 19 19 18 17 18 21 21 21 20 16 16
4 4 1 0 2 2 3 0 3 0 10 16 23 27 27 25 24 21 19 18 18 17 15 12 7 3 0 6 7 5 4 9 11 10 11 11 14 17 19 19 18 17 18 19 20 21 19 15 16
2 5 7 4 4 1 2 3 3 1 4 14 20 24 25 24 23 22 21 20 20 19 16 12 9 4 6 9 6 4 10 9 11 12 12 13 15 18 20 18 17 16 17 18 20 16 12 13 16

GFSSGP_850_spd_027.txt.gz
Wind_Speed
9 6 5 9 7 8 17 17 11 15 9 7 5 9 10 15 10 4 15 18 25 26 26 26 23 20 18 16 13 11 11 10 8 7 7 8 9 10 10 9 9 9 9 9 9 9 10 10 11
4 8 8 12 8 14 13 7 8 13 13 11 10 8 12 11 11 11 14 19 26 26 27 26 22 19 18 15 12 12 11 10 8 8 8 9 10 10 9 9 8 8 9 10 11 12 13 14 13
7 9 13 8 14 14 9 15 15 17 15 11 7 12 5 3 6 8 13 23 27 26 22 23 22 20 17 14 12 12 11 9 9 9 9 10 10 9 9 9 10 10 12 13 15 16 17 18 17
7 8 14 10 17 6 4 10 13 13 10 7 9 10 8 3 6 8 18 22 24 25 24 22 21 18 16 14 12 12 11 10 9 10 11 10 10 9 10 11 12 13 14 14 15 17 18 19 19
11 15 12 14 18 2 6 19 17 10 9 8 6 10 12 11 8 15 19 19 22 22 23 23 19 17 15 13 13 12 11 10 10 10 10 10 10 10 12 12 12 13 14 14 15 17 18 20 20
14 18 13 14 16 6 6 15 13 13 8 7 11 11 5 9 10 12 14 15 20 25 21 26 20 17 15 14 13 12 12 11 10 10 10 9 9 10 12 11 12 12 12 12 13 15 16 16 18
17 11 16 17 5 2 5 14 2 9 10 7 7 4 3 8 13 13 16 20 18 28 27 25 21 18 16 15 13 12 11 10 10 10 10 10 9 9 8 8 9 9 9 9 10 11 11 12 15
18 11 19 8 5 2 6 11 7 12 6 8 0 6 5 11 14 12 14 29 23 19 24 22 19 17 16 15 13 12 10 10 11 10 10 8 7 6 5 3 4 3 4 5 5 6 7 12 18
12 11 14 13 3 10 11 13 9 7 10 8 6 7 3 14 13 12 13 14 16 16 20 17 19 15 9 9 13 10 10 11 11 10 8 10 6 6 6 3 1 2 3 3 3 4 7 12 15
12 11 16 6 11 5 10 11 12 11 18 14 9 6 15 18 14 12 10 12 16 17 19 18 18 18 16 11 13 10 12 10 7 6 5 6 2 4 4 4 3 4 5 6 7 9 11 11 9
16 14 6 2 8 7 10 11 8 13 16 23 19 17 20 17 14 12 11 11 13 14 16 16 14 13 12 11 10 10 10 9 6 6 5 4 1 2 5 5 6 6 9 6 9 9 8 11 12
13 13 3 7 11 11 8 15 20 31 9 25 14 21 22 17 14 13 12 11 12 12 12 12 11 13 12 11 11 12 9 8 6 3 2 1 3 3 5 5 5 6 6 7 7 8 11 12 13
12 4 5 3 10 8 8 6 2 19 8 16 21 23 20 17 16 14 13 13 13 14 14 13 13 13 14 14 13 12 10 7 5 3 1 3 4 4 3 6 6 8 7 9 9 11 11 14 15
11 13 4 8 10 3 8 3 4 10 11 18 22 21 19 17 15 15 14 14 14 14 15 15 14 14 14 13 13 11 8 3 2 3 4 7 11 15 9 9 8 9 8 8 10 11 13 15 14
4 6 5 8 11 6 16 10 9 6 15 17 20 19 18 16 16 15 15 16 16 16 17 17 17 16 16 15 17 13 6 7 8 15 15 7 10 10 10 11 12 12 13 19 19 19 13 13 17
10 11 9 9 17 16 17 13 9 9 14 18 19 19 17 15 14 14 15 15 15 16 17 17 17 20 19 20 21 11 6 17 23 20 14 3 4 4 10 13 12 13 18 10 9 11 14 17 18
11 12 8 6 11 10 16 12 11 11 14 19 18 19 18 17 15 14 14 15 15 15 16 17 17 19 18 15 11 20 23 21 18 10 5 4 7 7 8 8 13 10 7 9 12 13 16 19 21
8 15 15 14 10 13 10 11 10 13 17 18 20 19 19 17 15 12 13 14 14 15 15 16 20 18 19 21 14 16 22 13 10 8 6 3 4 6 2 5 10 9 10 12 14 17 17 19 22
10 3 7 13 4 9 9 10 10 12 15 17 19 19 18 16 14 12 13 14 15 17 18 23 20 15 17 15 9 11 10 10 7 5 7 4 4 4 5 3 8 11 11 12 15 17 19 20 19
8 5 11 8 9 6 9 9 8 9 14 17 18 18 18 18 13 13 13 14 16 18 20 16 15 14 10 8 11 12 12 8 8 6 4 3 5 7 5 11 9 11 13 16 16 17 19 18 17
7 9 7 10 11 13 9 14 13 10 10 11 15 17 18 19 16 15 15 16 16 18 17 14 13 11 12 14 14 13 11 9 6 3 1 5 6 4 6 9 11 13 15 16 17 17 17 18 18
6 0 7 5 12 14 17 11 11 15 14 14 17 16 15 15 16 16 16 16 16 16 15 14 15 15 16 15 11 11 7 8 7 3 4 3 6 5 8 10 12 14 16 17 16 15 16 17 19
10 4 7 8 14 8 20 9 12 18 14 15 16 17 15 17 18 18 19 17 15 18 17 16 17 16 14 11 11 9 6 3 3 1 3 6 7 9 11 13 16 17 17 17 18 17 16 18 19
5 5 5 8 10 8 15 11 7 14 13 14 15 16 19 20 20 20 20 19 18 17 18 18 17 15 14 13 11 11 9 6 4 3 7 8 9 10 11 14 16 17 17 19 17 17 20 18 18
8 8 7 6 5 9 3 6 11 6 3 13 17 20 20 21 22 22 21 20 20 20 19 18 17 16 14 12 10 9 6 4 6 4 6 7 9 11 11 13 15 16 17 17 18 21 22 20 22
8 10 6 6 7 9 7 7 1 9 4 7 20 21 21 23 22 20 20 19 19 19 18 18 17 16 14 12 11 7 4 3 2 5 6 7 8 8 11 13 16 17 17 16 20 20 18 21 20
5 8 6 5 1 6 11 15 10 5 5 10 19 21 23 23 23 21 21 19 19 19 20 19 18 16 14 13 8 6 5 5 5 6 7 7 7 9 12 14 16 17 17 18 20 20 22 20 24
8 3 4 6 4 8 5 6 3 6 7 10 16 21 23 24 23 22 22 20 20 20 20 20 19 18 15 10 6 4 4 6 6 7 8 8 8 10 13 15 16 17 17 17 19 21 24 23 23
7 9 7 5 3 4 4 1 8 3 6 10 15 21 22 24 24 23 23 21 21 21 21 21 20 18 14 11 6 9 6 8 7 9 9 10 11 12 14 16 17 16 17 16 17 20 22 22 20
9 8 10 6 6 3 4 5 3 4 3 10 13 18 22 25 25 25 23 23 23 23 22 22 21 18 15 8 8 4 10 9 10 11 12 13 13 14 15 17 15 16 17 18 20 20 20 14 12

GFSSGP_850_spd_030.txt.gz
Wind_Speed
8 6 5 10 7 8 16 18 11 8 7 13 15 9 12 18 7 3 21 28 28 29 31 27 25 23 21 19 16 13 13 10 10 10 10 11 12 12 12 12 11 12 14 15 15 17 17 18 18
7 5 11 11 8 13 12 21 9 11 17 14 14 14 13 14 12 16 17 24 24 30 31 29 25 23 20 18 15 13 12 11 10 10 11 11 11 11 10 10 12 15 17 19 20 21 21 22 21
7 6 12 6 12 15 13 12 13 12 10 10 9 12 6 11 12 13 20 26 26 27 27 27 24 21 18 17 14 12 11 10 10 11 12 12 11 10 11 12 16 18 19 20 22 22 23 24 23
5 8 12 9 19 22 7 19 18 10 12 5 12 8 6 6 11 16 19 26 27 28 27 25 21 18 16 15 13 11 11 10 11 12 12 11 11 11 13 15 16 17 19 20 21 22 22 21 21
11 12 11 15 18 22 6 19 11 10 8 17 25 9 9 6 11 18 26 26 26 27 25 25 20 17 14 13 12 12 10 9 11 12 12 12 12 13 14 15 15 16 17 18 18 19 19 21 22
14 17 13 15 21 19 6 11 18 17 14 15 3 16 10 11 13 14 16 21 23 25 24 25 20 17 13 13 13 11 10 10 11 12 12 13 13 14 13 14 14 14 14 14 14 16 17 19 21
16 12 16 20 12 3 7 18 11 21 7 4 7 5 8 13 12 12 13 17 21 24 24 26 24 22 20 15 13 11 10 11 12 12 13 13 12 12 11 11 11 11 10 10 10 11 14 16 19
19 13 20 18 18 7 1 12 22 17 15 5 4 3 6 13 18 15 13 20 19 26 16 25 22 20 18 16 13 11 10 11 13 13 13 13 12 9 7 7 6 7 6 6 7 8 12 14 16
16 10 13 19 22 8 20 21 6 24 16 9 8 6 11 19 14 12 19 11 19 24 25 24 20 16 15 14 13 11 11 12 13 14 16 12 12 9 5 8 5 4 5 7 8 10 11 12 14
13 11 20 2 10 13 17 6 44 7 10 10 11 13 15 17 17 26 20 22 26 18 20 26 22 16 13 14 14 13 15 14 12 12 11 8 6 4 4 6 8 7 10 8 12 13 10 6 10
17 15 15 11 18 13 15 28 15 16 4 6 7 9 17 14 17 17 24 29 29 25 25 24 23 20 14 15 14 17 15 13 7 9 8 9 6 3 4 1 5 10 8 8 10 12 8 16 13
14 18 18 7 19 16 10 14 18 10 3 8 5 9 16 16 16 16 18 24 25 28 25 25 23 22 14 19 16 14 17 15 11 9 7 6 4 6 5 4 6 3 4 7 7 6 10 8 12
13 15 10 9 7 13 5 28 11 8 13 15 13 21 16 15 18 18 14 18 21 23 23 19 25 22 22 18 21 22 18 14 10 7 4 6 7 6 7 9 6 5 5 5 8 8 14 18 15
13 14 6 4 6 6 8 20 20 9 13 18 22 20 17 18 18 18 22 19 20 22 19 15 21 23 22 24 20 19 14 12 10 9 4 1 6 8 10 7 5 10 12 14 14 19 20 18 12
6 5 7 2 4 5 8 5 10 21 21 22 22 20 17 16 18 16 18 16 24 20 19 20 19 24 24 24 22 20 15 12 9 5 12 7 11 8 6 7 6 11 10 14 17 19 12 12 15
8 11 4 7 4 11 15 11 12 19 19 16 15 17 15 15 16 16 15 17 16 20 21 20 23 24 22 22 22 16 11 8 7 12 13 2 5 4 4 6 9 8 11 14 17 11 13 17 16
9 4 7 8 17 11 10 15 9 15 20 21 21 18 18 16 15 16 16 17 18 20 23 22 24 24 21 26 24 15 18 18 17 17 5 2 2 1 3 7 7 8 6 9 10 14 19 20 24
6 13 12 7 8 13 15 10 12 15 19 21 18 18 18 17 17 16 16 16 17 21 22 21 24 21 23 26 26 13 17 17 11 7 3 1 1 3 1 8 9 8 4 9 15 20 22 22 21
13 9 17 16 11 8 12 15 14 17 16 19 21 21 20 18 16 16 16 16 18 21 19 18 23 21 24 22 18 11 6 5 6 5 6 5 3 3 4 6 4 8 11 14 17 18 19 24 16
15 12 4 7 6 4 10 8 13 14 18 21 21 23 24 21 21 17 16 17 15 22 22 18 22 15 18 15 9 5 7 8 8 9 6 6 4 4 3 9 11 14 17 18 14 18 20 18 18
15 2 5 8 9 10 7 13 14 12 12 17 22 22 23 24 22 18 18 18 20 20 19 16 18 11 12 11 13 13 11 15 13 4 3 6 4 4 7 10 14 17 16 15 17 20 17 17 18
8 13 8 9 11 7 7 7 7 9 11 14 22 24 25 25 23 19 19 23 19 18 16 17 15 14 14 16 15 16 13 12 10 11 13 3 10 11 11 10 14 15 19 21 17 15 19 23 18
3 13 13 10 7 4 10 5 11 18 10 16 16 16 19 20 20 22 25 24 20 18 20 18 18 17 19 18 17 15 14 18 15 12 7 4 7 5 8 10 14 15 17 19 19 21 20 19 18
9 10 10 8 5 2 15 9 8 13 18 8 17 19 18 16 17 19 22 15 20 21 20 20 20 21 18 16 16 17 15 12 10 8 5 3 10 9 12 17 21 22 17 17 18 17 21 23 24
8 8 3 7 5 4 12 7 2 20 11 17 29 20 16 19 20 21 23 26 22 24 21 24 23 19 19 19 20 21 20 17 13 8 3 10 10 12 16 20 19 16 17 18 17 19 23 26 27
13 8 2 5 5 8 3 5 4 11 10 19 22 20 20 20 21 22 22 21 24 26 25 24 23 22 21 19 17 17 16 12 3 8 10 14 12 15 15 15 16 18 17 17 18 20 23 25 23
6 2 2 4 6 2 6 16 6 6 7 13 19 18 20 21 22 22 22 23 23 24 24 24 24 22 21 20 19 18 14 12 12 12 17 11 12 11 11 16 17 16 17 17 17 18 22 23 23
5 7 4 1 2 4 8 10 7 7 6 5 14 17 18 22 24 23 23 23 23 23 23 24 24 23 22 22 22 18 13 10 10 10 7 12 13 12 14 13 15 17 17 17 16 18 20 22 25
5 6 6 7 5 1 4 3 6 7 6 6 9 20 22 24 25 25 24 24 22 22 23 25 25 24 27 24 22 17 13 11 8 4 10 12 14 15 12 14 16 16 15 16 20 22 28 20 26
8 9 11 3 6 2 1 6 4 4 5 6 8 13 22 24 25 26 25 24 23 22 24 24 25 25 25 21 20 16 13 9 8 10 11 13 16 16 15 16 17 16 16 18 20 21 16 20 16

GFSSGP_850_spd_033.txt.gz
Wind_Speed
8 4 4 5 2 3 5 8 1 8 5 6 11 11 11 14 3 3 26 23 32 34 30 23 25 26 23 21 18 17 16 15 15 16 17 18 17 17 17 16 18 21 22 23 24 25 26 25 26
7 5 6 5 2 0 6 5 7 8 10 13 18 16 11 5 7 17 22 23 25 35 34 31 27 25 23 20 19 17 16 15 15 16 17 16 16 15 17 18 22 24 25 26 27 27 27 25 23
5 6 4 4 3 7 4 3 5 3 14 8 6 15 8 5 18 15 24 25 31 35 35 31 27 25 22 19 18 16 16 15 17 16 17 15 15 16 19 20 22 24 24 25 26 26 26 24 21
4 3 6 0 10 16 8 9 11 12 16 13 13 7 9 10 13 15 31 28 39 36 33 29 26 23 22 19 16 14 15 15 17 17 16 15 17 19 20 21 21 22 23 23 23 24 24 25 22
5 6 3 4 12 14 5 10 15 8 9 5 13 6 6 7 7 19 31 38 41 38 35 29 27 23 20 15 14 14 14 15 16 16 16 16 18 19 20 19 19 19 19 20 20 21 21 23 24
3 3 2 6 12 9 11 16 22 15 9 8 10 11 5 9 12 14 23 32 36 41 37 31 26 24 22 17 16 15 13 15 15 16 16 17 18 19 19 18 17 16 16 16 16 16 17 19 20
9 1 7 11 15 10 5 10 9 6 8 3 19 8 16 18 16 13 17 23 30 34 36 29 27 23 16 18 16 14 13 15 16 16 16 17 17 17 16 15 13 12 12 12 13 13 14 15 16
17 4 7 10 14 4 6 8 13 19 11 12 5 5 10 26 19 16 17 17 18 26 25 19 24 19 17 16 14 14 14 16 18 18 18 16 15 13 11 9 10 9 9 9 11 11 10 11 10
22 1 11 10 4 5 4 7 15 10 19 23 6 15 24 21 19 23 23 14 22 21 25 29 19 19 19 18 17 16 17 18 19 18 17 14 13 13 11 9 7 7 7 8 11 10 5 6 11
4 4 8 5 6 5 16 11 22 11 4 10 10 17 15 15 19 24 19 16 19 25 16 19 20 19 19 18 17 16 18 19 20 18 15 11 9 6 7 8 10 8 9 7 10 6 9 11 14
15 8 11 2 7 14 15 10 7 12 5 7 9 14 9 20 23 34 31 19 28 30 23 27 22 22 18 18 19 19 21 21 18 14 16 11 8 4 1 3 8 7 8 7 6 4 1 4 7
6 18 21 8 12 8 5 9 11 10 5 9 18 21 16 11 33 30 36 30 36 37 25 26 25 20 15 18 20 20 19 17 14 13 13 14 13 10 10 10 8 11 7 4 3 6 4 7 11
7 8 20 19 32 3 17 7 9 12 14 17 18 22 20 19 22 23 33 33 34 31 30 29 25 19 23 23 22 20 18 13 15 15 13 13 10 8 7 6 8 10 7 7 8 8 11 15 14
15 16 15 9 39 24 14 2 9 10 14 13 15 19 22 22 25 27 28 33 33 33 32 30 26 24 21 21 20 23 18 20 17 12 8 8 7 6 10 12 11 10 12 11 10 13 15 17 15
5 2 6 2 15 5 24 2 6 21 19 21 22 22 21 23 26 28 32 33 32 31 27 32 27 27 24 26 24 22 22 20 15 8 3 2 10 12 12 8 8 8 10 11 12 15 17 15 13
4 4 3 4 10 5 9 3 5 26 26 24 25 21 20 28 26 28 32 35 32 28 22 27 31 26 26 26 23 22 22 16 11 5 8 3 9 8 8 8 6 8 8 12 15 16 15 13 18
3 3 2 1 9 5 4 4 4 30 27 26 26 21 24 26 29 28 30 33 28 23 23 26 30 27 24 22 22 24 17 10 10 13 5 7 8 10 10 6 6 8 12 12 13 14 15 18 17
4 1 3 5 4 6 4 7 6 28 28 27 27 25 25 25 26 25 25 28 26 22 23 25 26 25 23 24 27 21 11 11 15 12 5 9 10 8 5 6 9 10 10 12 13 16 17 19 23
5 4 6 10 7 10 11 6 9 17 23 24 28 30 28 27 25 23 25 28 29 28 26 26 25 25 25 30 28 19 11 10 10 10 11 9 8 7 7 10 9 8 10 12 16 17 20 22 24
15 7 9 13 6 4 8 10 10 10 13 28 30 31 29 25 28 25 27 30 33 32 31 27 24 26 26 33 26 19 13 12 13 11 10 10 9 9 10 10 12 13 15 17 18 19 21 20 21
6 4 11 2 0 2 3 3 4 5 19 27 33 34 34 34 33 31 22 27 35 34 30 24 19 19 26 28 20 14 11 16 15 12 12 12 10 6 7 11 13 14 16 18 19 20 21 20 21
5 10 8 3 1 3 3 1 4 6 2 2 21 31 35 36 34 34 27 25 28 30 25 20 15 17 20 23 20 22 21 21 16 12 12 11 5 6 8 12 15 17 19 21 22 23 20 21 21
8 7 5 5 3 2 1 5 5 2 5 7 8 18 34 38 39 32 32 28 24 22 21 16 16 19 22 23 25 25 20 20 18 18 15 6 4 5 12 14 15 18 20 22 25 20 17 16 21
13 3 3 3 2 2 6 4 3 4 17 6 21 16 11 30 34 31 31 31 28 22 17 21 21 21 22 22 24 27 25 26 24 24 16 11 13 12 14 18 20 23 24 22 19 17 16 17 20
4 2 3 5 5 5 9 2 9 15 9 14 18 25 13 26 26 29 32 31 28 24 24 26 23 25 28 29 25 27 25 27 26 21 18 13 13 17 17 20 22 23 20 19 17 17 16 18 22
2 4 5 4 2 4 11 6 5 16 23 29 30 21 17 17 19 21 27 24 20 24 25 25 29 30 32 31 28 27 24 23 22 21 16 13 14 17 19 22 21 18 21 18 18 16 16 16 17
4 5 7 6 3 3 5 6 5 8 8 10 15 17 20 19 21 22 22 20 20 25 25 27 28 30 29 30 30 30 27 24 21 18 16 15 18 17 20 18 17 20 19 19 16 15 16 19 19
4 3 4 3 3 4 3 1 1 5 6 7 12 23 23 24 26 27 23 22 23 27 28 30 26 27 28 28 29 28 24 21 17 17 17 16 15 13 15 17 18 18 18 16 15 17 18 23 26
2 2 2 3 5 4 1 4 1 5 8 10 15 29 32 32 31 29 27 25 26 26 25 24 25 26 27 27 27 25 20 17 17 17 13 7 10 19 18 18 18 18 20 15 18 21 24 26 25
4 4 6 5 4 2 4 5 2 5 8 14 18 29 32 34 34 33 31 31 31 30 27 25 29 26 28 29 29 25 19 17 15 11 8 15 13 16 18 18 19 19 18 16 21 23 25 25 23

GFSSGP_850_spd_036.txt.gz
Wind_Speed
5 4 5 3 3 4 3 8 4 2 3 3 7 8 8 5 3 3 16 27 36 36 35 32 29 28 25 22 20 18 17 17 19 20 21 22 21 21 21 23 24 26 27 29 29 28 27 24 21
4 4 3 3 4 3 5 5 2 4 5 15 13 14 5 4 3 12 30 25 35 36 37 35 32 29 26 23 20 19 17 18 21 20 20 20 21 22 24 25 26 27 29 31 30 27 25 23 21
4 7 2 4 4 5 5 4 7 1 7 4 5 11 5 4 10 27 22 36 39 38 35 34 31 30 25 23 20 19 18 19 21 20 20 20 22 24 25 25 26 28 29 29 28 25 22 20 23
3 4 3 3 8 6 4 7 3 3 4 9 9 7 8 8 11 17 22 37 37 38 36 34 32 28 25 23 20 19 18 19 20 19 19 21 24 25 25 25 25 26 27 27 26 26 24 19 18
4 2 1 3 3 5 6 14 18 1 6 8 3 4 7 5 6 10 25 34 38 38 36 35 32 28 24 21 20 19 18 19 19 19 20 23 24 24 23 23 23 24 23 21 21 21 20 18 19
1 1 0 1 2 4 4 15 8 11 9 11 5 7 6 14 12 21 25 28 36 38 38 36 32 30 26 21 18 16 17 18 19 19 22 24 24 23 21 21 20 20 19 18 17 16 16 16 16
4 2 3 4 5 0 1 2 8 6 10 8 2 4 6 11 18 22 25 7 37 29 30 34 33 29 23 15 12 14 16 19 19 20 22 23 22 21 20 19 17 16 15 14 12 12 11 12 14
3 4 3 3 6 6 1 2 4 2 6 8 6 4 6 19 22 21 23 31 16 14 31 33 34 35 30 23 17 18 19 20 21 21 21 22 20 18 16 15 14 12 12 12 10 9 10 9 11
9 2 2 4 4 4 13 9 11 9 6 11 8 12 23 25 18 21 24 27 21 7 6 12 14 31 21 21 19 20 19 21 22 22 21 19 19 17 15 13 12 11 11 11 7 7 6 5 10
4 3 5 7 2 4 6 4 6 2 1 10 30 30 27 22 14 18 20 23 29 19 18 24 32 25 21 21 20 21 22 22 21 18 19 18 16 14 14 15 13 13 11 8 7 3 1 4 9
2 4 3 4 17 9 3 4 2 8 2 8 27 32 18 6 11 16 26 29 29 23 25 27 23 23 21 21 21 22 23 22 20 17 16 15 13 13 11 11 11 11 10 7 3 3 1 2 4
3 17 14 10 15 11 6 4 2 8 2 19 29 30 31 24 28 29 27 25 30 25 26 26 25 23 22 21 22 24 24 21 18 16 13 12 11 10 11 13 9 10 7 5 5 6 4 4 10
5 10 4 20 14 15 8 12 2 7 20 30 31 31 27 27 34 27 27 30 30 25 28 25 24 25 24 23 24 24 22 20 17 14 12 10 8 9 11 11 8 9 8 8 7 6 8 11 14
13 19 18 19 15 26 16 8 3 11 24 29 27 25 25 24 28 29 29 35 34 27 28 26 24 24 25 27 24 23 21 19 15 13 13 14 11 10 10 9 11 11 11 11 9 10 12 14 14
17 5 10 1 10 6 17 2 5 21 21 22 31 26 22 23 28 29 31 34 35 31 29 27 24 26 27 26 22 21 20 18 17 13 11 8 9 11 15 13 12 12 12 11 11 12 13 13 14
6 5 3 7 9 7 1 3 5 18 21 24 29 29 25 26 28 29 30 30 30 31 31 29 27 28 26 23 23 25 24 20 16 14 7 3 7 16 14 11 11 11 10 8 11 13 15 16 17
6 1 2 6 8 6 3 3 6 23 24 23 25 27 29 27 27 31 32 30 30 30 32 32 30 31 25 27 28 27 22 19 16 12 9 5 11 14 12 11 10 8 8 11 12 15 16 18 18
3 3 2 3 4 2 2 5 3 24 24 25 24 26 34 36 34 35 35 32 27 32 32 34 34 31 28 29 27 25 21 19 14 9 9 9 14 14 13 12 10 8 9 12 14 16 16 17 18
3 3 9 7 5 6 9 8 8 19 20 22 24 33 36 38 38 37 36 35 36 35 32 35 35 33 31 32 31 27 23 17 11 9 12 14 13 12 12 9 7 10 12 14 15 15 16 18 17
8 7 8 8 7 9 7 6 6 14 20 27 31 33 39 38 40 40 40 40 38 35 32 29 32 33 32 29 28 26 23 16 11 11 13 13 12 11 8 8 11 13 14 16 15 16 17 18 17
4 6 4 5 6 3 7 5 2 4 13 24 31 42 41 41 44 42 45 44 41 40 34 28 29 31 30 28 28 27 23 17 18 16 16 15 12 10 9 12 13 14 17 16 16 18 20 20 18
7 13 8 7 2 1 3 2 4 4 7 12 23 29 38 40 43 41 42 44 44 40 34 30 27 28 29 28 32 30 25 25 22 19 16 16 13 13 15 14 14 17 16 16 17 20 22 19 19
10 4 4 6 2 4 3 4 6 2 6 8 19 29 33 43 47 44 43 43 43 39 35 32 28 23 26 29 33 31 26 22 21 21 19 18 19 19 17 14 14 16 17 18 20 22 20 17 17
3 4 5 4 3 1 3 4 5 4 12 5 15 29 38 37 36 42 39 36 36 36 32 32 30 24 26 27 34 32 27 23 24 26 24 22 21 18 15 14 15 17 18 21 22 20 18 17 15
4 5 4 4 4 5 5 4 8 9 12 10 14 16 24 40 39 38 36 33 33 34 28 29 24 26 27 29 31 31 30 28 28 29 28 25 22 19 17 18 18 21 20 20 19 17 17 16 16
4 5 5 4 3 4 4 5 6 8 18 20 14 13 14 32 40 39 37 35 33 32 27 23 26 26 28 30 30 30 32 33 30 30 27 22 19 19 19 17 19 20 17 18 17 18 16 15 16
6 3 4 7 3 3 3 6 6 6 6 5 7 13 21 28 34 36 34 36 34 28 22 24 27 26 28 29 27 29 30 28 26 24 20 18 17 15 17 16 15 19 22 18 18 20 18 20 20
7 3 3 3 3 2 4 4 4 1 4 2 3 10 21 25 29 31 31 31 28 23 22 26 25 28 28 30 28 26 27 26 24 23 19 16 16 16 14 14 18 18 20 22 21 23 20 21 24
1 1 2 4 5 4 1 5 5 7 7 10 13 21 24 27 28 27 26 27 25 22 22 24 27 29 30 33 32 30 27 24 22 19 18 17 16 14 19 15 14 19 23 22 23 25 22 24 25
4 7 6 5 4 1 4 5 4 8 9 14 18 23 28 33 31 30 31 31 30 28 27 28 29 33 36 36 34 32 29 26 25 21 19 21 20 21 12 13 17 20 21 22 25 25 23 25 28

GFSSGP_850_spd_039.txt.gz
Wind_Speed
3 2 2 2 3 4 3 6 3 6 4 2 1 2 5 7 2 3 7 29 32 36 37 34 30 27 26 24 22 19 19 20 23 23 23 24 23 25 27 28 29 29 29 28 27 23 20 18 19
1 1 2 2 4 2 5 4 5 5 7 13 9 8 8 4 3 2 20 22 31 36 36 34 32 31 29 26 22 20 20 22 24 22 22 24 25 27 29 30 31 31 30 28 24 22 21 23 22
1 4 1 4 3 4 5 3 4 1 7 11 5 9 4 4 3 14 17 22 33 35 35 35 32 29 27 24 22 21 21 22 22 21 22 25 27 29 29 30 31 31 29 26 21 19 20 19 19
3 4 4 3 7 5 4 7 3 1 5 10 5 5 6 5 5 13 18 27 32 34 35 34 32 30 26 24 22 20 22 22 21 21 22 26 27 28 29 29 30 30 29 26 21 17 17 16 16
5 2 2 0 4 4 3 8 6 3 5 8 4 3 5 5 1 9 21 28 31 34 33 32 32 32 28 24 23 22 22 20 20 20 23 26 28 28 27 28 27 26 24 22 20 17 17 17 15
4 2 4 2 4 5 0 3 1 5 6 4 7 6 4 8 6 15 24 27 26 29 32 31 31 30 28 25 24 21 22 20 19 21 24 26 27 27 26 25 24 23 21 18 17 16 17 16 13
5 3 4 4 4 5 3 0 3 4 5 5 5 4 6 14 15 17 21 22 12 32 32 32 29 31 28 23 24 22 18 17 19 23 24 24 24 24 23 22 21 19 16 14 13 11 10 11 13
3 3 1 3 2 6 2 3 4 6 4 9 3 6 5 16 20 17 21 22 16 13 25 33 33 29 27 22 19 13 15 17 20 22 23 22 22 20 19 18 17 14 11 10 9 7 6 8 10
4 3 2 3 4 5 3 3 4 6 4 10 2 11 20 20 19 17 25 12 8 14 33 35 31 25 24 23 23 16 18 19 21 22 21 20 19 18 17 15 14 12 9 8 6 4 5 6 9
5 2 4 5 3 5 6 6 1 3 10 10 21 21 24 18 18 19 19 22 21 28 35 37 15 24 29 24 19 17 20 21 22 21 22 19 18 17 15 14 13 11 8 4 3 2 4 4 8
4 4 3 5 10 3 5 1 2 9 3 12 28 28 25 20 16 16 20 23 20 23 29 22 33 30 23 19 19 21 21 21 21 20 21 17 17 16 14 12 11 9 6 3 2 3 2 4 6
2 11 10 8 9 7 4 6 4 2 2 22 23 27 25 23 19 17 27 28 34 32 32 38 31 21 21 20 21 21 22 23 21 19 18 16 15 14 13 11 9 7 7 6 7 5 4 5 8
5 3 5 17 15 13 11 6 5 5 9 21 24 21 24 23 20 30 30 20 23 26 32 29 24 22 21 22 23 24 24 21 18 18 15 13 11 10 10 10 9 11 9 8 7 5 6 7 9
3 9 4 15 16 7 7 7 7 5 23 28 27 25 25 23 27 27 28 27 26 23 23 22 23 23 22 22 24 26 25 21 17 15 12 10 9 8 7 11 13 13 11 9 7 7 7 9 12
7 5 2 4 4 2 15 3 2 23 25 30 27 25 25 27 26 28 30 31 27 27 30 27 26 25 24 25 26 27 24 20 16 11 10 9 10 11 13 14 15 14 12 10 7 7 9 11 13
5 4 3 1 4 3 6 3 6 28 27 24 26 25 28 27 27 27 30 32 28 28 28 25 25 25 25 27 27 25 21 19 14 12 12 12 14 14 16 16 15 13 10 9 8 9 12 14 16
6 2 2 5 4 3 3 3 7 25 23 23 27 27 26 24 26 27 29 32 31 26 26 26 24 25 27 27 26 22 21 19 18 17 13 9 14 18 17 16 14 11 9 9 10 13 15 15 13
1 3 3 3 5 5 6 4 8 27 25 26 29 28 27 26 27 29 29 29 29 29 27 27 26 26 25 26 25 25 25 23 21 19 14 12 14 16 17 15 12 9 9 10 12 15 14 13 13
1 2 3 5 4 3 6 4 13 21 19 16 26 33 31 31 29 29 29 28 28 30 30 30 29 28 29 28 27 28 28 25 22 17 15 11 14 18 16 13 11 10 9 12 13 12 13 15 17
3 3 4 5 3 7 6 7 4 13 21 30 32 32 34 34 31 31 31 31 31 29 29 31 29 30 32 30 30 30 28 25 19 16 13 13 16 17 14 12 11 10 11 13 12 15 18 20 20
2 1 3 5 6 1 5 5 3 4 10 21 24 33 33 42 40 36 36 37 34 33 29 28 30 34 34 32 31 30 27 24 21 17 16 16 17 15 14 12 10 11 12 13 18 20 20 21 21
2 3 3 4 1 3 1 3 5 6 13 12 23 31 37 43 43 41 42 41 42 39 35 33 33 36 36 33 33 33 32 31 28 21 18 18 16 14 13 13 13 12 14 16 20 25 23 23 18
6 1 4 3 4 2 3 3 5 1 7 17 19 30 41 46 46 47 46 42 41 41 40 37 38 39 36 35 35 34 33 30 22 20 19 18 17 18 17 16 14 13 11 16 18 21 22 19 17
3 1 5 4 3 1 3 3 5 5 12 6 20 32 43 46 43 46 46 44 44 43 43 41 39 38 35 34 35 36 33 31 27 22 22 21 20 20 18 16 13 11 13 17 19 21 20 18 16
4 5 3 4 4 4 3 2 8 8 7 8 11 27 38 46 45 44 45 46 45 43 43 42 41 39 35 32 33 33 34 31 29 24 24 25 24 23 23 18 15 16 17 18 16 17 19 18 15
1 6 4 3 3 4 4 4 6 4 8 17 19 18 25 37 43 44 46 46 43 38 38 42 42 38 36 33 34 31 34 30 28 26 26 28 27 26 22 20 17 19 19 14 19 23 20 18 17
2 3 3 6 3 3 3 6 10 7 6 8 8 16 17 27 36 43 41 41 40 36 35 34 33 36 31 31 31 29 31 31 31 28 27 28 27 24 23 18 23 25 14 16 17 16 18 18 17
3 5 1 2 3 3 4 4 5 6 5 6 7 14 17 22 26 32 36 34 33 31 24 22 26 25 28 29 30 31 32 31 31 30 29 29 26 23 23 29 27 23 13 15 14 17 18 19 20
2 2 2 4 4 4 1 5 6 7 6 7 2 10 15 18 19 19 24 29 30 29 30 25 25 25 27 29 31 31 31 32 30 29 30 32 31 30 31 26 19 13 13 13 16 19 20 21 19
3 5 5 4 4 1 3 6 4 6 7 7 11 9 14 19 17 18 22 26 27 30 32 31 27 25 29 32 32 31 30 29 28 28 30 30 29 24 20 17 16 11 12 16 19 19 20 20 19

GFSSGP_850_spd_042.txt.gz
Wind_Speed
3 0 3 3 4 5 3 6 2 4 3 4 4 2 2 6 1 1 3 24 28 35 36 33 29 27 26 25 23 21 21 22 24 24 24 23 23 25 26 27 27 27 26 25 24 23 23 22 22
1 4 4 4 5 3 5 4 3 2 0 4 6 3 8 4 8 2 12 18 29 33 35 32 30 28 27 26 24 23 24 26 25 23 23 25 27 29 29 29 29 28 27 25 24 23 24 22 20
1 5 2 4 3 5 5 3 2 0 1 1 4 9 4 3 6 6 6 18 28 31 33 32 31 29 28 26 25 23 25 26 25 24 26 28 30 30 30 29 27 27 25 24 23 21 20 18 18
4 3 4 4 6 5 4 5 2 3 2 4 6 7 5 3 2 3 15 18 24 30 33 32 31 29 27 24 23 24 25 26 26 27 29 31 32 31 30 29 25 25 24 22 20 19 18 17 17
5 2 3 1 3 5 5 3 5 2 2 3 4 3 4 3 2 7 16 19 22 28 32 31 30 28 25 24 23 24 25 25 26 28 30 32 32 31 30 29 26 25 24 22 20 19 18 17 15
1 2 3 1 4 5 3 2 2 1 4 8 8 6 3 2 7 13 18 20 27 29 31 32 32 31 26 24 24 24 25 26 27 29 30 31 31 30 28 27 24 21 20 19 19 17 16 15 13
5 3 3 1 4 5 1 1 2 1 4 3 8 5 5 4 7 16 16 19 23 20 26 36 34 34 26 22 24 24 23 24 26 26 28 29 29 27 25 22 21 18 15 14 13 11 12 13 11
2 4 2 2 3 5 1 2 5 6 2 3 3 6 6 16 9 8 16 14 9 17 29 29 34 37 29 24 22 21 22 23 24 27 28 27 26 23 21 19 17 14 13 10 9 7 9 10 8
3 4 1 3 3 6 0 1 3 5 4 5 2 10 23 17 11 13 15 16 17 22 28 33 44 34 25 23 21 19 19 20 24 25 25 25 23 21 18 15 13 11 8 7 5 5 6 7 9
4 3 6 6 4 4 4 5 1 2 5 6 11 17 22 17 16 21 24 18 17 21 22 37 45 32 28 27 24 17 20 21 24 24 23 22 20 19 17 14 11 8 6 5 3 2 4 6 9
4 4 4 6 16 3 7 5 5 11 1 10 16 24 22 20 21 21 15 17 30 36 38 39 40 32 18 22 19 18 20 22 23 22 20 20 18 17 15 13 11 7 6 4 2 1 4 6 8
2 12 8 5 6 6 6 11 5 6 4 5 16 19 20 18 18 18 22 33 43 25 25 31 34 30 27 21 20 20 21 22 22 23 20 18 16 15 14 12 10 9 7 4 4 4 4 6 8
3 4 6 9 10 3 14 5 6 3 7 15 18 21 17 16 17 18 22 20 29 27 36 36 31 25 20 18 19 20 22 22 22 21 19 16 14 12 12 11 11 10 8 7 6 5 6 7 10
5 6 3 7 5 1 2 1 3 3 16 16 22 20 18 14 19 26 28 29 38 38 38 34 26 24 22 21 21 22 23 22 20 18 16 13 12 10 11 12 12 11 10 9 8 7 8 8 10
4 2 3 2 2 1 12 2 3 14 19 19 21 19 19 15 21 24 23 26 28 32 33 25 22 22 21 20 21 23 23 21 17 16 13 13 11 10 10 12 12 13 12 11 10 8 8 10 12
4 4 2 1 3 3 3 4 1 17 22 19 19 19 21 19 22 22 22 21 23 29 27 22 20 21 20 20 22 23 23 20 16 14 12 12 11 11 12 15 16 14 12 12 9 8 10 13 15
5 2 2 2 5 4 4 2 3 19 20 19 18 20 21 23 24 24 24 24 24 23 23 21 21 21 20 19 20 22 22 19 17 15 13 14 12 14 18 17 16 15 13 11 8 9 12 15 14
1 2 3 2 3 3 3 4 5 20 20 22 22 22 23 25 26 24 27 27 25 25 24 22 21 20 20 21 23 23 23 20 19 14 16 15 15 16 19 18 15 13 11 9 9 11 13 12 12
2 3 2 3 3 5 7 6 11 18 16 19 26 27 25 27 22 23 26 29 29 26 25 26 24 24 24 26 29 29 28 22 21 20 21 17 15 17 17 15 14 13 11 9 11 11 10 11 12
5 3 2 4 1 6 1 7 8 14 22 25 31 31 31 30 27 25 27 28 31 33 31 28 27 28 27 28 28 28 25 25 22 21 21 19 15 16 15 14 14 13 11 11 8 8 9 11 14
3 0 0 3 5 2 2 2 5 5 10 20 25 35 31 34 31 32 32 32 32 33 32 32 30 30 29 29 29 28 28 27 26 26 24 19 17 17 16 16 16 14 12 9 7 7 9 14 19
2 4 2 2 3 1 3 3 4 5 15 8 23 31 36 35 34 32 34 35 35 34 32 30 30 30 30 29 29 31 30 30 31 28 23 20 20 19 19 18 16 14 13 10 7 9 14 19 22
6 3 2 1 1 2 2 3 5 3 6 16 21 32 39 42 39 38 37 35 34 34 32 31 30 30 30 31 31 32 32 32 29 27 25 22 21 21 21 19 17 16 14 11 10 14 20 25 18
3 3 6 4 3 2 3 4 5 5 8 9 21 32 44 40 41 39 39 38 36 35 34 33 32 31 31 31 33 34 34 34 31 28 26 25 23 23 22 20 19 19 18 16 17 28 23 17 17
4 5 2 3 3 5 0 1 8 6 3 7 11 30 44 44 42 40 39 41 41 39 38 37 37 37 36 35 33 35 37 36 32 29 29 26 26 25 24 24 24 23 19 15 27 26 15 18 18
4 6 5 4 3 3 2 4 6 2 6 12 16 21 28 35 39 42 42 41 41 41 40 39 39 38 38 39 37 37 37 37 33 30 31 27 25 25 26 28 25 22 14 35 26 21 12 13 13
5 3 4 6 3 2 3 6 9 2 4 9 3 8 15 24 30 37 41 40 39 40 39 37 36 36 38 38 38 36 36 35 37 34 31 27 27 28 29 28 33 26 33 22 16 10 11 12 12
1 6 3 2 3 3 4 4 5 8 4 3 6 3 5 13 22 27 32 37 37 37 36 30 32 33 34 35 39 38 37 35 34 28 26 26 29 30 34 33 28 27 19 14 8 6 11 13 15
2 1 5 4 4 4 1 5 7 6 5 4 6 8 8 10 14 16 18 25 28 29 31 33 30 28 30 29 31 35 33 30 26 26 28 27 26 31 33 27 23 13 10 9 11 9 12 15 18
4 7 6 5 3 1 3 6 4 7 5 7 9 2 5 8 11 15 16 18 18 22 26 28 28 24 21 22 25 29 27 27 29 29 26 26 28 31 23 21 15 13 16 22 9 15 16 18 18

GFSSGP_850_spd_045.txt.gz
Wind_Speed
2 2 3 3 2 1 2 3 2 4 2 2 3 2 4 5 1 1 3 22 27 33 33 30 29 29 29 28 26 25 23 22 23 24 24 23 23 22 23 24 25 26 26 26 26 25 23 21 20
1 4 3 2 2 3 3 1 1 3 2 2 4 4 2 4 4 2 9 16 26 33 33 32 29 28 27 25 23 21 22 24 26 25 25 25 25 26 26 26 26 26 25 25 24 23 21 19 19
2 5 2 2 2 6 3 3 2 3 3 3 5 6 3 3 5 4 4 16 25 33 33 32 31 30 27 25 23 22 25 26 27 26 26 27 27 28 28 27 27 26 25 25 23 21 18 18 17
4 2 4 2 6 3 4 2 2 6 2 1 8 8 6 7 2 4 13 16 27 32 32 32 32 30 27 25 24 25 26 26 26 28 29 30 30 29 29 27 25 25 23 22 21 20 18 17 15
5 2 1 2 3 4 5 4 1 1 1 2 0 5 5 8 3 8 18 20 25 29 33 32 31 28 28 28 27 27 27 26 28 31 33 32 30 29 28 25 24 23 21 20 20 19 18 15 13
2 3 2 3 4 4 3 1 1 1 2 5 5 6 4 5 5 8 15 18 23 29 31 32 29 31 29 32 32 28 29 27 32 34 34 31 29 28 26 26 24 23 22 21 19 18 16 13 12
2 2 1 4 4 4 1 2 2 4 2 4 3 4 7 7 6 8 13 14 20 25 27 32 34 32 26 28 32 30 28 30 33 34 34 32 30 27 26 24 23 21 19 17 15 14 13 12 11
2 2 1 3 3 4 2 2 6 4 1 2 4 5 5 13 11 9 8 12 17 13 29 33 32 33 31 22 30 30 28 31 32 33 33 31 28 25 22 20 18 17 14 12 12 11 10 10 9
2 0 3 3 3 1 1 3 4 2 5 2 0 5 7 19 13 9 9 8 10 13 32 41 39 38 30 21 25 30 29 29 30 30 30 29 26 24 22 17 15 12 11 11 9 8 7 7 8
3 2 4 4 3 1 3 5 9 6 4 2 5 6 18 19 17 12 13 19 22 30 27 34 32 32 26 19 25 31 28 26 29 29 28 27 24 22 19 16 12 10 9 6 5 4 5 6 9
4 4 3 7 10 5 2 3 4 7 3 7 13 24 22 20 15 15 17 18 24 32 36 37 43 48 28 30 29 28 24 26 27 28 27 25 22 19 16 13 11 9 6 3 1 1 3 6 10
2 11 8 6 2 4 4 5 1 1 3 1 12 20 19 16 13 13 15 16 25 33 30 35 42 45 35 30 22 21 27 27 27 27 25 22 20 17 14 12 9 8 6 4 3 1 4 6 9
5 5 9 7 3 4 8 3 1 2 3 14 18 14 15 15 13 12 19 25 27 35 42 43 43 38 33 23 20 23 24 26 25 23 21 19 17 15 14 11 11 9 9 6 3 3 6 10 11
2 5 7 2 7 5 2 3 3 2 11 16 16 12 14 14 18 21 24 28 26 33 36 30 29 25 24 21 19 21 23 24 23 22 19 17 15 13 13 11 11 12 10 7 6 7 9 10 11
5 4 0 3 2 2 5 2 2 7 11 14 16 11 13 14 17 22 23 24 24 33 37 31 28 26 23 21 21 22 23 23 21 20 18 15 14 12 12 13 12 12 11 9 9 9 10 10 11
2 1 2 2 3 1 1 2 1 8 14 14 14 14 14 14 20 24 24 29 36 35 34 31 25 22 19 19 20 22 23 22 20 18 17 15 15 14 13 12 13 12 11 10 11 10 9 9 10
4 2 2 2 4 2 3 1 2 10 12 14 14 15 15 15 21 23 27 30 35 35 33 28 22 21 20 20 20 21 22 21 18 16 16 16 15 14 12 13 14 13 13 13 11 10 8 9 11
3 2 1 3 3 1 3 6 6 13 12 14 14 16 17 18 22 24 24 27 29 32 31 25 22 21 21 20 20 22 23 23 20 18 16 15 14 13 13 16 15 15 16 14 12 10 9 8 10
2 3 2 1 2 4 6 8 8 15 12 13 16 17 19 19 20 24 24 24 27 28 29 28 25 22 23 24 24 24 25 24 21 19 16 15 16 15 16 18 18 17 17 15 13 10 7 8 10
2 2 2 2 1 1 3 6 5 14 14 21 20 20 24 23 23 23 26 28 29 27 29 29 27 25 25 25 24 25 24 24 21 21 20 19 19 18 18 18 18 18 18 17 13 9 9 9 10
3 4 2 2 2 1 2 4 2 5 12 15 19 20 19 24 27 26 27 30 31 33 31 28 28 27 26 23 24 26 25 24 24 25 24 23 21 20 18 18 19 19 19 15 13 12 9 9 9
4 5 3 1 0 2 2 2 4 5 11 13 22 22 26 27 30 30 30 31 33 33 34 33 32 29 28 27 27 28 28 30 29 28 27 25 22 22 20 20 21 21 19 17 17 13 10 8 7
5 3 2 2 2 1 0 2 2 1 8 18 25 27 30 33 33 34 34 33 31 31 31 32 32 31 31 31 31 31 32 32 29 27 27 24 25 24 22 23 23 23 22 21 18 14 11 16 18
3 3 3 3 2 2 2 3 3 4 6 6 19 27 32 36 35 35 34 33 32 33 32 32 32 31 31 32 32 32 33 31 29 29 27 27 27 27 26 26 26 25 24 23 19 13 21 24 14
3 2 2 1 2 3 4 2 7 5 7 7 10 19 33 35 42 41 38 36 35 36 35 34 33 32 32 32 32 31 31 30 30 30 29 28 30 31 29 29 29 29 27 22 14 20 26 15 14
6 5 4 3 3 2 1 4 2 3 9 10 11 16 13 26 38 43 43 40 36 34 35 34 34 33 33 27 29 31 30 29 28 31 31 29 30 33 30 32 32 32 27 23 20 20 11 10 9
4 4 2 6 2 1 1 3 9 1 4 7 10 8 4 13 22 29 35 40 38 34 33 34 33 30 32 31 27 30 32 31 31 32 32 32 31 32 31 34 34 32 29 19 21 10 9 6 7
2 6 3 1 3 3 2 3 3 3 2 4 6 6 6 5 9 15 19 23 29 32 31 30 28 27 27 27 29 29 29 30 31 32 34 35 31 29 32 37 36 32 25 19 12 10 9 9 9
3 2 4 3 1 2 2 3 6 5 2 4 4 4 4 3 4 7 9 12 16 21 23 23 22 24 24 21 23 25 29 31 32 34 32 29 31 33 34 38 37 32 23 16 16 16 16 11 14
3 6 6 3 4 1 1 5 2 6 6 6 6 4 6 6 6 6 7 8 9 10 11 13 16 19 21 20 18 18 20 23 24 25 27 28 27 29 32 38 34 27 22 19 21 21 18 16 15

GFSSGP_850_spd_048.txt.gz
Wind_Speed
3 3 2 4 7 6 13 8 4 3 5 3 1 5 2 12 4 1 3 14 21 27 29 33 32 31 31 30 29 27 25 23 21 22 23 23 23 23 24 25 26 26 27 26 24 21 22 21 21
2 1 2 5 8 10 11 2 5 5 4 1 1 2 1 4 6 3 2 15 23 28 29 31 33 33 32 31 29 27 25 24 25 25 25 24 24 25 26 27 27 27 26 24 22 20 20 19 19
2 4 9 4 7 10 7 1 4 5 1 5 2 3 3 3 7 2 3 14 25 28 28 30 35 33 31 30 29 27 26 27 27 26 25 25 26 27 28 27 27 26 25 23 20 19 18 18 17
2 4 5 9 10 5 9 5 6 7 4 3 3 6 7 3 3 2 10 16 24 31 30 33 35 33 32 30 29 29 29 29 27 26 26 27 29 30 28 28 27 26 24 21 19 18 17 16 15
2 6 7 7 7 6 6 6 7 10 3 5 6 5 5 3 7 7 14 15 24 31 31 34 35 33 31 29 28 30 31 29 27 28 29 30 31 30 28 27 26 24 22 20 19 17 15 14 14
5 5 7 4 0 2 2 5 5 5 5 5 6 8 4 4 4 10 16 18 29 31 30 34 31 29 28 27 29 30 29 29 31 31 31 30 30 29 27 25 24 22 21 20 18 16 14 13 13
6 6 5 6 4 2 6 3 3 3 6 3 4 5 5 6 7 10 12 14 18 24 31 36 32 30 30 28 25 29 30 31 32 32 31 31 30 29 27 25 23 22 21 19 17 14 13 12 13
4 4 4 2 3 4 5 2 1 5 3 2 2 3 5 12 10 10 12 10 15 19 31 38 37 36 33 30 24 27 31 32 31 30 31 31 30 27 25 23 22 21 18 16 13 12 11 11 11
4 5 3 1 6 8 4 5 5 2 3 3 1 1 7 16 12 10 8 12 13 22 34 38 42 43 39 37 28 23 29 31 31 28 29 30 27 26 22 21 19 16 14 12 10 10 9 9 10
7 5 1 3 9 10 5 7 4 4 6 4 5 6 14 16 11 9 12 14 17 25 35 36 37 42 40 31 29 27 28 31 32 29 29 21 22 19 20 19 17 14 11 9 9 7 7 8 7
2 8 5 7 4 7 6 5 4 5 4 1 8 17 18 15 12 10 13 17 23 35 40 45 44 43 43 36 31 29 31 32 26 31 24 21 22 21 18 17 16 12 10 10 7 5 4 4 5
8 8 8 9 7 2 1 0 1 3 4 0 14 19 16 12 11 12 19 21 27 34 34 37 35 36 39 40 33 32 34 28 29 29 27 24 22 19 16 13 13 13 12 7 5 4 1 3 7
11 11 7 6 2 0 4 2 3 2 7 12 19 17 13 12 11 11 13 23 32 32 36 37 37 38 39 40 38 34 30 32 28 29 25 21 18 19 16 14 12 10 9 8 6 4 0 5 7
6 11 9 3 5 3 2 2 2 5 9 13 13 15 14 11 13 14 17 19 24 24 33 39 35 38 39 40 32 29 21 25 26 26 24 21 17 16 13 13 10 10 10 8 7 3 3 4 6
10 10 7 8 9 2 3 7 1 9 9 12 13 15 14 12 14 16 18 20 21 25 28 29 28 28 32 32 24 24 27 27 25 21 23 19 17 15 13 12 12 11 12 10 9 6 6 5 6
9 6 9 7 7 4 5 7 6 10 11 13 13 14 15 14 16 16 18 19 24 25 23 25 25 26 23 21 21 21 21 25 22 21 21 18 17 15 14 14 13 14 12 11 11 9 6 6 6
8 11 5 3 5 2 7 4 8 11 11 13 15 14 14 15 16 18 21 21 26 26 26 24 23 22 23 22 22 22 24 24 21 22 20 18 17 17 15 14 13 13 14 14 13 11 9 8 6
9 9 8 5 5 6 6 6 7 12 13 12 15 15 15 16 19 20 21 24 25 26 26 26 25 21 21 21 21 19 21 20 19 20 20 19 18 17 16 15 13 14 16 17 15 14 11 5 4
7 7 8 6 4 5 6 7 6 14 15 15 15 15 16 17 19 21 23 25 26 26 27 28 25 21 21 19 19 19 20 20 21 21 22 20 18 18 17 15 16 18 17 17 17 15 10 7 6
7 8 7 2 3 6 4 8 2 12 16 17 17 17 17 16 19 23 25 26 27 28 29 28 27 23 22 20 19 18 19 20 20 20 23 21 20 18 18 19 18 17 17 20 19 16 11 8 9
9 10 4 2 2 4 7 11 8 8 13 15 16 16 17 19 21 23 25 28 28 30 30 29 28 24 23 21 19 18 17 17 21 22 25 25 21 20 22 22 20 20 22 22 21 18 14 9 9
10 10 5 4 7 7 3 6 5 7 12 14 18 20 22 23 23 24 26 28 29 29 28 28 27 26 25 23 21 23 22 21 20 20 22 25 26 25 24 24 23 23 24 23 23 20 16 13 7
4 4 7 6 9 7 8 7 4 3 8 15 22 25 25 24 26 28 28 28 28 28 29 29 28 27 26 25 25 22 22 19 18 21 21 26 27 27 27 27 26 25 26 27 26 24 19 16 11
4 6 6 5 6 9 11 8 5 7 7 6 8 23 27 26 27 27 27 26 26 27 28 28 29 28 27 26 27 26 25 24 22 22 22 26 30 29 28 28 27 27 28 29 28 25 23 19 20
10 9 7 7 7 8 4 7 10 2 3 7 9 9 15 27 29 29 28 30 29 29 29 29 30 30 29 30 30 30 31 28 29 28 27 29 29 29 28 30 31 31 31 31 30 27 24 23 20
14 12 6 6 5 5 4 6 3 3 5 7 8 9 11 16 28 32 29 29 28 28 27 29 31 32 30 31 30 31 31 32 31 27 30 32 29 28 27 30 33 32 33 33 30 28 25 22 15
8 9 3 3 0 3 5 5 10 2 3 4 3 4 4 8 16 22 27 29 28 25 27 28 27 26 27 32 32 29 28 26 27 27 32 29 27 28 29 28 32 33 34 34 32 28 25 15 14
6 9 6 5 5 7 5 5 4 3 3 2 3 3 2 2 6 11 14 19 23 23 22 22 22 23 23 25 25 25 25 23 23 25 26 28 29 30 30 26 28 35 35 34 30 23 18 18 17
6 7 3 2 3 4 4 4 2 3 2 2 1 2 3 1 3 6 8 9 12 15 17 18 17 17 18 18 17 17 17 18 19 23 24 27 28 30 25 29 34 35 34 34 26 24 21 15 19
7 10 12 7 6 4 7 10 6 8 5 4 4 5 4 2 1 4 7 9 10 11 12 12 13 14 15 14 14 13 13 16 17 19 21 22 25 25 28 31 32 37 36 32 26 22 21 23 28

GFSSGP_850_spd_051.txt.gz
Wind_Speed
3 5 5 10 8 8 17 20 15 6 5 9 8 3 4 12 7 2 9 3 17 23 25 27 26 27 30 32 30 27 25 23 20 17 17 20 21 22 24 26 26 25 24 23 22 22 22 21 21
3 7 8 15 8 13 13 19 4 3 12 10 2 9 13 14 13 9 4 12 17 22 26 28 28 28 30 32 30 27 25 23 20 21 23 23 23 24 25 26 27 25 22 23 22 21 21 20 21
3 8 14 11 12 14 10 14 8 4 2 8 6 7 13 14 7 2 3 14 15 20 27 28 29 30 30 30 29 27 24 22 23 25 25 24 25 26 26 26 27 26 22 22 20 20 19 19 19
6 11 11 9 17 11 14 1 2 7 9 6 10 3 5 5 3 1 4 10 23 22 30 27 32 30 32 31 28 25 23 23 26 26 26 27 28 27 27 26 25 24 21 20 19 18 17 17 18
7 11 10 15 12 6 4 8 7 10 9 5 8 6 6 3 4 5 11 14 21 22 29 30 31 31 31 30 27 25 24 27 28 27 28 30 29 28 28 26 24 22 20 20 18 16 16 16 16
15 5 12 10 3 3 3 6 10 9 5 4 8 11 6 2 2 4 8 14 18 27 27 32 33 31 31 30 27 26 28 28 28 28 30 31 29 28 27 26 24 22 20 18 16 16 16 16 16
13 9 13 7 4 5 3 7 7 8 4 5 9 6 4 2 3 6 9 10 19 24 25 35 31 26 24 26 28 30 30 29 29 31 32 31 29 27 26 25 23 22 19 17 15 15 14 14 14
11 7 11 5 5 9 6 4 5 5 3 4 3 3 6 9 6 7 9 10 19 21 32 36 31 26 25 24 28 25 28 31 30 32 31 30 28 24 23 23 23 20 17 15 14 13 12 12 14
9 12 7 2 5 8 10 8 5 4 7 1 10 11 9 12 8 7 6 7 13 22 35 32 39 38 25 29 28 25 22 27 30 30 29 27 27 24 21 22 20 16 15 13 12 11 10 11 11
12 11 4 7 10 13 9 6 2 4 1 7 8 7 9 15 8 5 6 12 12 32 37 37 37 36 37 36 33 33 26 28 31 31 28 23 23 17 19 21 17 14 12 11 10 8 11 13 8
8 10 3 3 7 12 8 7 2 7 4 15 5 11 10 12 10 7 8 14 19 29 29 30 34 42 44 36 38 35 28 31 33 31 26 22 19 17 20 19 16 15 11 10 9 9 8 6 5
10 8 7 7 8 7 5 9 4 1 8 4 13 16 12 10 7 7 10 14 21 28 36 40 42 44 38 39 36 33 29 34 36 27 19 26 21 18 15 12 13 12 10 9 6 7 4 2 1
11 10 7 9 2 4 1 5 2 4 9 12 15 13 11 9 9 10 11 15 19 26 27 31 34 37 37 31 31 29 30 33 24 26 23 24 18 16 14 12 12 12 12 11 9 7 4 2 1
8 11 12 4 5 5 9 6 9 9 16 14 12 9 10 10 11 10 14 22 23 26 31 36 34 35 33 37 33 31 31 28 21 23 19 18 14 16 13 14 12 11 11 10 10 8 5 4 3
12 15 11 12 12 11 7 13 12 13 14 13 14 11 10 11 12 14 16 22 25 24 24 22 25 31 30 32 32 28 31 23 20 20 20 19 18 15 12 12 12 12 12 12 10 9 8 6 5
15 17 12 13 10 9 9 9 8 14 14 14 13 11 12 13 14 15 17 19 22 27 24 23 25 30 30 30 35 25 18 22 22 17 17 18 16 12 14 13 12 12 13 11 11 9 6 6 5
14 16 5 9 11 7 8 8 13 13 12 14 14 13 15 15 16 16 20 22 26 27 28 27 24 29 31 22 20 17 17 19 19 18 18 17 17 17 15 13 13 17 12 13 11 9 9 9 7
9 13 12 11 8 9 9 4 0 12 13 14 13 15 14 16 18 21 22 24 24 24 24 28 29 31 26 22 20 18 19 20 19 19 19 17 18 19 18 14 16 15 13 12 11 11 10 9 8
12 16 11 5 5 7 10 8 17 13 13 14 16 16 17 17 18 21 24 24 25 24 25 25 25 22 21 18 18 18 19 19 18 19 17 19 17 19 19 15 17 15 13 13 14 13 13 9 10
11 15 14 5 5 6 1 18 7 17 14 17 19 18 18 20 21 22 24 25 26 26 26 26 25 24 24 21 18 17 17 18 18 18 18 20 20 18 19 17 16 16 14 16 17 16 11 11 11
12 15 3 10 13 10 11 15 14 8 13 17 18 19 20 22 24 25 26 26 28 27 27 26 26 24 23 19 18 17 17 18 20 21 20 20 19 19 20 20 18 19 18 20 19 19 17 14 12
15 14 6 10 11 7 8 8 12 11 14 14 19 20 22 23 24 26 27 29 29 29 28 27 27 26 24 23 21 21 20 21 20 21 21 22 25 26 24 23 25 24 23 25 23 19 18 18 15
8 3 8 12 13 14 14 12 12 11 13 15 19 23 23 25 26 28 30 31 31 30 32 31 29 29 27 26 26 23 24 21 19 20 21 21 21 25 28 24 27 27 26 26 26 20 22 18 15
7 5 9 12 12 11 15 11 4 13 14 15 20 25 25 26 27 28 28 27 29 30 31 31 30 31 30 30 28 28 25 23 20 22 23 22 22 21 25 29 31 28 27 27 28 26 25 19 20
13 12 9 9 9 11 10 9 6 8 4 1 2 11 25 28 28 29 30 31 30 31 32 33 31 33 32 30 29 28 27 25 24 23 24 22 25 26 26 29 31 27 28 29 27 26 22 27 24
17 16 7 8 8 6 5 6 9 8 5 3 6 8 10 15 28 31 31 31 31 32 32 32 31 32 29 26 26 27 29 29 28 29 29 26 27 29 28 25 26 26 29 30 31 29 30 28 25
14 17 16 13 8 7 9 6 17 13 5 4 7 5 10 13 19 27 33 32 31 31 31 32 30 29 28 34 33 30 26 26 30 30 29 27 31 32 28 28 28 29 31 32 36 35 33 28 26
12 12 12 9 6 10 12 10 3 7 5 3 4 1 1 3 7 14 22 30 28 28 28 28 27 27 24 26 31 31 25 30 28 26 25 30 31 30 31 30 28 31 30 32 36 35 30 30 27
12 10 11 7 10 5 8 8 4 5 5 4 2 2 1 1 4 8 12 17 22 25 26 26 25 24 23 23 22 23 25 20 19 17 21 25 23 24 28 29 29 32 32 34 35 30 31 28 23
16 19 18 10 12 8 7 12 2 7 7 6 9 5 3 2 5 6 9 10 15 20 21 22 21 21 20 18 18 17 17 17 17 19 22 25 19 19 22 24 25 27 32 37 27 29 27 21 17

GFSSGP_850_spd_054.txt.gz
Wind_Speed
4 5 6 12 7 8 17 19 20 21 2 15 16 9 4 3 6 4 7 12 21 7 13 18 21 22 28 28 27 25 23 21 19 16 16 20 21 24 24 24 24 24 24 25 25 25 25 25 25
4 10 10 15 10 13 12 10 21 7 10 12 3 5 13 5 8 8 3 8 21 14 13 18 21 23 26 27 25 23 22 21 18 16 20 22 25 26 26 25 23 24 24 24 24 24 23 24 24
5 6 11 10 13 14 16 9 2 16 8 6 13 29 8 7 15 7 11 12 19 18 24 18 21 25 26 27 24 23 21 20 18 19 23 25 26 29 27 25 24 23 24 23 23 22 22 23 24
7 13 13 10 15 16 13 3 4 10 16 6 10 6 13 6 7 8 15 16 18 28 21 17 19 21 26 26 25 23 22 20 19 23 25 27 28 29 28 27 25 23 23 22 21 21 21 21 22
10 13 10 15 16 21 7 9 11 8 16 7 3 10 13 6 3 12 11 18 19 24 20 21 22 23 24 27 26 24 22 21 24 25 27 28 30 29 29 26 24 23 22 20 20 20 20 20 22
16 20 12 11 10 7 2 19 28 16 17 13 5 5 8 12 5 11 14 12 20 23 23 24 28 26 24 26 25 23 22 24 26 27 29 30 30 30 28 26 23 22 21 19 19 19 19 19 20
14 12 15 15 10 10 8 7 24 6 19 20 28 3 14 6 5 8 7 9 18 29 26 31 31 24 22 22 22 22 25 27 27 30 29 30 30 29 27 25 23 22 19 19 18 17 16 17 18
14 10 20 14 4 3 9 27 27 18 4 12 19 6 7 10 2 2 5 9 17 26 28 31 27 28 22 17 16 21 23 27 30 30 29 28 28 28 26 24 23 21 19 18 17 15 15 15 16
13 11 12 16 7 3 6 8 11 20 5 9 20 10 10 6 3 5 4 7 17 31 25 31 35 32 28 27 22 18 19 25 29 30 27 26 26 25 25 23 21 19 18 16 14 13 13 14 15
10 11 16 7 7 12 13 4 1 4 17 10 12 6 9 9 6 8 9 12 20 30 38 38 35 34 28 34 35 34 20 24 27 28 27 24 26 24 24 23 19 16 16 14 13 15 15 14 12
15 13 10 13 8 9 15 11 16 24 3 4 4 5 5 6 8 10 11 14 27 29 33 40 36 32 29 30 37 35 35 26 27 29 28 27 22 17 23 21 17 14 13 12 13 13 10 7 7
8 17 14 14 11 9 9 16 11 24 11 10 13 12 9 7 8 6 9 12 20 29 34 32 37 32 36 39 36 37 34 29 27 29 28 23 22 14 20 17 15 13 11 10 10 7 7 5 3
9 14 17 13 11 6 10 8 23 19 18 18 17 13 9 12 6 8 7 9 16 24 26 27 32 36 38 41 39 37 34 35 31 26 21 19 20 16 16 12 11 10 7 6 7 9 6 4 3
16 15 15 18 12 7 7 11 24 28 6 15 15 11 12 10 6 10 7 9 15 22 29 29 34 33 33 35 38 35 28 32 31 23 24 21 18 14 12 11 9 9 14 9 11 8 5 1 4
18 15 17 14 7 11 6 4 7 10 17 11 14 11 16 12 7 11 9 13 17 18 27 26 29 31 30 36 32 28 29 26 27 32 19 18 14 15 17 18 15 14 11 10 12 12 7 11 4
16 17 16 9 10 13 12 5 13 14 19 15 15 11 13 10 13 10 11 16 21 23 28 25 31 36 34 36 34 33 31 31 32 23 18 18 17 17 18 14 15 14 15 18 14 17 12 7 6
15 14 16 7 10 10 11 2 13 12 29 20 17 19 15 15 16 15 13 20 22 24 23 23 29 26 28 35 29 39 35 36 22 20 20 23 22 17 17 16 17 19 19 17 17 13 11 11 10
16 14 16 15 11 9 6 14 19 15 24 18 21 21 19 19 20 19 19 21 24 23 24 24 30 28 30 36 34 33 35 29 22 21 20 20 21 24 21 21 18 19 19 15 16 16 13 13 13
14 14 15 4 8 5 9 7 15 17 17 19 18 21 20 21 24 24 24 23 28 27 26 25 29 35 31 29 34 24 23 23 24 25 24 26 24 23 22 20 19 21 18 16 18 18 18 18 17
11 14 15 8 7 3 8 7 17 17 11 20 19 23 23 21 28 27 29 29 27 24 24 29 30 33 30 29 27 27 28 29 27 25 24 27 25 23 23 20 20 21 20 21 23 19 20 19 20
13 15 13 12 4 16 13 12 12 17 28 22 19 22 24 26 29 31 32 30 33 31 27 25 26 26 26 25 20 19 22 19 22 25 28 19 23 22 22 20 23 25 21 25 23 21 19 20 21
13 14 13 7 9 7 9 8 7 8 14 13 20 21 26 29 31 32 34 36 34 38 34 30 29 28 27 27 29 28 26 28 28 26 27 26 30 28 26 24 27 27 26 26 24 23 21 22 22
12 3 10 12 12 12 8 5 13 11 12 16 16 23 26 30 34 37 38 38 39 38 38 33 34 34 32 28 27 29 28 25 24 25 27 26 30 30 28 29 27 29 32 29 28 28 26 24 25
12 6 9 9 10 10 14 7 8 8 7 6 18 23 24 27 33 37 37 37 38 39 39 38 37 37 34 31 27 28 29 28 26 26 28 30 31 29 25 29 30 34 33 31 28 28 28 26 27
9 9 8 6 8 9 9 9 10 9 4 12 20 24 26 27 28 33 38 40 40 40 40 40 40 39 36 35 31 29 28 25 28 28 29 32 34 31 30 27 29 33 34 31 26 28 31 32 32
14 15 8 6 4 7 9 7 9 13 15 9 1 3 15 31 34 33 34 41 42 42 42 42 42 40 36 35 33 30 33 31 29 31 29 28 30 34 31 31 27 28 27 26 26 26 29 34 32
11 16 17 14 3 3 5 7 16 16 13 7 10 12 10 10 24 36 36 37 42 44 42 43 40 38 37 40 39 33 25 34 32 34 27 30 26 29 31 33 30 23 24 27 27 30 33 35 33
16 12 12 10 6 5 9 15 9 11 11 8 6 7 5 3 6 16 26 36 34 41 43 42 39 36 37 40 43 45 30 34 30 25 27 30 27 32 31 32 30 27 25 27 28 31 33 35 34
13 13 11 12 10 7 4 5 9 9 9 9 5 8 7 3 6 8 12 15 36 34 38 38 38 34 33 38 36 41 39 27 30 28 31 28 31 31 22 21 24 25 24 26 31 32 33 34 29
18 16 16 9 9 5 3 3 9 4 4 9 8 6 4 7 9 6 8 10 12 27 31 37 36 33 31 30 31 27 25 28 29 29 26 25 23 22 21 16 17 20 24 27 29 30 29 25 24

GFSSGP_850_spd_057.txt.gz
Wind_Speed
2 0 5 5 2 2 7 11 5 8 4 5 6 2 9 13 5 7 2 4 16 12 23 10 24 27 27 28 28 26 24 22 20 18 21 23 24 25 28 29 28 28 29 28 28 29 31 31 31
3 4 10 7 2 3 9 14 12 5 7 8 4 8 11 6 12 5 4 3 13 22 22 14 20 22 27 26 26 25 24 23 20 20 23 24 26 27 29 28 28 29 28 29 28 29 29 30 32
3 4 4 3 4 9 7 13 5 2 4 5 8 20 5 1 8 3 6 4 14 17 18 28 30 27 28 28 26 25 23 22 21 23 25 27 26 27 27 27 28 28 28 28 28 28 29 29 28
3 5 7 1 11 17 11 9 8 6 11 15 17 11 7 8 4 3 3 11 11 15 18 20 23 23 23 25 26 23 23 22 22 26 28 29 27 27 27 27 27 27 26 26 26 26 27 28 26
11 7 2 5 11 16 4 5 15 9 8 25 9 7 5 6 2 5 8 9 16 12 16 20 21 22 15 19 26 24 22 21 23 26 29 30 30 27 27 27 26 25 24 25 24 24 26 28 28
7 6 4 8 15 6 2 16 20 26 21 14 14 9 6 7 8 4 9 15 15 17 17 20 19 20 22 26 27 22 18 21 26 28 30 31 30 28 28 27 25 24 24 23 23 24 25 26 26
9 1 6 8 15 5 3 9 11 14 16 11 12 5 4 12 8 2 8 12 21 19 16 21 24 26 26 24 21 20 19 23 26 29 30 31 29 28 26 26 24 23 23 22 21 21 22 23 23
19 3 9 8 11 4 4 4 13 17 8 4 3 7 7 11 7 5 9 12 20 21 20 23 25 26 26 26 24 20 19 23 24 26 29 31 30 27 25 25 23 22 22 20 20 20 20 22 23
22 3 7 14 13 4 3 5 10 15 14 12 5 3 5 11 11 10 10 9 18 19 25 26 27 30 31 20 23 18 17 20 25 25 27 27 27 25 24 22 22 21 20 19 19 20 18 18 16
4 3 10 14 2 5 8 9 5 3 4 4 8 5 9 9 9 14 14 13 19 32 31 29 31 30 27 24 21 33 27 22 24 25 26 27 27 24 23 21 20 20 18 17 18 18 15 14 11
16 7 10 14 7 6 5 4 23 24 5 7 17 16 12 11 9 15 20 25 27 29 28 31 33 30 30 27 32 40 38 27 27 28 29 29 25 22 22 20 19 18 16 16 16 13 11 9 7
7 15 12 20 2 3 5 12 11 32 17 13 13 17 17 10 10 13 16 20 27 30 35 34 32 33 30 32 41 42 42 30 32 32 29 27 26 23 20 19 16 15 15 14 12 9 8 5 4
6 5 17 19 16 2 21 14 10 18 7 2 4 11 16 9 12 14 16 20 27 27 26 32 32 34 36 38 42 42 39 35 31 31 26 25 21 20 20 16 14 13 12 11 8 6 4 6 6
16 15 15 15 18 7 9 7 6 12 12 8 7 11 11 8 13 15 14 16 23 25 32 32 31 32 36 42 44 44 42 36 34 31 27 25 28 18 17 14 12 11 12 9 7 6 6 5 5
21 9 8 13 12 6 15 4 5 8 7 11 10 17 11 8 8 10 12 16 23 26 29 30 29 33 37 40 42 43 43 37 37 28 29 29 22 18 16 13 13 11 9 8 10 12 8 6 5
9 7 5 13 10 7 9 5 5 13 6 12 17 21 15 10 7 11 14 18 25 24 23 33 33 32 35 31 38 37 37 38 38 30 31 22 22 21 19 16 16 14 15 15 16 15 13 11 10
5 8 12 17 12 5 5 2 7 13 17 10 20 20 17 15 12 11 16 19 24 28 30 30 33 38 37 40 33 36 38 29 28 33 37 21 23 21 19 20 20 18 19 20 20 18 17 15 11
10 6 9 7 8 6 5 5 6 11 20 24 18 23 22 22 15 14 19 20 24 27 24 27 31 32 38 34 34 42 37 31 35 38 31 23 23 20 20 20 21 23 23 21 21 20 18 16 16
16 12 7 5 2 5 10 7 12 19 18 21 24 31 29 26 20 16 20 23 24 21 22 29 33 30 35 32 38 44 35 40 37 32 24 24 23 23 27 22 25 26 24 23 22 19 18 19 19
13 6 8 6 8 2 3 14 16 8 9 22 24 29 32 30 26 22 21 27 28 27 26 32 33 32 33 34 35 36 42 39 34 26 26 26 25 24 24 27 27 27 25 24 24 22 21 20 24
6 6 7 7 1 3 4 3 6 6 3 6 16 28 35 38 35 30 28 29 30 29 31 35 34 34 36 33 31 30 26 31 30 30 30 29 32 28 26 27 27 29 27 25 27 25 22 22 26
6 10 11 7 1 4 5 4 5 11 6 17 32 33 34 41 38 34 33 33 34 31 30 32 33 35 33 31 32 29 31 33 32 31 33 32 28 29 30 28 27 30 29 27 29 28 27 25 27
9 7 4 4 5 2 5 2 7 14 12 21 23 33 38 43 43 40 37 36 36 35 35 32 33 35 34 32 32 32 31 29 25 26 26 30 30 32 32 30 28 30 32 30 29 31 32 30 26
7 3 4 4 1 4 6 5 5 4 10 17 24 32 41 41 47 43 37 34 36 37 37 37 35 35 34 34 34 35 35 33 30 29 30 30 30 32 33 31 30 32 33 34 34 32 32 31 29
7 4 1 4 2 6 1 5 8 9 8 7 17 28 40 45 47 46 44 41 39 42 42 41 39 38 38 37 36 35 37 36 36 33 31 31 33 33 37 36 33 32 35 34 34 34 33 32 30
10 7 5 6 4 6 3 4 4 5 12 20 25 36 35 42 50 50 49 46 43 43 47 47 47 43 44 43 40 36 33 37 35 39 32 30 32 35 35 36 36 29 27 29 33 32 31 30 31
4 6 7 5 2 4 4 5 5 8 8 7 12 15 30 38 45 50 50 47 46 46 47 50 50 50 49 49 45 43 42 39 43 39 30 32 27 27 35 37 38 29 25 24 25 28 29 29 32
9 4 5 3 5 5 6 7 5 12 10 8 4 6 12 24 40 41 49 49 48 47 45 47 49 49 48 50 48 47 47 45 42 36 36 31 28 32 33 32 28 25 24 25 24 27 27 28 34
4 9 4 3 4 6 3 5 3 3 9 7 5 14 12 9 9 9 26 42 49 50 50 49 50 51 49 47 46 48 47 45 39 33 32 25 29 28 30 26 20 20 25 26 25 27 27 31 32
16 12 9 5 5 4 5 5 6 4 9 13 11 14 16 17 16 12 10 7 17 53 54 52 51 52 49 46 49 47 44 41 41 30 30 32 32 29 27 19 17 16 19 21 21 23 26 26 25

GFSSGP_850_spd_060.txt.gz
Wind_Speed
1 1 3 4 4 4 4 7 5 11 6 4 7 1 8 4 6 2 5 13 29 25 23 23 13 10 23 28 28 26 25 25 23 26 28 29 30 30 31 30 30 30 30 30 30 29 28 26 24
1 5 5 2 4 1 5 5 7 11 17 10 15 11 6 4 8 2 3 15 22 18 19 25 12 18 18 24 25 26 26 24 24 28 28 30 32 33 31 31 31 31 31 31 30 28 25 23 22
0 4 1 4 3 5 4 4 7 12 20 3 5 9 4 3 3 2 2 10 27 21 19 30 21 24 39 29 28 26 25 23 25 28 30 31 34 33 32 31 31 30 31 30 30 29 26 21 21
1 1 1 2 7 7 5 11 8 6 13 17 6 5 2 2 1 3 2 8 16 16 15 20 19 33 34 32 30 25 27 25 27 28 30 33 33 33 33 32 31 29 30 30 30 27 23 19 20
4 1 3 2 7 7 5 3 6 10 6 6 5 3 3 3 2 3 8 12 12 12 17 19 21 33 35 32 24 26 27 26 28 29 31 33 32 32 32 31 30 29 29 29 30 27 19 18 17
2 1 3 4 6 6 3 5 3 5 5 5 3 9 4 3 2 3 6 10 9 12 19 20 21 34 33 32 26 19 28 30 29 29 30 31 32 32 31 30 28 28 27 27 28 26 22 19 16
5 4 5 6 12 7 3 1 4 4 5 5 1 4 1 7 1 6 12 8 11 16 18 22 26 22 22 27 34 18 23 27 30 29 29 29 31 30 29 28 27 26 25 26 27 26 24 20 15
2 4 3 6 2 8 3 4 7 8 2 3 3 1 2 4 1 9 10 7 14 14 13 18 22 25 25 25 30 31 27 22 28 29 29 29 29 30 28 26 26 25 24 24 23 23 21 18 15
5 2 5 7 2 7 4 4 2 8 7 7 4 4 7 4 4 7 11 16 19 22 18 20 25 28 31 32 34 26 23 29 29 32 31 30 29 29 28 26 25 22 22 22 22 21 20 17 12
4 3 7 10 4 4 6 9 7 7 9 5 6 5 1 3 7 9 7 17 16 19 24 26 33 29 33 36 24 35 31 25 30 33 31 30 29 28 27 26 23 21 21 21 21 20 17 15 11
4 5 12 26 18 9 9 5 9 18 2 4 4 6 6 3 7 11 13 16 19 23 27 28 29 31 34 26 34 34 35 33 32 33 32 30 29 28 27 25 22 19 18 19 17 14 13 13 9
3 15 21 25 6 8 8 14 7 5 6 3 5 9 8 5 5 9 11 15 19 28 37 38 37 34 29 28 32 34 35 35 34 35 35 33 30 29 24 21 19 17 16 15 12 10 10 7 6
6 8 17 18 5 7 16 5 6 5 12 11 13 13 11 9 9 12 13 16 18 26 30 29 27 32 27 29 38 36 36 36 36 36 37 35 30 26 19 18 18 17 16 13 10 9 6 4 5
8 15 19 18 16 14 8 5 1 7 13 18 17 14 11 11 8 12 14 16 17 22 31 33 36 29 32 30 33 39 34 33 36 36 34 32 30 30 24 20 18 17 14 12 10 7 4 5 6
13 7 11 12 8 6 15 1 2 15 18 22 19 19 14 10 8 11 14 15 17 20 22 26 25 28 28 36 42 44 40 34 37 32 28 31 32 31 25 19 17 15 14 12 10 10 7 8 7
5 5 3 7 4 6 7 6 5 19 24 21 20 21 17 11 7 8 14 14 17 19 20 25 29 26 33 34 43 44 37 40 37 33 33 26 28 24 22 19 16 15 15 14 12 13 12 10 9
2 5 5 10 9 7 7 4 7 24 20 18 20 25 21 13 13 10 11 16 18 18 22 26 27 27 29 34 42 41 38 39 39 35 32 32 29 25 23 21 18 17 17 17 16 18 16 14 13
5 4 4 9 8 5 3 3 5 24 20 22 26 28 23 19 17 11 13 18 21 19 19 23 25 25 29 38 40 36 33 34 33 34 35 30 27 26 23 21 17 20 20 20 21 21 20 19 17
4 6 10 13 5 4 6 3 10 14 17 17 26 30 29 23 18 15 16 19 25 24 25 27 27 31 38 40 44 43 39 39 39 35 44 25 27 26 24 22 20 24 27 24 24 24 24 23 21
8 11 15 8 7 4 6 11 6 8 10 20 25 29 32 27 24 21 23 24 28 29 28 29 30 33 35 38 40 43 39 38 37 43 37 28 27 26 25 25 24 26 27 25 26 27 27 25 23
13 11 15 9 4 4 5 6 5 5 13 18 24 32 34 36 33 28 29 30 31 31 31 33 36 36 37 41 34 41 41 40 40 41 43 43 31 27 27 26 26 29 29 29 28 29 29 29 25
11 10 6 7 4 4 5 4 5 6 8 6 17 29 32 39 35 33 33 35 35 31 31 36 39 37 37 41 39 44 46 46 47 47 44 44 32 30 31 29 28 28 31 33 32 31 30 30 29
12 14 6 5 3 2 3 2 6 7 10 16 15 28 35 44 42 41 39 38 36 33 34 37 39 39 39 41 41 45 42 44 45 43 40 37 34 35 31 32 30 32 33 33 33 34 33 31 32
14 4 1 4 2 3 4 5 4 7 15 19 15 26 34 44 46 44 40 40 40 38 37 38 39 40 40 41 41 43 43 43 44 41 39 35 36 37 35 33 34 31 33 32 31 32 33 32 34
6 5 2 3 2 7 4 3 9 9 12 18 22 29 36 43 48 48 46 45 45 45 43 43 44 43 43 44 42 42 42 40 39 37 36 34 33 35 37 34 38 37 34 33 30 31 35 32 33
8 9 6 6 4 5 3 5 6 7 11 26 32 37 39 40 48 51 52 49 47 48 47 47 46 46 47 47 45 43 42 41 41 39 38 36 36 35 34 32 32 31 35 35 25 31 35 30 34
7 5 9 5 2 2 3 6 9 10 9 4 12 30 35 41 44 52 52 52 50 49 50 51 50 48 47 48 46 46 44 44 44 42 39 40 37 36 34 32 34 31 31 33 31 32 31 29 32
13 6 3 1 5 8 4 4 7 13 11 7 6 18 30 40 44 52 54 52 52 51 49 49 50 51 51 49 49 48 46 43 42 42 41 39 39 39 32 29 29 28 27 34 33 29 22 26 29
2 3 2 5 5 6 1 6 7 8 9 8 8 13 23 38 44 50 51 51 53 51 51 51 50 50 52 52 51 50 46 43 44 41 35 40 37 34 39 35 35 37 33 28 25 23 26 25 27
20 11 10 5 5 3 5 6 4 7 8 6 6 15 21 20 24 37 42 45 48 50 51 53 55 54 53 49 43 38 36 43 41 37 45 34 30 27 28 28 28 22 20 22 23 24 24 26 24

GFSSGP_850_spd_063.txt.gz
Wind_Speed
3 1 4 1 4 5 3 6 4 8 4 4 3 4 6 3 1 2 6 10 16 27 30 34 38 40 31 6 10 21 23 20 20 23 25 26 28 30 31 30 29 28 28 27 26 25 25 26 26
2 1 2 3 4 3 5 5 4 8 8 12 9 1 4 2 1 1 5 10 20 26 28 27 33 25 31 35 14 21 23 22 21 24 25 28 30 32 32 31 31 30 28 27 25 24 24 24 24
2 1 1 4 3 3 4 5 4 7 10 5 3 2 3 7 5 6 4 7 24 23 25 28 26 23 34 20 26 24 22 19 24 26 28 30 33 33 33 32 32 32 30 27 25 25 24 23 22
2 1 4 4 5 8 6 13 8 4 6 2 4 2 2 4 4 6 3 8 26 25 24 27 25 22 28 27 37 36 27 27 24 27 31 33 33 32 33 33 33 32 30 27 24 25 24 24 23
0 1 3 2 6 5 5 8 4 0 2 3 1 1 1 6 7 8 11 14 15 26 28 27 27 27 22 34 33 33 30 22 24 29 33 34 34 34 33 33 33 32 31 25 21 21 22 22 20
2 2 4 2 5 6 6 6 1 2 5 3 1 3 4 3 6 8 12 14 14 17 21 22 33 32 36 42 44 36 30 23 27 31 34 34 35 34 33 32 32 31 30 24 20 19 20 19 18
6 4 4 4 6 6 4 6 4 3 6 1 1 3 3 6 7 10 14 15 15 14 17 22 27 33 28 31 35 31 30 30 29 32 32 35 34 34 33 32 31 31 30 24 19 21 21 17 16
4 4 2 4 2 6 4 2 1 1 3 1 2 5 4 2 6 8 13 11 14 10 15 22 30 34 28 24 29 29 35 32 30 32 32 33 34 32 32 31 30 30 30 24 19 18 19 16 13
5 3 3 5 3 4 6 2 3 1 4 4 4 8 6 3 5 10 12 12 11 10 13 20 26 34 36 32 28 30 36 30 29 31 32 32 32 32 31 31 29 29 29 25 20 17 14 12 11
5 4 6 6 5 7 6 6 7 3 6 5 6 8 4 3 5 6 6 11 16 14 18 18 25 31 38 38 31 24 30 34 31 31 32 33 33 31 32 30 29 28 27 25 20 15 13 10 9
6 5 5 16 16 15 7 3 5 5 5 6 8 10 7 2 4 5 5 8 13 14 18 24 26 34 30 35 33 31 36 40 36 33 34 34 33 32 31 30 28 26 24 24 21 17 13 9 7
2 11 7 13 10 6 8 7 4 15 5 7 5 8 5 2 1 3 7 7 11 11 29 30 29 34 31 40 33 36 40 40 40 40 36 35 35 33 31 28 26 22 22 20 17 16 13 10 8
5 4 9 19 19 11 12 7 7 12 7 3 5 6 3 3 3 4 6 7 10 18 22 30 31 31 38 32 32 41 43 43 43 40 38 36 35 33 30 27 23 22 19 17 15 13 10 7 6
3 9 16 15 9 9 7 3 2 9 10 9 9 10 6 4 8 9 9 8 9 12 22 36 40 36 29 30 38 40 40 39 39 39 38 36 34 32 28 25 22 18 16 15 12 9 7 5 4
4 8 8 7 4 8 9 2 8 9 15 14 14 12 9 7 11 7 8 8 13 14 17 23 29 28 30 33 36 38 44 39 37 37 36 35 34 29 25 20 17 16 14 13 11 9 7 6 7
5 3 3 4 1 4 13 12 5 13 19 19 18 17 15 11 8 5 7 10 13 11 15 20 24 31 24 39 44 39 35 39 38 35 35 32 30 32 23 23 19 16 15 13 11 9 9 6 7
3 6 5 8 3 2 2 7 4 17 21 17 19 20 19 14 11 9 9 11 12 14 15 20 25 24 34 39 33 38 39 35 34 37 35 34 32 28 27 31 20 17 16 15 13 11 11 11 10
5 4 4 4 5 4 4 10 3 18 20 17 23 22 21 17 12 8 10 11 13 13 13 17 20 26 27 31 40 35 37 39 37 36 34 32 31 30 27 24 20 18 17 16 16 15 14 15 14
3 3 5 8 12 3 10 6 9 13 16 14 21 23 22 20 12 11 10 13 16 15 16 17 20 24 26 32 39 36 38 42 35 34 35 31 32 27 24 22 20 19 19 18 18 18 20 20 19
5 5 13 11 11 6 8 11 3 9 16 23 23 25 27 24 19 19 14 16 19 19 19 20 22 25 27 30 37 42 40 42 35 36 37 39 32 29 24 23 22 19 19 21 23 22 23 23 24
8 6 10 11 6 3 4 6 4 6 7 19 24 28 29 30 27 24 21 21 21 22 23 23 25 24 25 32 38 37 36 38 38 38 35 40 39 27 26 24 24 23 22 23 24 25 28 28 28
9 9 12 14 3 5 5 5 5 6 8 8 18 29 33 34 32 28 25 25 25 21 22 25 26 26 28 31 36 40 41 40 40 41 38 40 39 31 24 26 27 25 24 25 28 29 30 29 31
9 7 10 8 6 1 3 2 7 3 6 10 13 28 35 39 36 36 32 27 25 23 23 26 28 29 31 34 35 36 44 44 41 44 43 48 49 38 30 28 30 29 29 29 29 32 33 34 34
8 3 4 1 2 5 6 6 5 5 8 7 13 26 35 38 41 39 34 30 30 28 26 28 33 34 35 37 39 41 37 43 47 45 43 45 48 44 39 40 35 32 32 32 32 33 34 36 36
5 3 2 3 2 8 6 3 9 8 9 11 14 28 37 40 42 43 41 38 36 35 33 32 36 38 39 39 41 43 41 43 46 47 48 49 46 44 45 44 38 36 34 33 33 35 37 36 34
7 10 5 6 4 6 2 5 5 8 12 19 24 31 37 38 43 45 46 44 42 40 40 38 39 40 42 42 42 43 43 46 46 44 46 46 45 43 42 38 38 38 37 35 39 38 35 21 31
5 6 10 6 1 1 5 6 7 6 5 7 12 16 28 35 42 46 48 48 47 44 46 46 45 44 44 45 45 45 45 46 48 47 47 48 45 42 38 35 34 34 36 38 37 30 28 27 32
9 4 2 2 5 7 4 4 6 8 11 3 6 13 26 35 42 45 45 48 51 50 49 49 49 49 48 48 49 48 47 46 46 46 46 46 43 41 41 37 35 35 37 38 37 36 39 37 32
2 4 4 2 5 8 9 6 7 9 10 9 9 17 23 32 41 46 47 47 49 50 52 52 53 52 52 53 51 50 50 48 46 46 46 44 42 41 36 36 33 33 35 35 37 38 33 30 26
5 7 10 7 4 4 3 12 4 8 9 7 10 17 20 29 37 43 48 46 47 50 50 54 56 56 56 53 52 48 45 42 40 45 44 45 45 44 35 39 35 37 39 38 35 27 23 23 26

GFSSGP_850_spd_066.txt.gz
Wind_Speed
3 3 4 3 4 5 3 5 2 5 4 6 8 3 3 1 2 4 5 17 13 28 30 27 32 33 34 33 32 30 27 22 28 32 28 26 25 26 27 28 26 25 24 24 25 26 26 25 24
3 2 2 3 5 3 5 4 5 5 4 8 3 4 4 3 2 3 10 13 17 29 32 29 30 32 30 28 25 29 27 26 30 27 25 27 27 28 30 29 28 27 26 26 27 28 29 27 25
4 3 1 4 3 3 4 5 8 9 10 7 3 2 3 4 4 5 5 9 18 26 24 40 37 34 31 18 21 28 32 27 23 25 27 27 29 31 32 30 30 29 29 27 27 29 26 24 23
3 2 5 4 3 6 6 7 5 7 3 3 2 3 4 8 6 8 7 8 20 25 27 31 37 35 27 21 27 32 27 25 25 22 28 30 31 31 33 31 30 28 28 28 29 28 27 26 24
3 3 4 1 4 5 6 10 5 2 4 5 0 4 5 11 9 8 10 9 21 26 22 20 31 29 24 27 24 31 33 34 29 31 31 31 32 31 33 31 30 29 29 28 28 28 26 24 24
3 4 3 2 4 5 6 10 4 4 5 5 3 2 5 6 8 8 12 13 19 26 24 25 28 27 30 20 23 32 35 36 34 32 34 33 33 33 32 32 30 29 28 27 27 27 25 24 23
5 4 4 3 3 6 4 2 3 4 5 5 4 3 4 6 7 8 14 15 12 19 21 24 27 28 29 23 31 35 35 31 31 33 34 34 35 33 32 31 30 27 26 25 25 25 24 23 20
5 4 3 4 2 6 4 3 5 6 7 6 5 5 3 3 7 10 16 14 12 12 18 25 31 37 26 33 44 36 30 33 31 35 36 36 34 31 30 31 28 26 25 25 25 23 21 20 18
5 4 3 4 5 5 9 4 6 4 7 6 7 8 5 5 3 6 12 14 10 14 7 11 26 26 39 28 20 25 30 31 31 35 33 34 33 32 32 31 29 25 24 25 24 22 20 19 17
4 4 9 7 5 6 14 8 3 3 3 8 12 13 6 1 4 8 10 8 9 8 8 11 22 39 38 35 30 30 33 36 30 30 34 34 33 32 31 31 28 25 23 23 21 18 17 14 15
6 5 5 6 16 16 6 3 6 4 6 11 10 8 5 3 4 7 7 9 9 10 14 15 28 32 29 28 33 33 38 38 34 31 32 33 34 32 31 32 30 26 22 21 20 18 15 12 12
2 10 9 8 4 5 4 4 5 10 10 8 10 7 7 5 4 8 8 8 10 9 12 24 21 29 30 32 38 39 38 40 40 36 33 34 33 30 31 30 29 26 22 20 17 16 15 13 12
5 5 8 13 21 10 8 10 5 12 21 16 5 7 5 6 5 6 8 9 9 9 19 30 35 28 36 39 34 36 39 42 47 45 37 32 35 36 33 30 28 26 22 19 18 16 13 12 11
6 8 13 12 19 7 6 3 2 10 16 12 9 9 7 6 4 4 5 8 8 10 16 30 26 39 31 37 37 35 42 46 41 41 44 40 37 36 33 31 29 26 23 18 16 13 11 9 8
3 5 6 8 5 6 7 4 10 21 12 14 13 11 9 8 5 4 5 7 8 10 15 24 36 30 35 35 34 36 40 42 43 41 42 41 37 35 32 29 26 24 21 18 15 13 10 7 6
2 3 3 5 3 2 8 10 8 18 18 19 16 14 12 10 6 6 4 7 9 9 12 18 31 35 33 19 27 30 34 36 35 40 40 36 37 33 29 26 24 22 16 13 12 10 8 6 5
4 4 5 7 2 3 2 10 4 8 18 17 18 17 16 13 10 7 6 8 7 9 9 19 29 24 24 24 32 37 36 40 39 38 39 38 36 32 28 26 23 13 13 13 11 8 9 7 5
6 4 5 5 3 2 4 15 7 10 17 19 18 19 17 17 12 9 9 9 10 11 13 12 16 21 27 22 31 35 36 35 39 38 39 37 34 31 31 21 13 19 17 15 14 12 9 9 9
5 4 3 5 6 2 8 9 15 8 14 17 20 22 21 19 14 12 11 11 10 11 10 14 16 21 29 30 36 36 36 37 34 37 39 35 36 30 24 24 26 27 20 18 15 13 14 14 14
4 4 6 9 8 6 9 12 7 6 8 19 21 23 24 20 17 16 16 15 14 13 17 15 15 18 25 32 30 36 37 34 37 37 38 36 33 34 29 29 27 25 23 20 18 17 18 18 19
6 9 5 8 5 3 2 7 8 4 7 9 23 26 25 25 23 21 20 17 15 15 15 20 20 21 20 24 33 34 33 33 38 38 36 32 34 33 32 28 26 26 20 18 18 19 20 21 21
11 10 8 6 3 4 4 5 7 6 8 6 16 25 29 27 26 25 22 21 18 17 16 19 22 23 24 27 33 38 38 42 40 42 35 35 36 32 32 31 25 23 20 20 20 21 23 22 23
9 7 9 5 5 0 1 2 7 3 7 9 10 28 30 30 28 30 28 23 18 18 18 17 21 25 26 28 32 39 40 41 44 40 40 44 39 40 37 31 28 24 23 24 26 25 26 26 28
2 3 4 2 3 4 7 6 5 5 8 7 7 25 31 32 30 29 30 26 23 21 22 21 22 25 27 29 32 38 41 40 48 44 43 44 41 46 44 41 34 26 24 26 29 29 29 31 31
4 5 2 1 2 5 6 3 10 8 12 10 10 22 28 31 32 31 32 33 30 27 27 25 25 27 30 32 35 38 41 43 43 47 48 47 45 44 48 46 42 37 32 30 32 32 31 34 36
7 8 5 6 4 4 3 5 6 7 13 18 18 24 22 25 32 33 31 35 34 31 30 30 30 30 32 34 36 38 39 40 41 44 46 47 43 45 41 48 49 45 38 36 39 37 37 37 37
4 5 7 1 1 1 5 5 8 6 8 6 12 13 23 27 29 34 34 33 38 36 35 35 35 33 34 35 36 38 39 40 41 39 40 45 46 44 42 44 47 43 38 39 35 34 35 34 30
7 5 3 1 3 5 3 3 5 1 8 9 9 10 19 22 24 26 31 34 36 40 38 36 36 36 35 36 38 39 39 39 39 39 38 39 39 41 42 44 43 41 42 39 36 35 34 31 28
2 5 2 4 5 4 3 5 8 11 10 7 9 20 17 22 23 23 24 30 34 38 42 41 40 40 39 39 39 40 40 38 37 38 39 40 40 41 41 41 43 43 41 39 38 34 32 36 38
2 5 7 4 6 4 3 9 5 9 8 7 10 20 14 19 22 23 25 28 32 36 40 43 44 45 45 44 39 41 42 41 39 36 35 38 40 40 42 43 41 41 35 35 28 30 32 34 35

GFSSGP_850_spd_069.txt.gz
Wind_Speed
4 4 1 2 2 2 1 1 2 4 2 4 4 5 5 6 6 4 2 15 18 27 32 34 33 27 32 34 29 29 29 29 29 28 26 27 26 26 24 24 25 23 21 21 24 25 24 25 24
4 4 1 2 2 1 1 2 5 8 5 6 6 5 5 5 8 4 3 15 21 27 29 26 27 29 30 32 32 32 32 30 29 29 28 27 26 25 24 26 24 23 21 23 25 25 24 25 24
5 3 1 3 3 1 3 5 8 6 9 5 2 4 4 3 4 3 5 14 14 26 27 25 23 26 29 32 35 35 32 28 30 29 27 27 26 25 26 26 24 23 24 26 27 27 25 24 23
4 2 4 0 2 4 4 5 4 7 1 3 1 7 7 7 4 8 10 9 15 31 23 32 29 35 32 31 32 31 28 30 30 29 28 25 27 26 26 26 25 24 27 28 28 26 25 23 23
4 2 2 0 3 4 5 9 8 5 3 3 3 4 5 8 12 9 10 8 13 25 22 28 30 32 31 31 23 25 30 29 29 23 21 30 28 28 28 28 28 29 28 27 26 27 26 24 24
2 2 1 3 4 4 5 9 3 5 4 2 4 4 4 6 8 9 10 11 11 21 24 34 35 33 29 26 25 31 32 27 26 27 31 32 30 30 29 28 28 28 29 28 28 26 26 25 24
3 3 3 3 3 4 3 4 3 4 4 4 4 3 4 5 8 8 11 9 11 20 19 21 34 39 31 28 26 24 26 27 30 30 33 30 33 33 30 30 28 29 28 28 26 27 25 25 24
5 2 4 4 4 4 4 3 5 6 5 6 5 4 4 4 7 10 10 7 5 15 20 20 23 34 35 30 27 25 32 31 29 31 34 37 36 34 30 29 29 29 28 27 26 26 23 23 23
5 2 4 4 6 3 4 4 4 5 5 5 7 8 11 10 10 4 6 12 12 11 12 13 20 28 31 39 30 34 39 36 32 31 34 38 38 33 31 30 28 28 27 26 25 23 22 22 21
5 3 8 6 5 4 10 6 5 5 6 6 9 12 14 8 3 3 5 8 9 11 12 13 15 19 27 30 28 26 19 33 41 34 37 37 34 34 32 29 28 27 28 26 23 21 20 20 20
6 7 6 6 13 9 7 6 5 5 8 12 7 5 9 6 4 5 7 9 9 12 11 13 12 19 23 32 19 29 27 35 39 35 36 37 35 35 33 30 28 29 29 27 24 21 19 18 18
5 11 10 4 7 4 5 3 5 11 7 6 5 4 6 6 6 8 8 9 11 10 12 13 15 23 26 33 28 31 38 41 36 34 36 35 36 36 34 32 30 29 29 27 24 21 18 18 16
6 7 7 13 10 13 8 11 8 14 16 14 9 5 8 8 7 7 9 11 12 12 7 22 19 26 25 30 28 36 39 45 41 36 35 35 36 34 34 31 28 27 26 24 23 19 19 17 16
6 11 10 9 14 10 7 3 2 7 11 14 10 10 10 9 7 6 8 13 14 12 10 17 35 28 25 26 32 37 35 42 42 36 36 35 31 35 35 31 29 27 24 22 19 18 16 14 13
4 5 7 7 6 4 7 5 9 16 10 12 11 12 13 10 8 5 5 11 14 12 12 17 25 23 27 32 36 37 45 45 44 41 40 37 32 35 33 32 30 26 23 20 20 17 15 13 13
2 1 5 1 4 0 4 6 10 10 12 12 13 13 13 12 9 7 5 8 13 12 13 16 23 26 32 26 39 38 37 44 44 45 43 39 35 35 34 34 31 27 23 21 20 15 14 13 11
1 5 6 5 2 5 3 8 1 4 6 10 13 14 14 14 12 9 7 8 11 13 12 17 18 23 33 24 32 35 35 40 44 46 39 39 38 37 34 33 32 28 23 21 18 14 12 11 11
10 5 5 8 4 1 5 13 16 8 10 13 13 13 14 17 15 11 9 9 10 14 15 15 20 26 21 22 26 30 32 37 41 35 42 40 39 38 35 33 31 26 24 21 17 13 13 11 9
6 6 6 4 4 3 6 8 14 7 9 13 15 16 17 17 16 13 11 11 11 12 16 18 20 24 20 25 29 29 35 34 37 41 41 39 39 38 35 32 28 27 23 16 12 15 13 12 13
6 7 8 11 4 7 11 10 13 5 7 12 16 20 19 17 18 19 15 12 14 13 15 21 21 21 24 29 25 32 39 40 36 38 38 40 40 39 34 32 30 21 18 16 22 18 15 14 15
14 18 13 11 5 5 7 7 6 4 5 9 14 15 19 22 24 23 20 15 14 17 17 19 24 22 24 24 27 34 35 38 38 36 35 43 44 38 32 32 26 22 18 26 24 20 17 14 15
15 12 12 9 3 6 3 8 4 10 10 8 13 17 20 23 25 25 24 20 16 16 18 18 22 23 23 25 29 31 35 36 35 38 36 41 42 36 34 34 25 28 28 27 22 22 18 15 18
12 9 12 9 7 4 7 7 4 4 7 10 9 15 19 23 28 30 30 23 17 16 19 20 21 26 27 26 26 29 34 33 35 38 36 38 31 40 37 37 34 29 31 25 26 25 20 18 19
7 3 2 2 2 6 9 6 5 7 11 9 10 15 17 19 26 28 27 26 23 20 19 20 22 24 26 28 30 32 35 34 35 38 38 36 40 40 37 39 37 33 34 31 28 25 22 21 23
6 4 2 2 4 7 5 9 14 9 14 13 13 15 16 13 19 27 31 32 30 26 23 24 24 26 27 29 30 33 37 38 41 41 42 44 42 41 42 40 38 38 35 32 28 23 21 23 27
14 14 5 7 5 3 6 6 6 8 11 12 14 17 16 14 16 24 31 33 32 29 28 27 27 28 30 30 31 32 34 41 42 45 44 47 46 47 45 45 44 44 43 40 36 33 31 33 33
6 9 10 1 1 2 3 4 9 6 8 7 9 11 15 14 17 21 26 34 32 31 31 30 30 30 31 32 32 34 36 39 43 47 45 51 49 48 49 46 43 45 45 45 46 44 40 37 35
8 9 4 2 5 10 4 4 6 2 6 7 6 10 16 16 14 17 23 30 34 32 31 31 31 31 29 32 34 34 35 37 40 42 46 51 51 51 51 51 48 49 46 42 44 44 43 40 39
5 8 3 4 3 7 9 6 8 12 11 9 9 12 13 17 13 15 18 23 30 31 32 34 34 34 34 33 35 36 37 38 39 42 43 46 47 48 50 51 49 45 42 41 41 43 41 43 43
2 3 7 6 8 3 3 10 3 10 8 7 12 20 18 15 12 13 14 17 24 30 32 34 37 39 38 37 36 36 39 39 40 40 39 38 39 38 37 38 39 40 39 40 42 43 41 35 38

GFSSGP_850_spd_075.txt.gz
Wind_Speed
6 4 2 7 7 7 15 2 5 5 7 4 3 5 13 12 10 8 6 5 7 5 15 20 24 24 22 27 30 30 31 31 30 28 26 25 23 22 21 20 20 21 21 22 22 21 19 19 20
4 6 7 11 8 11 4 6 7 2 3 2 3 6 10 10 7 9 7 8 6 5 14 13 24 19 18 23 30 31 32 32 30 29 28 26 24 23 22 22 22 21 22 22 20 19 18 20 21
8 9 15 6 12 12 8 6 3 2 3 5 6 3 5 8 5 5 6 8 5 7 12 13 22 21 17 21 16 28 32 32 30 31 28 27 25 24 24 23 22 21 19 20 19 18 20 21 19
6 8 14 10 15 5 7 4 4 7 8 4 6 12 2 1 3 4 6 4 5 8 9 17 22 28 24 25 32 22 35 33 33 32 30 28 26 25 24 24 23 19 17 19 19 22 21 20 19
11 12 12 16 15 5 4 8 6 8 4 6 4 14 10 2 2 4 5 6 7 10 12 17 19 20 21 23 35 26 33 35 34 32 32 29 28 25 24 23 20 18 18 20 22 22 22 20 19
14 14 14 14 12 7 4 6 7 7 8 8 9 11 9 3 1 6 7 6 9 11 13 19 22 19 17 26 18 34 34 36 36 35 31 29 26 25 24 22 20 19 21 21 22 23 21 20 21
17 13 17 19 13 5 6 5 9 8 10 13 8 8 8 4 4 5 5 6 12 11 13 16 19 14 17 18 21 22 29 30 36 35 32 29 26 28 22 22 21 20 21 22 23 23 21 23 24
20 13 21 19 11 11 7 5 8 9 12 8 10 7 12 1 3 4 5 9 8 13 12 16 15 14 15 17 19 22 19 32 31 34 31 29 28 27 21 23 23 21 21 22 23 23 23 24 23
12 14 15 19 13 11 8 8 7 7 13 11 10 10 5 5 6 6 6 7 9 10 11 18 16 15 16 18 19 18 17 26 27 33 31 25 27 30 25 27 25 23 23 24 24 25 24 24 24
17 13 20 16 9 10 9 7 12 11 15 14 14 10 8 8 8 9 8 9 8 6 8 14 18 20 21 22 21 21 19 22 32 34 29 29 25 25 29 26 26 25 25 25 25 24 23 24 25
22 19 21 16 8 14 14 13 12 10 14 13 11 15 8 10 10 9 7 7 8 7 8 9 12 16 19 23 25 28 28 28 35 35 33 31 29 26 26 28 28 28 27 25 24 25 21 17 18
21 24 22 23 12 11 16 19 19 16 18 14 11 10 9 11 11 9 6 7 8 11 12 10 14 18 18 20 24 32 31 35 36 37 37 33 34 31 27 32 31 30 28 26 26 21 16 16 16
21 21 23 19 20 18 19 22 20 22 23 17 12 9 10 12 11 8 7 7 9 9 11 12 12 10 12 13 11 24 30 32 36 36 37 38 35 33 29 31 30 27 22 23 22 15 17 16 15
19 20 21 26 22 19 18 23 24 26 18 13 11 12 12 12 11 9 8 9 9 8 12 11 12 13 11 12 12 14 25 29 40 39 39 35 34 30 29 31 27 26 22 21 18 16 16 15 14
22 18 20 19 21 20 19 23 23 27 18 15 16 14 13 12 12 11 9 9 9 9 15 15 14 14 17 20 18 15 17 21 30 37 33 34 30 32 29 29 27 26 23 21 18 17 16 15 14
14 18 19 19 22 21 18 18 14 5 9 13 13 14 14 14 14 12 9 8 9 9 11 14 15 14 15 19 26 20 25 27 30 32 29 30 36 36 33 32 28 26 23 21 19 18 16 15 15
18 16 20 19 11 10 12 17 9 9 9 11 12 15 16 15 16 14 12 10 10 9 11 12 15 13 16 16 25 24 23 26 37 38 36 33 31 36 32 28 24 28 24 22 20 19 18 17 15
21 20 19 19 13 13 16 19 20 14 15 13 13 15 17 17 18 16 13 11 11 12 11 12 14 12 14 20 25 29 27 30 35 38 39 37 34 36 31 29 26 27 24 22 19 18 17 15 16
22 21 16 11 8 9 15 17 17 16 16 14 14 14 17 18 16 17 16 14 13 13 14 15 18 15 20 21 29 27 33 34 36 40 40 40 33 33 30 27 29 29 23 23 22 19 18 15 16
24 23 21 17 10 6 15 18 16 17 17 21 16 19 17 18 18 19 18 17 16 16 15 17 22 18 18 25 24 24 29 36 34 39 35 37 39 35 35 29 30 30 26 24 22 21 19 17 19
21 23 20 18 16 11 15 19 20 20 20 21 23 18 17 20 21 23 22 21 17 18 17 18 22 21 21 23 27 27 29 34 36 40 40 44 40 34 31 28 27 33 30 28 27 25 23 21 24
22 20 20 18 14 15 14 15 15 13 16 16 18 20 19 19 21 23 24 23 21 19 18 18 20 24 26 27 28 30 34 36 42 46 46 45 44 43 35 37 35 33 33 31 28 25 23 22 18
22 16 19 16 15 18 21 10 13 19 16 13 13 17 19 20 20 24 25 24 22 20 21 20 23 25 31 27 28 30 31 34 36 38 51 45 47 43 41 40 37 35 35 33 30 27 28 24 21
21 17 14 13 14 16 20 16 12 14 14 12 6 9 16 20 19 22 24 24 24 22 22 23 23 26 29 36 32 29 25 29 36 38 39 55 55 47 38 41 38 41 42 39 34 32 29 24 23
23 17 10 11 13 14 13 13 15 6 3 3 5 9 11 12 17 21 25 29 27 27 25 24 25 25 30 32 35 35 33 30 32 38 38 43 57 57 56 44 45 46 47 42 39 38 33 30 35
17 17 9 13 10 14 19 8 12 16 12 5 4 6 11 8 12 20 25 28 30 30 28 26 26 26 28 31 33 34 33 34 31 33 39 40 49 53 58 52 49 47 49 44 43 41 38 32 33
13 19 21 19 11 6 8 11 3 7 9 8 6 7 10 10 10 15 23 28 30 31 31 30 28 27 28 29 28 29 32 31 31 31 35 35 44 51 59 55 54 49 55 51 47 43 42 37 39
22 15 15 12 11 13 12 14 6 10 7 6 10 8 10 12 3 8 20 26 29 30 30 30 30 29 28 29 29 29 29 31 31 32 35 40 39 48 57 57 58 62 57 52 49 48 51 51 44
15 17 15 16 13 5 7 5 3 9 5 2 5 7 1 5 2 2 13 20 25 28 30 31 30 31 31 32 30 29 31 31 33 33 35 35 35 39 43 48 51 62 62 58 53 52 48 49 44
18 19 18 9 13 11 12 9 3 6 6 5 7 9 10 5 7 1 5 15 23 28 30 33 31 32 34 35 35 34 32 32 35 38 38 38 41 39 45 42 47 51 54 58 54 51 51 48 42

GFSSGP_850_spd_078.txt.gz
Wind_Speed
7 5 3 11 6 8 16 9 10 6 1 7 6 4 9 9 9 3 6 5 5 1 10 8 19 22 19 20 20 23 23 24 24 23 23 22 22 22 20 20 20 21 21 22 23 21 22 23 23
6 6 9 10 9 12 11 8 3 3 10 7 5 10 14 5 11 6 5 7 11 3 7 9 19 24 22 17 19 20 22 24 24 24 24 24 23 21 21 20 21 22 24 23 22 22 21 22 22
7 7 11 7 12 14 15 10 4 4 3 4 8 12 7 3 7 3 8 13 9 4 8 15 15 25 24 26 25 26 21 26 28 27 25 25 24 22 22 22 22 22 23 23 21 21 20 21 20
5 10 10 7 16 21 16 6 5 4 6 7 7 8 3 6 5 4 3 5 5 4 8 15 15 20 25 23 23 13 25 8 28 29 27 26 25 23 23 22 23 23 22 20 20 19 21 21 22
10 11 12 16 21 23 6 2 7 8 6 4 4 8 12 6 8 3 4 5 4 6 10 18 14 13 19 27 24 26 27 43 28 33 31 28 26 26 24 23 23 20 20 18 18 22 23 22 23
13 17 13 15 21 15 6 3 3 7 6 8 11 15 2 8 5 2 7 4 9 10 16 16 16 16 20 18 21 17 20 32 24 36 32 29 27 26 25 25 22 19 17 17 23 24 24 23 26
17 12 17 21 19 20 8 10 4 7 8 10 9 11 5 9 3 2 2 6 11 11 12 14 16 14 16 17 16 7 15 27 38 36 34 31 30 27 26 24 21 18 18 20 23 24 23 25 32
22 13 22 18 16 20 7 10 5 7 10 4 11 6 5 5 4 1 3 9 5 10 10 15 15 13 10 12 12 15 6 12 22 37 35 33 30 26 26 23 19 19 19 23 23 23 25 29 31
24 14 15 21 20 15 9 8 8 6 10 12 12 13 10 9 6 2 5 13 9 10 10 14 15 11 7 10 12 17 15 5 17 35 34 33 30 26 25 24 22 22 22 23 24 24 26 29 29
19 15 21 21 21 10 12 9 4 8 12 17 18 15 11 8 4 6 10 10 9 8 9 7 15 12 11 13 12 12 15 18 16 29 28 31 30 26 24 26 24 24 23 22 24 25 26 28 31
25 20 21 26 27 12 10 21 9 15 12 12 7 5 7 6 5 7 9 9 7 7 8 6 9 14 14 13 14 17 14 14 17 29 35 34 33 30 25 27 24 25 24 25 25 26 26 30 32
23 28 28 28 26 25 10 19 17 17 17 14 15 4 10 9 9 9 9 7 9 9 8 7 9 12 15 14 15 19 22 18 20 35 41 39 31 30 25 29 26 25 26 26 27 27 23 29 25
24 24 26 30 30 22 23 16 19 22 23 17 20 11 10 12 11 10 8 7 12 10 13 11 12 12 14 14 15 18 23 28 27 30 38 34 33 32 28 27 27 27 28 27 28 23 18 19 17
28 26 26 31 25 26 21 18 21 25 25 25 21 11 13 15 12 10 10 10 12 13 11 14 13 8 6 8 8 4 12 29 30 36 42 32 36 36 28 26 28 29 29 30 24 20 19 17 16
24 22 22 22 22 20 24 21 21 26 29 26 21 18 15 16 13 12 12 12 13 14 14 12 15 11 10 6 7 10 21 19 38 40 30 33 37 35 32 32 32 27 27 28 21 20 21 18 15
20 18 19 22 23 25 21 20 20 28 22 20 13 18 15 16 15 13 13 12 11 13 12 14 17 14 10 11 14 9 11 20 25 39 35 40 37 33 35 31 32 28 23 25 21 21 19 20 18
16 18 24 22 23 21 21 22 21 17 8 13 18 14 14 16 16 15 14 13 14 15 13 11 13 16 14 15 16 15 11 18 25 31 36 36 34 29 30 30 26 29 28 25 23 22 22 21 19
20 20 22 22 22 20 16 16 16 17 17 16 15 16 20 18 17 16 15 14 14 14 14 10 13 15 14 14 15 13 14 23 30 31 32 38 37 38 36 35 30 31 33 29 22 24 23 22 20
21 20 25 23 20 20 18 15 16 17 20 16 20 16 19 22 19 18 17 16 16 16 15 14 14 16 15 19 17 20 22 25 32 35 36 38 38 33 33 32 35 32 30 30 26 25 23 20 22
26 25 26 26 21 6 13 14 15 15 14 18 18 21 22 23 21 22 21 19 20 19 16 13 15 17 17 20 22 22 24 25 38 38 36 42 40 37 39 33 36 36 32 31 27 24 24 22 25
24 21 21 26 22 18 16 16 17 19 19 21 24 24 16 24 26 27 24 23 22 22 20 20 18 20 20 24 23 25 25 28 35 39 37 43 41 36 37 30 34 33 29 29 29 29 29 28 28
24 22 25 22 17 14 17 14 17 16 21 22 22 20 22 16 26 29 28 25 24 23 21 16 15 23 22 24 28 26 32 36 34 39 43 45 42 38 39 35 37 37 33 35 34 34 32 28 27
27 21 18 22 20 18 21 13 13 10 13 14 15 23 24 23 20 28 30 27 25 23 24 22 20 25 25 25 30 32 33 33 37 37 47 46 45 40 41 37 39 32 37 37 38 36 34 28 25
25 23 17 24 16 16 19 16 13 14 15 10 7 14 19 25 21 24 27 26 26 26 25 22 22 23 30 31 32 31 33 33 35 41 47 47 45 46 39 37 38 36 36 38 36 35 32 29 25
24 13 4 6 12 13 16 14 14 13 18 4 6 3 9 20 25 23 26 28 28 30 29 27 26 26 29 33 33 33 32 33 34 38 43 49 50 52 48 43 47 43 38 36 37 36 32 30 28
16 16 5 6 7 13 19 11 15 14 16 4 2 2 7 15 19 20 25 28 30 32 32 29 30 26 29 33 36 31 31 31 34 36 42 44 54 58 55 52 49 53 46 39 42 40 39 34 33
11 16 22 17 9 6 8 18 3 10 9 6 7 7 12 14 14 18 22 31 32 34 35 32 32 26 29 31 36 38 35 34 34 32 36 43 44 51 61 60 56 55 50 45 45 45 45 44 42
23 12 11 4 5 6 5 6 6 10 11 8 7 8 8 10 7 11 21 28 33 33 34 33 30 30 31 31 28 36 40 40 41 32 34 36 37 43 50 64 62 60 56 51 48 50 50 50 49
15 16 5 4 8 3 1 6 1 2 7 5 8 17 15 12 8 4 3 17 29 29 33 35 33 31 33 34 32 29 34 36 41 42 41 39 39 41 42 53 63 63 62 56 51 53 54 57 56
18 18 19 7 4 7 5 4 8 11 4 7 6 9 15 19 20 8 4 7 23 27 30 34 35 34 34 35 35 33 30 31 33 39 39 38 39 42 41 40 47 53 56 62 60 56 54 56 57

GFSSGP_850_spd_081.txt.gz
Wind_Speed
7 1 3 6 3 3 5 9 5 3 6 17 16 8 1 3 2 3 8 2 2 4 8 7 8 17 22 23 20 20 20 20 19 18 19 21 22 21 20 19 19 20 21 22 22 22 22 21 20
7 6 6 5 3 1 7 8 2 10 14 12 4 3 4 2 15 14 7 4 5 7 11 6 8 18 22 24 22 20 21 21 20 19 20 22 22 22 21 20 21 22 23 23 24 24 24 24 24
7 6 3 4 3 7 5 6 6 8 13 8 3 5 2 9 12 12 2 5 7 5 10 10 7 18 24 25 22 23 24 19 17 20 22 24 24 22 22 22 24 25 25 25 25 26 26 26 24
6 4 6 1 11 17 15 9 5 5 10 13 7 1 6 9 8 4 0 4 9 8 8 7 7 10 20 21 23 26 18 21 19 16 21 26 25 24 23 24 26 27 25 24 25 26 27 26 29
6 5 3 4 12 15 17 8 7 4 3 12 11 4 8 9 10 8 4 2 4 4 9 8 8 10 15 21 24 19 18 24 24 27 24 27 27 25 25 25 27 27 23 22 25 26 27 32 34
5 5 1 5 14 14 8 12 10 5 4 2 2 3 6 15 8 5 3 6 4 10 11 13 12 11 14 20 18 15 18 17 23 22 24 27 29 28 25 25 27 25 21 22 25 28 31 35 33
7 2 6 8 15 20 15 11 6 5 3 1 5 3 13 14 10 5 8 11 8 10 13 14 12 11 13 18 18 17 17 17 25 23 33 34 32 29 24 24 26 20 18 22 28 30 32 34 31
18 3 8 8 11 18 7 2 13 11 5 3 3 4 8 19 13 7 8 9 8 9 11 15 13 11 11 17 20 19 16 8 14 27 34 41 35 30 29 31 24 20 20 27 29 30 32 37 30
20 5 11 10 15 18 15 2 10 8 7 3 12 16 15 19 12 5 7 9 9 9 4 8 14 9 10 12 13 15 16 15 11 26 27 40 36 32 30 28 22 19 22 28 29 30 35 36 31
12 3 15 11 18 12 17 8 4 4 8 10 18 1 17 14 6 4 6 10 11 8 2 0 14 10 11 11 12 15 14 8 12 20 24 38 37 34 30 25 21 20 25 28 28 31 37 35 33
16 14 13 20 31 24 19 14 13 5 4 10 6 18 14 10 7 5 9 14 11 8 3 2 9 13 10 11 12 14 15 13 12 12 42 40 36 33 28 27 25 26 28 29 30 33 36 35 34
13 22 25 27 34 27 10 21 10 10 8 12 13 12 13 14 11 8 11 13 11 7 5 8 8 12 13 13 11 13 17 21 15 16 37 39 36 33 31 28 29 28 28 29 31 32 36 36 29
15 17 26 30 31 31 31 16 12 21 24 22 16 12 15 13 11 8 13 13 11 10 10 10 11 11 12 14 15 17 17 17 21 32 32 35 32 33 32 29 29 29 28 29 30 33 37 33 26
18 19 22 25 22 28 14 10 13 26 24 23 24 21 18 14 12 11 19 15 14 14 11 13 12 12 10 13 15 19 23 23 27 28 40 42 41 35 37 33 33 31 30 30 30 32 37 25 23
22 14 13 8 16 9 21 9 13 33 27 28 27 29 25 17 14 16 20 18 17 15 13 12 15 12 10 8 10 12 16 25 31 33 41 43 38 36 35 35 33 33 32 32 30 29 26 24 19
6 6 8 11 11 16 11 14 15 31 29 29 33 32 25 20 17 18 15 15 17 17 14 13 16 16 10 9 10 8 15 16 32 38 45 47 40 39 37 36 34 34 34 32 30 27 24 23 21
3 6 15 11 9 13 10 19 19 35 29 9 16 16 17 18 18 18 17 17 17 17 15 12 18 17 14 14 16 9 9 13 35 35 42 40 39 40 37 37 35 35 37 30 30 28 29 24 24
6 9 10 14 19 17 14 21 15 24 14 17 18 21 26 26 25 23 21 20 19 19 16 12 14 20 19 17 16 14 11 17 25 34 42 39 42 39 37 36 34 32 35 29 32 25 27 24 23
13 16 17 15 17 17 17 10 14 12 13 14 24 23 30 30 29 28 26 23 21 20 20 15 14 21 21 20 20 20 18 19 24 31 35 44 42 39 38 36 38 35 34 34 31 27 28 27 25
10 17 20 18 23 17 19 16 10 8 8 18 26 29 29 35 33 33 31 29 26 23 22 16 14 17 21 22 23 23 25 24 25 29 38 39 40 38 41 39 37 36 35 32 32 31 31 29 26
14 17 18 20 27 20 20 11 18 7 7 19 19 37 35 39 38 39 36 33 29 26 24 20 15 17 19 24 22 20 26 27 34 35 40 44 44 44 43 44 36 32 40 36 33 34 34 33 30
16 13 16 20 19 8 10 15 20 8 14 16 24 24 28 31 42 43 39 35 32 27 24 21 16 18 19 24 25 25 28 32 36 38 37 41 40 39 40 32 34 29 33 36 37 34 36 32 34
11 7 12 12 15 13 20 11 15 12 7 16 19 29 30 25 42 45 42 35 33 27 24 22 18 20 24 27 29 29 26 27 32 37 39 40 42 42 40 39 37 36 37 37 38 36 36 33 34
6 9 8 10 8 6 19 13 9 12 13 11 7 23 36 31 41 44 42 36 31 25 23 24 22 22 26 30 31 28 29 28 32 38 41 41 45 44 39 38 39 38 38 38 37 37 37 35 33
3 9 3 5 5 7 11 12 15 8 15 15 14 19 34 35 35 43 43 37 32 29 25 25 25 24 28 30 33 34 32 30 32 35 37 42 47 48 44 40 42 40 38 41 38 39 38 36 35
5 3 3 4 3 2 12 8 9 14 22 9 11 12 10 26 34 45 43 37 33 29 27 26 27 27 28 32 33 35 34 33 35 35 35 42 50 51 49 43 46 43 43 40 37 37 39 36 36
3 7 6 6 3 2 4 8 9 12 20 10 8 9 10 25 32 39 38 37 34 30 29 28 28 28 28 30 34 35 36 34 34 33 34 37 45 50 50 50 49 48 47 43 39 38 38 38 40
11 1 2 3 3 3 4 5 4 2 6 7 7 6 16 24 28 32 36 36 34 33 30 30 27 27 28 30 33 36 35 34 35 34 35 37 39 45 52 51 54 51 48 45 43 43 41 43 43
6 9 4 4 4 2 1 4 14 19 12 14 11 22 28 25 14 11 14 34 36 35 32 31 30 27 28 29 30 32 36 36 36 37 35 35 34 39 46 50 57 59 60 55 52 50 51 49 50
13 13 13 2 2 4 2 4 15 15 15 14 10 20 25 23 29 28 22 16 33 34 32 31 31 29 26 29 30 31 29 35 39 40 39 36 37 38 39 43 52 58 64 61 62 58 55 55 55

GFSSGP_850_spd_084.txt.gz
Wind_Speed
2 4 4 4 3 4 4 7 5 3 1 8 8 7 6 5 3 3 14 10 2 3 4 3 4 12 20 24 24 24 24 22 19 16 17 18 22 22 24 23 24 22 22 22 24 24 23 21 20
6 7 2 1 3 2 5 5 7 7 10 11 9 7 5 2 9 8 13 7 1 6 7 5 6 13 21 23 22 22 22 21 18 15 16 19 21 21 22 23 22 22 22 24 25 26 24 23 22
8 8 2 3 3 6 5 3 4 7 17 10 6 4 8 11 9 9 6 5 2 4 6 5 7 13 20 24 22 22 22 21 17 15 13 16 21 21 23 23 23 24 23 24 26 27 26 24 25
8 5 3 3 11 9 5 7 16 6 6 10 9 6 7 9 14 11 11 5 1 2 4 4 7 9 15 18 21 23 24 24 24 25 14 16 14 22 25 24 24 24 23 26 28 30 29 28 27
11 4 1 3 9 7 5 13 22 11 7 8 12 6 7 13 13 14 5 4 4 4 5 3 6 10 13 18 21 20 20 21 21 20 14 11 18 20 24 25 26 26 27 27 30 32 31 29 28
5 2 2 5 10 6 7 22 25 12 10 12 6 8 6 15 12 9 6 6 6 6 7 7 8 10 13 18 22 22 22 24 22 17 28 17 26 25 24 26 29 29 26 28 33 33 31 31 27
6 3 5 5 8 8 6 20 10 6 4 3 5 4 12 18 14 11 9 6 6 6 9 12 12 12 12 16 19 20 20 20 19 23 25 19 32 28 26 28 31 27 26 31 34 34 35 32 26
6 4 4 5 6 11 6 22 6 5 4 6 4 7 7 22 19 15 9 5 4 4 5 15 15 13 12 15 18 16 17 18 20 22 27 26 29 30 30 31 30 24 25 32 34 37 36 31 25
9 3 6 6 8 9 14 6 22 8 8 7 7 7 10 21 23 16 12 9 6 4 4 10 15 13 11 12 18 18 17 17 19 20 28 40 25 36 33 31 27 22 25 33 36 39 35 29 23
6 6 12 9 11 10 16 12 15 11 6 6 8 6 8 24 24 17 13 10 7 6 2 7 14 15 15 13 15 16 19 16 14 22 30 38 38 41 37 32 27 22 27 34 37 37 33 26 24
7 10 10 15 22 21 18 20 20 8 5 12 9 13 19 26 23 16 12 9 7 7 5 7 11 17 14 13 11 15 19 20 16 8 30 42 44 43 40 35 30 27 30 36 36 37 35 26 26
5 8 19 21 32 22 14 29 12 14 18 14 6 14 23 25 23 18 13 11 13 12 8 7 11 16 15 13 12 13 17 18 17 11 24 42 48 45 41 36 31 30 36 36 36 41 37 32 24
6 12 25 27 32 29 33 23 22 27 30 20 12 14 22 26 22 16 9 14 16 16 11 8 12 12 14 14 15 15 17 19 15 10 32 46 47 42 39 34 31 32 36 36 39 44 40 35 22
9 17 24 26 27 28 13 16 10 28 26 22 19 18 22 25 23 19 18 20 20 17 13 10 11 13 14 15 17 19 19 22 19 16 33 40 42 40 35 32 33 35 35 35 39 43 41 37 24
20 12 13 11 13 5 15 13 8 28 29 25 26 28 25 27 26 25 21 22 21 18 13 13 13 15 15 15 20 21 23 24 25 30 36 39 41 36 35 36 36 35 35 37 40 42 40 37 24
4 3 5 5 2 6 8 20 12 28 24 28 29 29 31 27 28 26 22 22 21 19 15 15 14 16 13 14 15 18 24 27 29 37 41 44 41 37 30 34 34 36 36 37 40 43 41 37 29
2 7 8 7 3 3 5 17 11 29 27 26 34 34 36 32 28 29 25 24 22 20 17 16 15 18 15 13 13 14 16 18 26 35 38 42 42 36 36 35 33 34 36 37 40 45 41 36 29
7 5 5 3 4 6 10 17 13 29 24 26 30 29 24 31 35 35 31 27 23 21 18 15 14 19 17 15 17 12 13 16 19 29 36 44 43 39 38 37 35 37 39 38 38 39 37 34 28
4 8 9 5 7 12 10 19 14 20 26 23 26 30 27 33 37 36 33 29 26 24 21 19 16 21 21 20 21 19 15 16 24 33 37 48 44 40 39 39 37 38 41 37 36 33 30 27 28
8 7 7 7 2 7 17 23 15 18 13 20 27 30 30 33 35 40 37 32 29 26 24 20 17 20 24 23 21 22 17 17 24 29 32 44 39 39 39 37 38 38 42 37 36 32 31 29 31
8 7 5 8 7 4 10 19 19 22 19 25 26 28 34 34 40 44 41 36 32 30 26 22 19 18 26 24 23 22 18 19 22 29 30 42 40 40 42 38 39 39 41 36 35 34 33 34 34
4 3 3 6 5 3 9 8 13 14 18 17 21 24 27 35 42 48 45 39 36 33 27 23 20 17 22 28 26 28 27 28 26 29 36 38 38 37 37 38 37 40 39 38 35 35 35 35 37
2 5 3 1 3 7 8 6 15 9 17 19 12 24 26 30 40 47 49 44 39 35 30 26 21 18 21 27 29 27 28 28 22 26 34 36 37 38 39 39 41 39 40 40 38 39 38 38 38
6 4 4 4 2 8 14 9 14 14 15 16 11 19 21 31 40 50 52 47 42 36 31 27 24 20 23 26 29 31 30 29 29 31 33 37 40 42 40 37 39 37 38 42 38 39 36 38 39
5 5 3 5 6 11 14 13 19 8 13 14 16 21 33 27 43 44 49 49 44 40 34 29 27 24 24 27 31 32 31 30 30 32 39 40 44 46 45 43 44 40 38 36 39 40 43 42 39
5 8 3 5 5 2 10 9 6 22 23 30 31 32 37 26 43 49 54 52 46 41 36 31 29 26 25 26 31 33 34 33 29 31 34 42 42 43 45 47 45 42 38 38 38 42 43 41 40
6 5 5 5 3 1 4 6 6 14 19 18 22 19 12 35 41 47 50 50 45 41 35 32 29 27 25 25 29 34 35 34 34 32 34 34 40 44 47 47 48 46 44 42 42 44 44 42 40
4 6 2 4 2 3 4 3 4 14 17 21 16 7 9 21 37 43 45 46 42 38 35 33 28 25 24 24 26 30 34 37 36 34 35 37 34 36 43 48 49 48 46 45 43 43 43 44 42
5 2 5 3 4 2 2 1 4 9 12 18 18 23 23 19 14 25 38 42 40 37 35 33 30 27 26 25 25 28 33 36 38 37 36 36 36 36 39 45 51 53 50 48 49 48 47 46 45
11 6 6 3 2 3 1 3 7 10 14 13 16 18 22 30 31 16 24 19 23 29 32 32 30 28 26 23 24 26 28 33 35 37 36 34 36 36 37 40 48 56 55 54 54 55 55 54 53

GFSSGP_850_spd_087.txt.gz
Wind_Speed
8 5 2 1 3 4 4 7 3 5 2 5 6 5 6 3 4 3 18 8 5 2 1 3 5 13 21 24 23 22 22 20 19 18 22 25 28 26 26 26 25 24 24 22 25 25 23 21 22
8 7 3 3 4 2 5 5 5 6 13 7 6 14 4 2 5 7 18 11 6 4 2 2 6 12 20 24 24 23 22 20 19 20 22 23 23 23 23 23 24 24 23 24 25 25 24 21 22
10 8 2 4 4 6 5 4 2 14 14 5 3 3 9 6 10 9 10 8 6 3 1 2 5 11 18 24 24 23 23 21 20 21 22 24 22 21 21 22 24 24 23 24 24 26 24 23 22
8 5 2 3 9 7 6 6 1 5 18 16 8 3 4 11 10 13 12 9 3 3 3 3 6 11 16 22 24 24 24 26 26 27 27 24 22 19 17 19 21 22 23 25 27 25 24 24 24
10 3 1 3 7 5 6 15 15 6 6 15 11 5 3 9 13 13 11 7 3 5 5 4 8 12 14 18 21 24 25 26 26 23 22 22 15 18 17 16 20 21 22 24 26 28 26 27 28
5 4 2 6 8 4 6 12 15 12 15 11 6 6 4 10 12 14 11 5 4 5 5 6 9 12 14 18 21 22 23 28 25 25 23 20 20 18 19 19 21 22 24 28 30 30 29 29 27
6 4 5 4 5 7 5 5 5 5 3 8 12 6 4 17 17 15 10 5 6 6 7 9 11 12 15 17 21 24 25 27 25 27 20 21 26 28 29 27 25 27 28 29 34 32 30 29 26
6 4 3 6 4 10 4 8 5 8 6 10 14 6 6 23 20 16 14 10 7 7 8 9 13 14 13 17 18 21 22 22 21 21 18 23 20 25 29 29 30 30 28 33 34 32 30 27 23
8 3 6 8 8 6 4 7 11 14 8 7 9 6 5 17 25 22 19 15 12 10 8 10 14 14 14 14 18 20 21 22 21 20 19 24 25 27 28 33 31 30 30 35 34 33 31 26 21
5 5 10 7 8 4 7 10 19 11 21 16 6 8 9 17 29 28 24 17 14 11 9 8 12 15 14 16 17 20 22 22 23 24 24 29 28 30 24 32 32 30 33 36 36 34 31 26 22
8 9 9 6 12 14 6 12 13 6 10 17 12 16 12 21 30 28 23 18 12 11 11 6 10 14 18 19 18 20 21 20 21 20 23 29 35 33 33 35 35 30 34 38 39 37 32 26 23
5 11 19 11 19 14 7 21 7 8 25 35 31 20 15 23 29 29 26 21 17 16 12 7 9 15 18 16 17 16 18 21 23 19 17 32 42 40 38 41 37 32 38 39 41 37 31 25 22
5 5 17 20 21 22 26 19 15 23 40 37 32 20 22 24 27 30 24 19 20 19 15 9 8 13 15 15 17 18 18 21 21 22 10 24 35 47 41 45 39 34 41 41 42 36 30 26 25
5 20 18 21 21 22 14 20 13 27 34 28 25 25 28 28 29 31 27 24 25 20 18 12 10 12 14 17 18 18 19 20 23 23 18 29 33 47 47 42 40 35 41 42 41 39 32 28 25
14 9 8 6 7 8 14 7 8 23 27 23 25 25 28 31 32 34 31 28 25 21 21 16 11 12 14 16 18 19 19 20 23 17 17 31 39 45 43 41 38 35 39 41 40 40 33 28 22
4 2 2 3 7 8 8 20 8 20 24 25 27 27 23 29 34 35 34 29 27 25 24 18 14 14 15 16 18 20 21 22 23 21 20 32 39 42 41 42 36 34 40 41 42 43 36 30 24
2 4 3 3 5 5 7 9 4 17 19 19 27 30 33 34 27 36 37 32 28 26 26 20 17 15 16 16 16 18 22 23 24 23 26 27 34 38 38 35 35 36 39 40 44 44 39 31 28
7 4 2 4 3 5 11 15 7 18 17 16 23 28 31 37 35 35 41 35 31 29 26 21 19 17 17 15 16 17 19 20 22 25 35 32 32 39 35 33 33 35 38 41 45 44 38 34 28
3 3 3 4 5 4 6 16 12 12 11 13 23 26 31 33 34 32 43 38 34 31 29 24 22 19 19 19 18 18 18 17 19 24 31 37 36 38 40 33 32 34 39 41 43 43 40 32 27
7 6 4 5 2 4 8 23 19 10 15 17 22 27 33 28 30 34 41 40 37 34 31 27 24 20 18 18 19 21 18 17 18 21 25 38 41 40 41 37 37 37 39 41 43 46 42 34 29
4 4 3 6 4 4 7 22 23 22 11 20 21 23 28 26 32 38 42 42 41 38 34 29 25 20 19 18 18 17 19 16 19 21 26 26 37 43 37 37 36 36 39 41 41 44 43 39 32
4 2 2 2 2 4 3 13 20 18 15 11 15 18 25 24 31 39 46 46 44 40 35 29 25 21 20 21 23 23 23 23 24 24 27 30 38 42 37 36 38 36 40 39 38 38 39 35 35
3 3 4 3 1 2 4 4 14 6 11 15 9 17 23 25 28 44 49 49 47 42 36 31 26 23 21 23 23 23 25 24 22 23 25 22 38 35 36 36 40 42 38 40 35 34 37 34 35
6 4 3 2 3 7 9 11 21 9 18 17 15 20 24 23 26 39 49 51 48 43 36 32 28 24 22 25 25 26 27 27 25 24 27 28 32 35 34 37 35 36 37 43 39 36 40 37 36
6 5 3 3 4 6 4 12 18 22 20 15 15 17 21 20 21 34 42 48 49 45 40 35 31 28 24 25 27 29 29 28 28 23 24 32 34 36 35 33 38 39 40 43 41 41 41 40 40
3 6 4 4 2 3 5 8 6 6 11 9 13 21 21 24 25 28 43 51 55 48 43 38 33 30 26 25 26 27 30 28 27 25 23 27 31 34 36 36 38 38 39 39 40 40 42 44 40
4 4 1 1 6 5 5 6 6 13 18 19 16 19 22 23 31 30 42 49 54 50 44 40 34 30 27 26 27 28 31 31 31 29 26 27 31 35 38 38 38 38 38 39 38 42 42 45 37
6 6 2 3 3 4 5 5 3 12 18 18 18 15 24 19 15 27 41 46 49 50 43 37 33 29 26 26 26 26 29 31 30 27 29 30 30 34 37 40 41 41 42 42 40 38 37 42 46
3 3 2 2 3 3 3 3 7 12 15 17 17 22 27 25 4 18 26 30 37 43 41 39 34 29 26 25 25 26 26 29 30 30 30 28 31 31 35 37 40 43 46 46 46 43 42 45 45
5 4 5 3 2 3 5 3 8 7 15 16 22 25 29 28 18 16 16 18 26 31 33 35 31 29 25 23 24 25 24 26 30 34 33 32 31 32 33 33 35 40 46 49 50 50 50 50 50

GFSSGP_850_spd_090.txt.gz
Wind_Speed
10 6 4 2 2 4 3 6 2 4 2 3 4 4 5 3 5 4 22 13 9 8 5 4 7 12 17 21 21 21 21 21 22 24 26 27 26 26 26 26 25 24 25 25 23 21 20 20 23
10 7 4 3 4 3 5 4 5 6 6 8 2 4 3 3 5 7 19 13 10 7 6 6 9 13 18 21 22 21 21 21 23 25 25 23 24 23 23 23 23 24 23 22 23 22 22 23 23
11 8 2 4 4 6 6 6 6 4 4 3 1 5 3 3 8 7 13 15 11 7 4 4 8 13 18 22 23 21 21 21 22 21 23 26 25 25 24 24 22 20 18 20 23 23 23 22 22
10 5 3 3 8 6 6 4 2 10 7 4 7 4 3 8 6 11 14 15 11 7 4 5 8 12 18 22 23 22 22 21 20 23 26 27 26 23 23 21 21 19 17 19 22 24 22 22 22
11 4 1 3 6 5 5 8 9 3 5 11 9 6 4 11 9 14 14 12 9 7 4 5 8 12 15 19 21 22 24 24 24 28 30 29 26 26 23 20 17 17 19 20 22 22 24 24 22
4 3 2 7 6 4 4 10 8 7 16 21 10 8 5 9 13 16 15 12 9 6 4 6 9 12 14 16 19 22 21 22 24 25 27 28 25 18 13 15 16 16 16 21 25 25 26 25 24
5 4 5 4 5 4 5 7 3 7 10 7 8 8 5 13 17 17 16 12 10 8 7 7 9 13 15 17 21 22 22 24 25 25 26 24 29 23 17 28 29 27 21 25 28 28 27 26 25
5 4 4 6 7 7 6 5 6 3 4 5 9 5 5 16 20 21 18 16 13 11 9 8 10 13 17 18 20 22 22 28 27 28 26 25 24 24 26 22 26 23 26 29 30 29 29 26 25
8 2 5 6 6 5 2 4 3 9 7 19 5 5 5 13 23 24 23 20 17 15 11 9 12 16 17 18 20 22 24 25 24 25 29 27 27 25 24 30 26 28 29 32 33 32 29 27 23
6 5 10 6 6 4 4 4 7 7 11 8 13 10 11 13 25 27 26 25 21 18 13 11 13 15 15 18 18 21 22 24 23 25 27 25 25 24 23 28 28 28 31 33 34 33 30 27 24
6 8 5 6 12 10 4 10 7 3 7 19 12 19 24 17 27 28 27 25 22 16 14 11 12 14 16 18 20 21 24 26 26 25 25 24 25 26 26 32 33 33 33 33 35 34 30 27 24
4 8 9 11 18 14 5 12 5 11 20 32 28 30 28 21 29 28 29 28 26 21 16 13 12 15 16 19 20 19 23 24 25 23 26 26 28 30 30 35 33 31 33 37 38 34 32 26 22
4 4 10 25 21 21 26 12 18 9 28 33 30 29 26 25 30 29 29 29 25 24 20 16 13 15 16 18 21 19 20 20 21 22 23 25 31 30 36 33 35 34 37 38 37 34 31 27 22
3 17 21 24 22 13 9 18 8 12 26 26 26 24 25 24 29 31 31 31 30 26 24 20 15 15 16 17 18 18 19 18 20 25 25 21 26 29 42 37 36 31 38 39 38 38 32 27 23
19 11 8 7 10 7 11 8 9 27 25 24 23 24 22 23 30 35 31 33 33 30 23 24 18 17 16 16 17 17 18 19 21 25 25 25 27 30 45 41 39 36 36 40 40 37 32 26 24
2 5 4 4 8 9 11 17 7 13 9 11 14 15 15 16 25 33 36 36 34 31 27 24 21 18 17 17 17 18 18 18 20 25 23 24 29 35 49 42 39 38 35 41 41 37 32 29 27
2 3 4 4 8 4 9 2 2 13 13 13 18 18 17 17 18 22 33 39 38 33 30 26 25 21 18 18 17 17 19 19 20 21 22 17 26 35 40 39 39 37 36 42 42 38 34 30 26
5 4 4 4 3 2 9 14 7 13 15 18 22 22 27 25 26 24 23 35 40 36 32 28 26 23 19 19 18 18 17 20 19 18 19 18 20 24 31 35 36 37 38 43 43 41 35 31 28
2 3 4 3 6 4 9 16 6 12 11 11 20 29 31 33 30 26 21 26 38 39 35 33 29 25 22 21 20 19 18 20 21 18 23 21 21 26 33 31 34 33 33 44 43 41 37 32 30
5 5 5 5 5 3 8 22 9 9 10 17 21 26 28 31 29 25 21 25 34 41 38 35 31 26 22 21 20 17 17 17 15 15 20 25 28 25 35 29 30 29 33 41 41 42 39 33 32
5 5 4 5 4 4 6 25 11 5 10 20 21 27 28 32 27 23 22 26 37 43 41 37 32 27 23 19 19 17 18 16 16 18 18 21 33 28 40 35 32 32 34 35 39 44 41 37 35
6 7 6 3 2 4 4 12 15 15 21 9 19 26 32 35 30 23 20 27 41 44 42 37 32 27 24 21 20 19 21 24 19 19 21 21 23 31 38 39 42 36 41 35 36 43 41 38 38
5 5 6 3 3 2 2 4 5 10 20 22 16 27 34 34 29 25 22 25 38 42 44 39 32 27 24 22 20 19 18 20 20 19 20 18 19 24 34 38 37 34 41 37 37 40 44 38 38
9 5 4 3 2 2 6 6 8 4 3 17 20 27 29 34 28 24 24 31 39 43 41 39 34 30 25 23 22 22 19 21 20 20 22 22 22 31 29 38 33 35 38 41 42 37 39 42 37
3 5 3 5 2 4 5 6 17 17 17 13 18 23 25 24 28 27 27 32 37 46 45 41 36 33 26 23 23 22 21 21 21 21 23 23 27 29 28 31 31 32 39 42 42 41 38 37 37
2 4 4 4 3 3 4 6 6 2 8 20 26 26 26 17 20 23 28 30 35 46 48 43 38 35 28 24 23 23 22 23 24 22 23 23 27 29 34 30 26 28 34 38 40 39 38 39 45
2 3 2 3 3 1 4 7 6 11 17 19 26 33 31 30 18 23 28 32 36 45 49 46 41 37 29 24 24 24 22 23 24 23 21 18 22 26 30 31 28 29 32 36 37 43 45 39 41
3 7 4 2 3 4 5 5 3 12 15 18 22 28 34 35 17 18 30 31 36 40 42 44 43 36 28 23 22 22 21 22 22 20 20 19 18 21 23 28 30 28 33 35 37 36 40 42 45
2 3 5 3 2 3 3 4 2 6 8 12 18 31 28 31 12 12 17 21 27 32 33 39 39 34 27 21 19 18 19 20 22 20 20 20 20 20 23 24 28 30 32 34 36 39 39 42 41
4 4 4 3 3 4 4 6 3 6 6 8 20 30 23 24 27 18 12 13 18 24 28 30 31 29 23 17 16 17 17 17 21 22 22 21 20 20 22 24 29 32 35 37 38 39 41 43 44

GFSSGP_850_spd_093.txt.gz
Wind_Speed
13 7 6 3 2 1 3 4 3 3 3 5 5 5 6 4 5 2 16 21 15 10 6 5 3 5 12 16 18 19 19 21 23 26 25 25 24 24 24 24 24 24 24 23 22 19 18 17 18
13 10 6 3 3 4 4 3 8 8 1 6 6 5 4 3 6 8 24 18 13 9 6 6 5 7 13 18 18 19 18 20 22 25 26 26 26 24 25 25 25 25 24 22 21 19 16 18 21
12 12 5 2 3 8 4 6 7 2 11 5 4 4 2 3 8 15 17 18 14 10 9 7 6 8 12 18 19 19 20 20 21 21 23 23 22 22 22 23 25 25 24 21 20 18 18 20 21
12 7 4 3 13 5 5 2 5 5 4 5 4 3 3 7 8 13 15 18 13 11 8 7 8 9 12 17 20 20 21 22 23 23 24 23 23 23 22 21 21 22 22 20 20 20 21 22 21
14 4 3 4 8 4 7 6 8 7 6 5 3 4 4 7 8 12 17 18 14 10 8 8 9 10 12 15 19 20 21 21 22 27 28 27 27 25 23 20 17 18 18 17 19 20 22 22 20
5 4 3 13 15 4 6 11 6 6 8 9 7 9 7 8 13 14 17 17 14 11 9 8 9 11 12 13 16 19 20 20 22 25 28 30 30 28 24 18 18 14 15 18 18 19 22 23 22
6 4 7 6 7 4 5 10 11 6 3 2 7 6 6 12 14 16 19 18 16 14 11 9 10 13 14 15 18 19 19 21 23 25 28 30 31 29 23 22 15 18 19 19 18 22 23 24 24
6 3 5 7 13 10 5 7 4 4 1 8 4 3 2 7 17 19 21 20 18 16 13 11 12 14 17 19 20 20 21 21 23 25 28 29 29 28 27 31 29 25 26 25 22 25 23 25 24
9 5 12 11 9 8 5 3 3 3 5 9 2 8 6 12 18 23 25 24 22 20 16 13 13 14 17 18 20 20 20 23 25 26 27 29 28 25 27 27 25 25 29 26 27 24 25 26 25
7 8 12 6 10 8 5 5 4 4 6 8 11 5 10 14 10 25 28 28 27 24 18 14 15 14 18 19 22 22 23 25 29 29 29 30 30 28 28 27 22 24 26 28 26 26 28 27 27
8 14 7 9 19 10 5 8 7 8 13 14 10 13 18 17 13 27 30 30 27 24 19 15 15 15 19 21 23 23 25 28 27 29 31 31 32 27 25 22 27 26 27 28 27 30 31 31 28
7 9 16 14 13 9 7 5 6 11 19 27 26 18 23 22 18 21 30 32 29 26 20 16 16 18 19 21 21 23 25 27 27 29 31 32 33 30 27 28 31 29 29 33 32 36 33 30 26
9 8 10 20 19 18 18 17 17 19 25 32 28 23 21 21 18 19 26 32 31 29 24 19 17 18 19 21 24 20 23 26 27 29 29 31 31 29 30 29 33 32 31 33 36 36 33 29 25
5 18 20 17 18 11 12 20 10 9 22 27 24 22 20 20 18 19 25 30 32 32 30 22 19 19 19 19 23 23 21 22 23 25 27 28 28 28 32 32 34 34 29 32 34 36 34 29 24
10 10 13 12 9 7 10 17 16 27 26 25 27 22 21 20 17 18 22 28 31 33 32 27 22 22 20 19 20 21 20 21 22 21 24 26 26 27 33 35 38 38 34 27 35 37 34 28 24
4 3 4 4 16 11 10 19 8 9 9 11 12 12 10 11 14 14 17 22 30 32 34 29 26 24 21 21 20 20 21 21 22 23 24 27 27 28 34 35 39 38 37 36 37 39 33 29 26
2 6 4 5 11 6 15 15 5 6 2 5 9 13 15 16 16 17 14 17 26 33 32 34 30 27 24 22 21 20 21 20 20 22 22 28 28 31 35 35 38 40 37 40 41 40 34 31 28
8 5 6 9 3 7 13 12 11 18 10 13 14 18 22 23 24 25 22 22 23 31 32 34 32 30 27 24 22 22 21 22 21 21 21 22 28 32 33 37 45 38 41 39 43 39 35 31 29
8 9 12 3 4 4 13 18 15 14 16 14 19 21 24 29 28 29 28 26 26 30 33 38 37 33 30 27 25 25 22 22 22 23 19 16 17 25 24 48 38 41 41 40 43 41 36 33 30
11 14 14 7 8 5 13 20 15 13 20 24 23 22 24 27 29 28 26 26 27 30 33 39 39 35 32 28 24 23 18 21 21 17 15 18 21 13 22 27 37 35 37 39 43 41 38 35 33
11 15 9 11 3 4 10 22 17 13 16 18 15 20 25 27 30 32 27 26 25 28 34 40 39 36 33 28 25 21 18 17 19 19 17 18 17 17 20 28 26 31 32 34 41 41 41 38 34
15 10 9 6 4 7 2 9 9 12 7 6 7 16 23 27 29 32 30 28 27 28 33 39 40 36 33 29 26 22 19 22 23 19 19 20 21 27 26 31 26 28 32 34 41 41 39 37 37
9 9 9 5 4 2 4 5 3 7 1 7 11 16 23 24 24 26 28 32 29 29 34 40 40 37 34 30 26 21 20 20 20 16 18 22 15 30 28 37 33 30 32 31 36 38 38 38 38
10 8 6 4 2 4 7 4 2 3 3 17 17 25 28 29 26 23 25 28 29 28 34 40 39 38 35 31 27 22 19 18 21 20 18 20 20 22 32 37 39 36 36 37 36 34 34 37 41
3 6 2 3 4 4 4 6 7 11 10 11 15 25 29 28 27 23 18 26 28 31 37 39 39 38 35 31 28 21 17 16 19 20 21 21 20 24 20 27 41 41 37 36 43 42 43 42 44
5 5 4 4 3 1 4 4 0 4 7 12 19 24 32 33 31 25 19 22 30 32 38 41 41 39 36 30 28 22 18 18 18 15 20 21 24 22 19 26 26 39 35 34 38 43 39 41 43
4 4 2 3 1 1 2 4 6 2 9 14 20 29 35 35 35 30 19 21 28 33 38 41 42 40 37 30 26 22 20 21 21 18 17 18 20 24 20 23 26 30 29 33 35 42 39 44 42
3 8 4 2 2 2 4 4 6 9 13 12 14 22 35 33 34 29 18 22 25 27 30 33 37 39 36 29 25 20 19 19 21 20 20 19 17 21 22 24 26 26 27 29 40 39 42 43 45
4 3 4 4 2 1 3 3 1 7 7 12 13 19 22 31 35 23 10 8 16 19 27 28 33 36 34 28 22 21 18 18 21 18 16 16 14 16 21 22 24 23 22 23 26 33 39 40 42
3 4 3 2 4 1 1 6 3 6 7 10 13 16 21 29 31 22 13 5 9 16 21 24 30 32 32 26 21 18 16 15 17 17 15 14 14 14 16 19 21 23 25 25 28 32 38 38 41

GFSSGP_850_spd_096.txt.gz
Wind_Speed
14 8 7 4 7 6 12 6 3 6 5 5 4 8 8 8 3 3 6 16 17 12 8 5 4 5 7 11 15 18 19 20 20 21 21 21 23 22 22 23 22 20 19 19 20 20 18 17 16
14 11 6 5 8 12 11 7 9 7 2 2 4 10 6 6 3 1 12 22 16 11 7 6 5 5 9 12 15 18 21 21 19 21 23 24 25 24 23 24 22 21 21 22 22 20 18 17 15
15 12 9 5 10 16 12 7 8 6 4 5 6 8 5 2 5 6 9 20 17 14 10 8 6 7 10 13 15 17 19 19 18 21 25 24 25 24 23 24 23 22 23 23 21 20 17 17 19
10 8 6 10 17 12 11 4 5 3 4 4 7 7 4 6 5 9 14 18 16 12 9 7 7 7 9 13 15 17 18 17 16 17 20 22 22 21 20 20 21 22 21 21 19 17 16 21 21
11 8 11 15 21 19 10 5 7 7 4 4 5 13 5 4 8 10 15 18 15 12 10 8 7 8 10 12 16 17 17 17 18 21 22 23 23 22 22 21 19 18 18 18 18 16 17 21 21
13 10 12 18 20 12 13 16 14 15 12 9 9 15 13 8 10 12 19 18 17 13 11 10 8 8 9 10 16 17 17 17 18 20 23 25 25 25 24 22 21 20 18 18 15 13 18 21 21
18 12 19 20 18 13 11 12 13 14 13 9 7 8 8 6 10 13 18 20 19 17 14 12 9 8 10 11 15 16 19 18 19 21 24 27 27 28 27 23 14 15 19 15 16 17 19 22 21
19 12 22 20 16 22 10 11 6 14 9 2 5 5 8 1 9 13 18 22 21 19 17 14 11 9 10 12 16 17 17 19 20 21 23 24 26 28 27 24 15 21 20 20 16 19 21 23 23
16 11 17 22 17 13 8 12 12 8 10 5 5 3 1 6 8 14 16 21 23 23 20 16 13 11 12 14 16 17 18 19 21 21 23 25 24 25 26 29 21 25 16 19 24 22 24 24 23
17 17 25 19 13 11 9 12 8 9 15 12 8 3 2 4 5 14 18 21 26 25 23 18 15 13 14 18 18 18 19 21 22 23 26 26 25 26 24 25 23 19 21 22 23 23 23 24 25
17 26 17 17 18 20 17 17 18 15 15 17 14 6 6 7 8 13 18 22 23 23 25 21 18 15 15 18 19 22 23 24 26 26 27 26 24 25 29 25 23 26 23 23 25 26 23 26 25
21 23 26 21 22 17 17 20 19 20 23 22 14 17 15 15 14 15 17 21 22 22 26 24 20 18 16 15 21 22 25 26 27 30 30 30 31 29 29 28 19 20 24 24 25 27 25 26 24
24 21 20 23 27 24 21 21 21 23 21 26 22 20 19 19 18 16 17 18 21 23 26 27 23 20 19 19 21 23 24 26 26 31 31 32 33 32 32 25 20 25 28 27 26 28 29 28 21
10 26 26 24 24 24 20 22 24 16 24 27 20 19 19 19 19 17 17 19 23 23 23 27 27 22 22 21 23 23 23 24 26 30 31 33 32 31 30 28 26 29 29 27 30 32 28 25 19
22 20 17 16 17 17 15 24 26 28 31 27 27 24 21 21 20 21 19 19 21 23 23 26 29 25 24 22 22 24 24 23 22 26 27 32 35 33 31 31 28 29 30 28 28 32 26 22 19
17 19 19 19 21 25 15 24 7 7 13 17 18 18 19 19 19 20 19 19 19 22 24 25 30 29 26 25 22 23 23 27 25 25 24 25 28 29 26 28 31 32 32 32 32 34 26 23 20
15 16 20 16 12 17 24 14 16 8 12 14 12 11 12 14 16 17 16 16 17 20 23 26 30 32 29 27 24 22 23 26 25 25 27 27 28 29 28 30 32 33 36 34 36 32 33 24 22
16 15 17 12 10 16 19 19 13 10 9 10 10 12 15 17 18 21 20 18 17 18 22 25 28 33 32 29 26 24 25 26 27 25 24 25 26 29 31 31 32 38 39 41 36 39 36 27 23
17 13 17 11 9 11 16 17 15 14 16 17 19 22 24 26 26 27 27 24 22 21 22 26 29 34 35 33 30 28 27 26 27 25 23 23 23 28 29 30 35 38 38 41 38 39 33 29 26
9 16 20 14 9 13 16 20 18 16 14 22 24 25 26 27 26 27 27 26 22 22 25 26 32 37 38 35 32 29 26 27 24 24 23 24 23 20 24 35 44 44 38 39 45 38 32 33 29
21 22 18 15 12 13 16 20 23 19 21 23 17 13 13 16 21 25 27 26 24 23 26 27 32 38 38 34 32 28 21 22 21 22 21 23 17 18 11 27 39 42 45 44 46 40 34 34 30
20 18 14 12 10 12 2 5 3 7 9 7 2 5 10 13 16 19 24 25 26 25 22 25 33 38 38 37 32 29 23 20 20 20 20 21 14 15 12 25 44 43 40 44 43 43 36 35 29
18 11 12 15 13 13 14 6 3 3 4 6 3 8 11 15 16 17 18 22 23 22 22 23 33 35 38 37 32 27 19 15 15 16 20 21 17 19 16 20 21 24 31 36 37 41 37 34 32
9 11 9 7 7 9 15 11 5 5 2 4 5 8 13 17 19 19 18 16 20 22 23 26 34 35 38 37 34 27 21 16 17 20 20 22 21 22 23 25 27 27 30 32 34 37 41 37 34
15 16 7 7 6 8 7 6 6 2 2 3 7 10 14 19 21 21 20 17 16 22 25 28 34 36 39 38 34 29 22 19 17 19 22 24 25 22 24 32 34 30 29 30 29 30 37 37 33
18 17 5 8 6 6 8 6 6 4 2 6 10 12 17 23 22 23 23 20 16 22 25 30 34 35 38 38 34 29 21 20 17 18 20 21 23 21 22 29 33 37 37 35 34 34 34 39 41
14 12 2 0 2 2 6 5 10 5 5 10 14 18 20 26 27 24 26 21 17 21 26 29 30 28 34 34 34 29 25 20 17 18 17 19 21 23 20 18 24 36 39 39 37 34 37 45 42
12 12 6 4 5 6 6 2 4 5 10 14 18 21 24 26 27 26 25 23 12 17 22 26 30 30 31 33 31 28 24 23 19 18 20 20 18 20 19 19 20 27 33 41 35 37 35 42 41
9 9 3 3 3 1 1 5 6 8 11 15 16 18 23 26 25 25 24 17 3 11 19 24 28 31 31 31 29 26 24 25 22 18 20 19 18 19 19 21 21 22 25 31 31 29 34 39 38
5 6 6 4 4 2 2 1 6 8 12 17 16 15 18 20 24 23 25 20 2 9 15 18 22 29 28 28 26 22 21 23 25 23 22 19 20 17 19 18 20 19 23 25 25 27 34 36 29

GFSSGP_850_spd_102.txt.gz
Wind_Speed
11 8 4 9 6 8 16 19 20 17 4 3 6 4 8 13 10 6 17 13 15 14 11 8 6 4 2 2 5 8 9 10 12 13 12 12 11 10 10 11 13 14 13 12 13 14 14 13 12
11 8 10 11 9 13 14 21 19 8 3 10 6 7 5 4 16 17 16 15 11 14 11 6 5 3 1 4 5 7 8 10 12 13 13 12 12 12 12 13 13 15 14 13 14 13 14 12 11
10 11 13 6 13 16 16 22 13 5 12 5 2 8 7 1 10 13 18 19 17 11 10 8 4 2 3 4 6 7 9 11 13 14 14 13 12 14 13 13 14 14 13 11 13 13 11 12 11
10 7 13 12 21 21 26 22 23 6 9 6 9 8 11 10 12 12 19 18 18 13 9 7 4 3 4 4 5 7 9 11 12 13 14 13 13 14 15 14 13 13 7 10 9 9 9 10 9
14 11 11 16 23 25 23 26 22 8 8 10 13 15 9 10 10 16 19 19 18 16 11 8 5 3 3 4 5 7 10 10 11 12 13 14 15 16 16 16 16 15 11 8 7 7 8 6 8
14 17 15 17 25 26 21 26 31 11 13 10 4 10 10 15 16 16 18 19 18 17 12 9 8 5 3 3 4 8 11 12 12 12 13 15 16 15 15 16 17 15 14 17 11 13 5 5 9
19 13 20 23 23 25 23 31 22 13 15 16 15 12 14 17 18 18 19 19 18 18 13 11 10 7 4 3 4 8 11 13 14 13 12 14 16 15 16 17 17 14 14 9 12 10 7 17 14
27 14 26 23 21 26 26 29 5 9 17 19 14 5 4 7 18 21 19 20 21 20 16 13 11 8 5 4 5 8 11 14 14 13 13 14 15 16 18 17 16 14 12 11 11 7 12 17 16
29 17 21 28 26 24 31 21 10 10 15 23 22 14 4 8 12 17 20 20 18 17 18 16 13 9 7 6 6 8 11 14 14 14 15 14 16 19 19 18 18 16 15 11 8 10 14 17 17
22 17 37 24 23 22 28 27 17 11 18 21 18 15 10 8 11 17 22 24 21 18 17 18 16 13 9 9 7 8 12 13 15 16 16 16 17 19 20 23 21 21 15 13 14 11 13 18 21
31 28 25 29 35 34 28 25 15 14 18 17 19 21 15 9 13 18 23 24 24 21 19 19 17 16 14 11 7 9 10 13 15 16 17 19 17 17 20 23 25 24 17 18 15 15 14 18 21
29 36 33 36 37 33 24 32 23 22 18 17 21 25 22 20 18 18 21 25 25 24 23 20 18 19 16 15 12 9 8 12 15 16 17 19 19 20 23 24 22 24 21 18 18 18 16 23 20
30 32 37 40 38 36 36 26 21 24 21 23 22 21 20 23 19 20 21 22 27 30 27 22 23 21 21 20 16 16 17 16 16 17 20 19 22 20 21 22 19 18 20 20 20 20 20 21 25
34 32 33 37 35 37 27 24 27 28 25 25 23 27 28 23 24 22 24 24 25 26 32 24 25 22 25 25 21 17 17 18 20 21 22 22 21 20 21 24 23 22 20 20 20 23 21 22 25
33 29 29 28 35 29 32 28 31 27 29 30 31 28 30 31 31 31 29 27 26 24 30 28 25 26 26 25 21 20 17 15 17 19 24 25 25 26 22 21 24 22 19 18 20 21 22 24 27
27 27 24 31 27 28 28 33 25 31 31 31 31 33 33 35 33 32 32 30 27 27 26 31 27 28 25 28 25 25 18 18 20 18 17 24 27 31 30 28 27 24 23 22 21 23 23 26 30
25 21 31 31 26 24 21 35 24 35 34 35 36 33 32 31 31 31 30 31 31 27 26 32 31 29 26 31 28 28 22 20 21 17 18 20 22 26 30 31 30 25 24 25 25 26 26 30 30
24 26 24 25 22 24 24 31 22 28 28 26 18 27 30 34 34 30 31 31 28 26 27 28 30 28 29 30 32 30 25 26 22 25 23 19 22 23 27 28 29 30 28 30 29 28 28 33 31
26 27 26 20 12 15 14 28 25 25 25 21 17 22 18 20 21 20 21 28 28 25 25 20 29 31 32 28 36 34 35 32 27 25 22 25 22 19 21 25 26 28 30 30 33 32 33 33 33
30 26 24 16 19 17 11 20 25 18 21 23 19 16 22 13 11 14 18 21 22 22 28 21 22 31 29 33 30 36 33 32 28 25 24 24 20 18 21 23 26 26 29 29 35 36 34 35 36
27 28 19 17 9 11 9 15 27 22 17 21 28 27 25 18 20 23 16 11 10 16 21 31 30 28 30 36 31 31 27 26 26 24 22 23 23 23 26 22 23 25 28 32 37 37 39 40 40
24 26 15 17 5 3 4 6 16 18 15 18 16 14 15 13 0 3 7 12 15 19 19 18 31 27 33 37 36 32 30 32 31 28 24 24 25 27 26 24 23 26 29 39 38 37 35 44 42
21 17 19 13 9 7 16 4 10 19 23 18 17 11 13 7 6 6 9 12 16 17 20 23 25 30 33 40 39 30 30 27 24 23 19 23 26 24 24 25 25 27 29 37 35 41 43 46 41
10 12 3 9 7 6 18 15 11 9 10 13 13 13 10 9 7 8 11 15 16 19 19 22 24 32 34 41 38 31 33 26 23 21 25 29 23 23 21 20 22 26 33 35 35 40 42 45 40
10 13 5 5 7 8 14 14 12 5 9 16 13 9 19 18 15 13 16 20 24 22 25 19 21 31 33 39 36 33 34 29 24 26 29 27 24 22 22 17 18 17 21 34 41 38 39 51 44
17 15 6 7 9 11 16 9 9 4 14 16 18 22 17 15 16 16 17 19 22 22 23 26 17 30 34 37 34 33 32 31 26 29 25 26 19 20 19 19 15 14 17 23 34 35 43 39 38
17 13 8 3 7 2 8 8 13 18 11 18 19 18 17 17 20 21 20 21 21 21 23 26 25 23 35 35 30 32 30 30 29 24 24 23 20 21 19 20 18 15 19 22 29 31 39 37 33
10 13 3 3 2 0 9 13 8 8 11 17 16 18 22 23 22 20 21 24 22 21 20 21 24 30 33 33 24 37 31 30 27 24 27 22 17 21 22 21 24 23 19 24 25 32 34 35 36
12 5 4 5 8 0 3 4 4 3 11 16 17 25 21 20 19 20 22 26 22 19 17 10 10 22 22 21 21 36 29 30 26 26 22 20 16 18 21 24 27 29 27 25 27 29 31 26 35
7 7 13 4 1 5 3 5 8 13 15 19 19 20 20 19 21 22 23 27 24 20 16 11 5 11 15 15 27 34 22 28 26 22 22 20 18 16 16 21 24 24 31 31 34 33 30 29 34

GFSSGP_850_spd_105.txt.gz
Wind_Speed
6 6 3 4 2 2 5 9 16 19 7 6 10 10 4 5 4 4 26 17 13 19 17 14 11 9 6 3 1 4 7 10 12 12 10 9 8 7 9 9 11 11 11 11 12 13 12 10 9
8 9 3 3 3 2 6 18 19 15 6 10 11 8 9 3 19 24 23 15 15 19 16 13 11 9 5 1 1 3 6 10 13 12 11 9 8 7 8 9 10 10 9 8 9 10 11 10 9
9 12 4 4 4 7 6 12 14 15 2 6 4 7 4 8 23 23 21 19 21 18 15 12 9 9 5 1 2 3 6 11 13 13 11 10 9 8 9 9 9 10 10 8 6 7 9 9 9
7 6 6 3 10 9 18 19 16 13 5 7 5 3 7 17 27 24 24 18 20 19 16 13 9 7 3 0 2 4 7 10 13 13 12 10 9 9 10 11 15 14 12 14 10 7 8 7 8
10 7 3 5 11 13 18 27 27 11 14 10 10 3 9 16 21 29 26 20 14 17 16 13 9 6 2 1 1 4 8 11 12 12 11 10 10 10 12 14 15 17 12 8 10 12 8 7 9
5 6 2 12 17 14 14 30 29 17 20 7 7 4 6 19 27 30 26 20 14 16 16 14 11 8 4 1 3 6 9 12 13 13 12 12 12 12 14 15 16 18 12 12 21 11 10 8 10
8 2 8 12 12 13 16 30 11 23 16 8 8 6 9 25 26 28 27 22 18 17 17 15 13 10 6 2 4 7 10 12 13 13 13 13 14 14 15 16 16 13 14 13 12 10 12 18 16
19 4 16 18 14 21 21 33 28 23 13 17 7 2 5 24 29 29 28 25 22 19 19 17 15 12 8 4 5 8 11 12 13 13 13 13 13 15 16 17 16 13 14 13 10 8 6 18 21
22 9 19 31 17 16 18 14 37 18 7 7 9 5 19 25 26 29 28 24 22 20 20 19 17 14 10 7 7 8 11 13 14 14 13 13 14 15 16 17 15 14 15 16 13 6 10 16 19
9 7 39 6 14 17 23 24 33 9 8 9 11 12 22 27 25 26 29 28 26 24 22 21 19 16 14 10 7 8 11 13 14 15 15 15 15 15 17 16 16 16 16 15 14 13 14 14 20
17 24 26 23 25 31 31 30 34 11 7 15 19 21 25 24 24 23 26 28 26 24 22 23 20 18 17 13 9 9 11 14 15 16 16 17 16 17 19 20 20 21 20 17 17 18 16 17 25
15 36 30 33 33 36 26 33 19 19 20 19 21 24 26 26 25 25 25 28 28 24 24 23 21 21 19 16 13 9 11 14 16 17 17 18 18 19 20 22 23 24 24 21 20 18 16 15 19
22 25 33 39 32 39 43 33 28 31 32 20 18 19 28 28 29 25 22 27 31 30 25 23 22 23 23 21 17 13 11 12 14 19 18 18 19 20 21 22 25 25 24 23 22 20 18 17 20
16 25 30 34 32 38 28 29 28 42 30 25 18 13 20 25 27 24 25 27 30 36 32 25 26 23 25 24 21 17 14 13 15 17 18 18 18 21 21 22 23 22 22 23 23 20 20 21 22
27 23 22 22 34 28 29 25 29 38 27 23 21 21 20 19 26 30 28 28 28 32 38 35 29 25 25 27 25 22 18 19 17 17 18 21 22 22 22 22 25 25 22 20 21 22 22 19 21
20 20 19 24 22 24 21 26 28 26 28 30 31 24 28 31 26 27 31 29 30 29 35 38 35 29 26 26 28 26 23 20 19 18 18 21 24 25 23 22 23 23 23 22 23 21 24 19 23
12 19 21 23 20 15 16 25 19 27 24 22 30 33 32 34 36 37 34 32 32 34 33 35 36 35 30 27 28 29 25 22 21 19 17 17 24 27 27 26 25 22 25 26 26 25 25 25 27
18 14 20 22 16 18 22 25 22 12 24 31 29 31 35 39 40 38 38 40 34 32 33 34 37 36 34 29 29 29 26 24 23 22 21 17 20 27 30 32 32 28 30 27 26 25 23 25 29
18 21 19 15 24 5 5 10 8 16 28 20 26 33 36 39 40 41 38 34 34 32 32 33 36 38 37 32 33 32 33 29 25 27 23 21 19 20 25 28 32 33 33 32 29 28 26 29 30
23 23 23 18 16 3 9 12 12 12 11 22 30 26 26 35 26 43 35 23 33 30 24 31 34 37 37 32 30 29 32 32 28 30 28 26 25 22 21 23 28 29 30 30 32 30 31 34 35
24 21 18 20 3 5 4 7 7 13 18 27 31 30 22 16 14 8 10 11 10 7 4 23 31 35 34 31 28 28 32 29 29 33 36 33 28 24 25 24 24 26 26 29 30 36 39 39 41
19 19 22 23 5 3 2 4 7 8 11 15 18 16 24 15 21 18 15 12 8 7 2 9 28 33 34 34 33 31 34 34 38 37 34 31 28 29 26 25 25 25 27 29 30 35 39 44 44
21 18 21 21 5 6 6 2 6 6 10 8 12 26 29 33 27 22 16 11 8 4 4 2 6 17 32 32 32 31 32 30 31 31 30 27 27 28 30 29 28 27 28 28 30 36 38 50 45
22 1 6 4 2 3 11 11 5 2 15 7 23 30 24 27 23 21 18 11 9 8 9 10 11 11 7 36 36 35 34 30 28 29 27 30 30 32 33 30 28 27 27 29 30 34 46 42 45
12 9 1 3 4 4 13 11 7 8 16 17 22 27 30 28 25 23 22 19 18 20 20 21 21 18 12 31 38 37 35 32 30 29 27 32 33 32 30 28 27 26 25 27 25 43 33 38 38
5 7 5 5 3 3 9 6 3 13 16 31 30 30 31 30 27 24 23 23 23 23 24 27 33 29 14 24 38 36 34 31 30 28 28 29 29 29 27 25 22 20 20 20 25 38 35 34 42
6 6 1 3 2 2 3 2 2 17 18 17 25 30 30 30 27 26 27 24 23 21 22 24 27 38 29 24 38 34 31 29 33 29 28 29 27 26 24 24 22 18 15 18 16 32 35 44 40
7 2 4 3 1 4 5 6 3 13 14 12 19 24 27 31 35 33 29 25 22 20 21 16 15 27 24 25 36 33 31 31 32 33 33 32 27 23 22 24 22 19 14 16 16 26 31 41 42
4 3 5 2 2 4 4 3 3 7 14 15 18 26 30 31 31 30 29 27 25 22 21 15 14 7 13 20 30 32 30 33 31 33 33 29 25 22 24 24 23 19 16 13 16 23 34 36 35
7 5 1 2 3 2 2 4 16 16 17 20 23 25 24 24 28 32 32 31 32 30 27 21 13 7 13 17 20 21 21 34 30 31 31 26 22 20 22 25 24 22 21 16 23 25 24 28 31

GFSSGP_850_spd_108.txt.gz
Wind_Speed
6 7 6 3 3 5 3 9 5 12 8 6 10 3 5 5 5 5 28 22 21 20 21 19 16 13 11 9 8 10 13 15 15 15 13 13 11 11 11 11 10 11 13 13 13 11 9 8 6
5 7 5 2 4 3 6 6 16 12 14 29 10 1 2 1 14 23 32 26 21 19 19 19 16 13 10 6 5 8 11 15 16 16 15 14 12 12 12 12 12 13 13 13 12 11 10 7 6
6 9 3 4 5 7 7 8 10 3 15 28 8 2 5 10 14 34 30 26 24 21 19 17 16 13 8 5 4 7 11 15 17 17 16 15 14 13 13 13 16 15 16 15 15 13 12 8 6
7 6 4 3 10 9 9 9 2 10 22 21 12 4 2 15 32 29 29 24 27 23 20 17 15 12 8 5 6 8 11 14 17 18 17 16 14 14 14 16 15 14 13 14 15 16 13 12 10
8 3 2 5 10 8 7 19 14 10 9 22 21 5 4 19 25 33 30 28 29 25 22 18 15 12 8 5 5 9 11 15 18 19 18 17 15 15 16 15 15 14 13 13 15 16 14 12 13
4 2 2 9 20 6 7 28 15 9 21 27 9 7 10 20 28 32 29 28 28 26 23 19 16 13 9 5 5 9 12 15 18 19 18 17 16 16 15 15 17 19 18 8 12 10 14 10 13
3 2 7 16 5 5 8 23 12 14 12 15 18 7 9 32 33 33 29 26 26 24 22 20 17 15 11 6 6 8 11 14 17 19 19 18 17 17 16 17 17 16 14 12 12 15 11 13 14
9 3 7 8 10 10 12 26 25 17 22 34 28 8 9 38 41 37 31 27 23 23 20 20 19 16 12 8 7 9 11 14 16 18 18 18 18 17 18 17 17 16 15 15 18 13 12 15 19
7 3 17 12 8 7 17 13 32 15 24 28 6 8 21 42 42 38 35 28 24 22 21 21 21 18 14 11 9 10 12 14 16 17 17 18 20 20 18 17 17 16 17 18 13 13 9 13 18
7 6 35 7 10 8 18 26 32 14 19 21 10 9 23 45 44 42 39 33 28 25 24 22 22 20 18 14 12 11 13 15 16 17 18 18 20 20 19 18 17 16 17 18 16 12 14 16 19
8 23 13 19 20 23 20 22 29 16 21 19 20 21 33 46 45 43 38 32 28 25 23 23 23 22 21 18 14 13 15 17 18 18 19 19 21 22 21 21 21 20 19 20 19 15 17 19 18
9 27 21 29 25 23 19 27 27 18 36 25 33 17 35 49 47 42 38 34 29 24 21 24 25 25 23 20 17 14 15 17 19 19 20 21 23 23 23 24 24 23 22 22 21 18 16 17 18
15 21 27 31 26 34 30 29 27 36 50 26 36 30 37 46 45 40 35 34 31 29 25 23 26 27 26 24 20 18 17 17 18 20 21 22 22 23 23 23 24 23 23 23 22 20 18 18 20
10 19 25 30 37 34 22 24 25 49 35 24 30 29 34 42 43 40 39 36 36 31 28 24 27 26 26 26 24 21 19 17 18 19 21 22 23 23 23 24 25 25 24 23 22 22 20 20 21
15 14 21 26 26 13 22 21 27 42 30 29 35 32 25 40 38 40 37 35 30 30 27 31 28 28 28 27 27 25 21 20 19 18 21 22 23 24 23 24 25 24 23 24 23 24 23 22 22
12 10 14 19 15 18 12 25 29 38 25 33 32 36 28 21 29 34 30 28 29 28 30 32 34 34 31 28 28 28 25 23 19 18 21 23 23 23 24 25 25 24 25 25 24 25 24 24 25
13 15 19 26 14 12 13 18 29 32 28 30 30 33 36 33 25 29 31 28 28 32 33 30 36 41 36 32 30 30 28 26 22 21 21 21 24 25 26 25 23 23 26 28 25 24 24 24 24
19 11 16 16 22 14 18 19 27 25 23 25 29 28 23 31 35 32 31 30 30 35 36 35 32 40 43 38 36 33 30 28 25 25 24 22 23 27 28 27 25 24 26 27 26 26 26 25 23
16 20 18 19 23 18 16 22 16 7 17 23 23 22 27 35 37 33 37 37 35 37 38 40 37 38 48 45 41 39 37 34 32 29 27 24 22 26 29 29 28 28 29 30 29 28 27 29 27
20 22 22 20 24 16 13 11 11 9 8 9 12 18 19 22 35 40 40 43 41 38 39 42 44 39 46 48 43 40 39 35 31 29 28 26 25 25 27 29 31 33 33 33 32 32 31 30 30
22 21 19 17 22 17 8 13 13 14 10 15 18 21 24 21 4 3 7 9 12 9 19 35 41 41 46 48 46 42 38 32 30 30 32 31 29 27 27 27 29 31 34 37 38 38 36 35 33
19 12 14 21 19 11 3 7 5 5 8 10 13 5 16 21 26 26 20 17 18 19 15 18 27 34 40 43 45 44 40 38 35 32 32 34 32 30 29 27 27 27 29 33 36 38 39 38 36
21 15 21 18 15 6 6 3 6 6 3 6 2 25 25 18 23 23 22 18 18 15 16 15 13 20 26 36 41 41 40 37 33 31 32 33 34 34 33 31 29 28 28 29 32 36 37 39 40
5 3 13 12 6 9 12 7 5 2 3 11 14 22 27 25 19 17 16 15 16 15 11 7 8 10 9 25 32 37 38 38 34 30 29 32 32 37 35 33 31 30 30 30 31 35 37 38 42
5 2 3 2 2 4 7 8 8 5 8 16 14 25 26 26 28 23 20 17 17 15 14 12 8 9 11 14 32 36 39 39 34 33 29 29 28 34 37 35 35 33 31 31 30 35 36 39 44
2 9 4 4 3 3 7 6 1 17 21 26 26 26 29 32 32 30 25 21 19 18 18 19 19 16 19 18 24 40 41 43 41 35 31 28 26 28 32 33 34 29 30 28 33 35 34 33 39
4 6 6 3 4 3 4 5 14 17 20 19 22 31 31 29 32 33 27 24 23 20 19 21 23 24 21 22 24 35 42 43 42 36 33 28 24 25 27 28 28 28 28 27 31 32 29 33 40
10 1 2 2 1 2 4 3 4 7 16 18 16 23 29 31 36 38 32 27 24 22 20 19 18 20 21 13 24 25 37 38 37 36 32 31 26 23 24 25 26 27 26 24 23 26 29 36 30
4 2 3 1 3 1 3 4 9 12 10 16 13 21 24 24 32 36 35 30 26 22 22 23 18 15 9 6 12 15 27 30 30 31 31 33 30 24 24 24 23 25 25 22 24 26 22 28 33
3 3 1 3 0 3 3 3 5 10 10 19 19 17 19 26 27 31 35 38 38 31 26 27 22 20 11 3 8 18 17 26 30 32 33 36 33 27 23 23 23 25 23 20 22 23 22 22 32

GFSSGP_850_spd_111.txt.gz
Wind_Speed
7 4 4 2 2 4 4 8 3 4 5 5 17 11 9 2 4 5 16 32 28 24 24 22 20 19 18 16 15 16 17 17 17 17 16 16 15 15 14 14 14 14 14 14 13 13 12 11 11
3 6 5 2 4 3 6 5 10 9 10 18 19 11 5 5 4 10 27 26 24 25 23 22 20 19 17 15 13 14 16 17 18 18 18 17 16 15 15 15 15 16 16 15 14 12 11 11 10
5 7 4 4 4 6 6 3 5 4 11 12 10 5 5 4 8 29 27 27 29 25 22 21 21 20 17 14 11 13 15 17 19 19 19 18 17 16 15 16 16 16 16 15 13 12 11 10 10
7 5 2 3 10 7 8 4 4 8 19 6 4 9 9 8 17 25 31 28 28 24 23 22 22 19 16 12 10 12 14 17 20 20 20 19 18 17 17 16 15 13 13 12 13 13 12 12 11
8 2 2 5 7 6 8 11 6 3 8 22 19 12 9 11 24 28 34 31 30 27 25 22 22 18 15 11 9 11 13 18 20 20 20 19 18 18 16 15 14 14 12 12 14 15 13 12 13
5 3 1 8 14 4 4 22 6 8 14 24 14 10 5 14 25 34 32 33 30 28 26 23 21 17 14 10 9 12 14 17 20 21 21 20 19 18 16 16 16 16 15 14 13 12 11 12 12
4 3 6 8 4 3 4 12 6 14 14 15 17 10 11 18 25 35 33 32 31 29 28 25 22 18 14 11 10 11 14 17 20 21 21 21 19 17 17 16 17 18 18 11 13 12 14 12 11
4 2 5 7 11 15 9 20 19 14 13 20 12 6 7 26 31 38 35 35 34 31 27 25 22 19 16 12 11 12 14 16 19 21 21 20 19 18 18 17 18 19 18 11 12 18 11 13 12
4 3 17 6 4 6 7 4 4 11 22 26 14 21 29 25 42 42 38 37 35 32 28 25 24 21 17 14 13 14 15 16 19 20 20 21 20 19 19 19 20 20 17 15 22 13 13 13 14
6 5 8 8 6 8 12 19 16 8 20 19 28 28 26 30 48 45 42 40 39 36 31 28 25 23 20 17 15 15 16 18 19 20 21 22 21 21 20 19 19 18 18 19 23 18 13 14 17
8 21 7 11 19 27 13 9 13 7 25 10 16 12 10 24 45 46 44 43 40 36 33 31 28 26 23 20 18 17 17 18 19 20 21 21 21 22 21 20 20 20 21 22 21 20 15 14 18
11 20 10 19 29 22 5 11 6 20 42 23 26 30 26 22 29 48 46 43 40 37 33 31 28 27 25 22 20 19 19 19 20 21 22 23 23 24 23 23 23 23 23 24 23 21 17 17 18
16 15 27 27 29 25 28 22 18 38 53 29 26 30 33 27 35 45 47 44 41 35 32 29 28 29 28 27 24 22 21 21 20 22 22 23 24 24 25 25 25 25 24 24 25 23 19 20 18
11 25 27 29 27 23 19 25 21 54 37 33 28 32 35 31 30 48 47 46 42 35 31 29 27 28 29 29 27 25 23 22 22 23 23 23 23 24 25 25 25 26 25 24 23 22 21 19 18
17 16 21 23 16 10 19 28 24 33 34 36 30 31 36 30 30 46 51 50 44 39 34 29 28 26 25 29 29 28 24 23 23 23 24 23 24 24 25 24 25 26 25 23 23 22 22 22 19
16 11 19 18 9 16 14 28 26 29 25 33 35 32 37 40 35 41 51 49 45 40 36 33 30 27 25 28 30 30 27 26 24 24 24 24 24 25 25 25 25 25 25 25 23 23 24 25 23
7 18 21 29 20 17 14 25 27 23 23 30 36 28 32 35 35 30 44 45 46 41 38 37 33 29 29 28 30 30 29 28 27 25 24 24 24 26 26 26 25 26 26 26 25 24 25 26 25
13 11 12 17 18 18 23 23 20 31 25 25 30 31 33 36 39 35 28 30 45 44 42 40 33 32 32 34 33 33 32 30 28 28 26 25 26 26 27 27 26 26 28 28 29 27 25 25 24
11 14 21 20 18 23 21 22 20 26 23 23 22 29 28 35 36 27 21 30 39 43 43 41 40 38 39 40 39 37 37 35 33 32 29 26 25 25 27 27 27 28 29 30 30 29 28 28 24
16 21 26 24 17 12 19 19 23 25 14 25 25 26 25 18 6 6 14 22 31 32 38 41 42 40 40 41 40 42 42 39 36 34 31 28 27 27 27 28 30 30 31 31 31 32 31 31 28
20 18 19 21 20 13 14 21 19 22 17 27 22 26 13 5 7 11 11 14 16 16 23 31 37 40 43 45 46 47 43 40 37 34 33 33 31 31 29 28 29 31 33 33 33 33 35 34 32
20 14 17 12 8 12 1 11 14 15 16 10 7 15 19 20 19 18 18 19 15 10 10 19 24 30 36 39 42 45 47 45 43 40 37 34 35 34 31 30 29 30 33 36 35 35 36 36 35
18 13 16 19 15 8 11 7 6 6 6 7 11 20 20 23 23 23 20 18 22 16 12 14 18 21 25 30 34 38 44 42 40 40 36 33 31 33 34 34 32 30 32 33 35 37 37 38 39
11 5 12 14 5 7 13 9 5 3 2 12 13 21 18 17 19 23 18 16 20 15 13 14 15 17 21 28 32 34 37 38 37 35 36 33 32 32 33 36 36 33 32 32 33 33 35 36 39
3 2 3 3 1 5 7 9 7 15 15 15 12 16 16 16 21 24 22 20 18 14 11 9 8 9 10 16 26 32 36 38 36 37 37 35 34 34 32 35 37 36 35 32 31 32 33 35 36
5 6 4 3 1 3 9 4 4 15 16 20 20 15 16 22 26 23 24 22 22 17 12 8 5 1 5 10 13 25 35 39 40 42 42 41 36 33 31 33 35 35 35 33 32 33 33 32 35
2 4 6 7 5 2 2 4 11 11 12 15 18 11 20 25 25 29 27 26 25 22 18 14 9 8 9 12 17 22 24 35 40 41 42 40 38 34 32 28 28 33 34 34 35 34 32 31 36
4 3 3 1 3 4 1 6 6 11 11 8 13 14 17 26 28 31 37 34 30 25 21 17 14 12 9 11 15 25 31 32 37 41 43 42 39 35 32 28 27 30 32 34 34 32 32 30 34
4 4 4 4 3 2 2 3 6 7 6 9 7 19 30 31 37 39 38 37 35 30 26 20 19 17 9 7 6 12 22 26 26 35 38 36 36 34 32 26 26 28 29 32 33 29 28 25 24
2 8 4 2 1 2 3 4 7 8 8 12 17 26 35 30 34 37 37 35 38 36 32 27 22 20 17 11 5 3 10 14 22 26 30 29 32 32 31 29 26 27 27 30 27 27 23 24 24

GFSSGP_850_spd_114.txt.gz
Wind_Speed
6 5 5 4 3 5 4 8 3 3 3 3 7 6 7 5 5 5 5 24 28 26 28 27 26 25 24 23 22 20 18 17 16 15 15 16 17 18 17 16 15 14 13 14 14 13 12 12 12
5 5 6 4 5 3 5 4 4 9 12 22 19 6 2 5 10 6 14 30 26 23 26 27 26 24 22 22 21 20 18 18 17 16 17 17 17 17 16 16 15 15 15 15 14 13 12 12 11
5 8 4 4 5 7 6 6 7 5 10 15 9 7 8 3 7 6 25 31 28 27 26 26 24 22 21 20 20 19 18 18 18 18 18 19 19 18 17 16 15 15 16 15 13 12 12 11 10
6 5 2 3 8 7 8 3 2 8 16 3 7 7 15 8 9 16 28 28 28 29 27 26 24 23 21 19 19 19 18 18 19 20 20 20 19 18 17 15 14 14 14 13 13 13 13 12 12
7 3 2 3 6 5 5 5 5 5 8 10 13 9 9 16 16 18 30 29 30 30 27 25 24 23 20 19 18 18 17 18 20 20 20 20 19 18 16 14 14 14 13 13 14 14 13 12 12
2 1 0 6 5 4 4 13 5 7 10 22 7 9 7 25 20 22 31 31 32 30 28 26 26 24 21 18 17 17 17 18 20 21 21 21 19 17 16 15 14 14 14 13 14 14 13 11 11
3 3 5 2 3 1 3 10 4 5 8 11 6 4 9 16 18 22 34 34 33 31 30 29 28 25 21 19 17 17 17 18 20 21 22 21 19 17 16 15 15 16 15 14 14 13 11 11 11
3 3 1 3 1 6 8 16 14 16 9 19 11 4 5 24 36 22 36 36 34 32 30 30 31 27 23 20 18 17 18 19 20 21 22 21 19 17 16 16 16 17 17 15 15 11 11 11 11
3 2 2 5 4 1 3 4 10 10 13 20 16 13 25 30 29 22 38 38 36 35 33 31 30 27 23 20 19 19 19 19 20 21 22 21 20 19 18 18 18 18 19 15 14 14 12 10 11
5 3 6 8 5 5 3 9 21 12 23 5 20 23 9 18 18 25 42 43 41 39 37 34 32 28 25 21 21 20 21 21 22 23 24 22 20 19 19 18 19 21 19 14 15 19 13 12 13
4 7 3 8 15 11 3 12 19 18 23 7 16 20 27 26 23 25 41 43 48 43 39 37 34 31 27 24 22 21 21 21 21 23 23 22 21 20 20 20 21 22 21 18 21 19 15 13 14
6 7 8 7 20 17 8 15 13 28 25 31 34 37 42 37 22 22 39 41 41 44 41 39 35 31 28 25 23 22 21 21 22 23 23 23 23 22 21 22 22 23 22 21 22 20 17 14 13
10 6 15 13 21 20 23 15 22 36 34 37 39 39 42 37 35 27 27 40 39 41 44 39 35 32 29 27 25 23 22 21 21 22 23 23 24 23 23 23 23 23 23 22 22 21 19 16 15
7 21 22 13 17 15 12 13 15 19 24 34 35 33 35 34 37 32 32 36 43 42 43 40 35 32 31 30 27 24 22 21 22 22 22 23 23 23 23 24 23 23 24 22 23 21 20 17 16
18 12 18 16 6 7 16 23 11 22 26 31 35 39 37 42 36 37 34 35 39 48 43 41 36 34 32 31 28 27 24 23 23 23 22 23 23 23 24 23 23 23 23 23 23 24 23 20 20
5 6 13 3 4 17 9 30 24 27 32 26 31 38 36 41 38 38 36 35 36 50 47 44 38 33 30 31 30 30 27 25 25 24 23 23 23 24 24 24 23 23 22 24 24 25 25 24 24
3 12 14 24 7 9 8 15 23 22 29 31 32 41 36 36 39 36 39 37 37 44 52 48 41 35 32 31 31 30 29 28 27 26 25 24 24 25 25 25 24 23 23 25 25 25 25 25 25
10 7 10 15 22 17 18 20 18 34 24 28 29 31 38 35 38 37 38 32 33 42 54 50 43 38 36 36 33 33 31 30 29 27 28 26 26 26 26 26 25 25 26 27 27 27 26 25 24
13 11 15 20 22 20 25 20 18 19 29 25 29 33 38 36 36 32 37 35 32 43 48 51 48 43 42 41 38 36 36 33 32 30 30 29 27 27 27 27 27 27 28 28 27 26 27 27 25
11 15 19 20 19 15 19 24 20 19 24 29 34 36 35 31 24 21 19 22 24 32 44 46 49 47 45 43 41 39 38 36 34 33 33 31 28 27 28 28 28 28 29 30 30 30 30 30 29
15 12 19 22 22 18 16 21 17 23 21 31 33 36 19 16 13 8 8 12 19 21 27 39 44 43 42 44 42 42 38 36 37 37 33 32 32 30 28 28 28 29 30 31 30 30 33 33 32
12 13 16 19 13 9 2 13 19 16 20 11 13 17 16 13 12 10 12 10 11 14 19 24 36 37 33 36 40 42 42 42 41 40 37 35 35 30 29 30 29 30 32 34 32 30 30 30 32
11 11 13 18 16 13 17 6 6 11 9 9 9 17 21 18 16 14 15 13 13 13 15 17 24 30 32 30 33 36 38 40 39 38 39 36 31 31 30 31 32 31 32 35 33 32 32 33 33
9 8 14 11 2 5 15 7 3 7 8 8 9 17 19 17 16 15 14 15 17 14 15 16 17 25 25 26 29 31 33 35 38 38 35 34 32 31 32 33 34 34 33 33 33 34 34 34 34
3 3 4 3 1 5 5 4 7 13 12 12 10 17 18 18 19 18 16 17 18 17 16 12 13 18 21 23 29 30 31 32 33 36 35 27 37 37 36 33 34 33 35 35 34 34 34 34 35
6 5 3 5 3 6 3 4 5 10 16 20 19 18 20 20 18 18 19 21 20 18 16 13 10 10 11 16 23 29 30 33 33 34 36 37 35 35 33 32 31 32 31 33 37 36 36 33 33
1 3 5 5 8 7 5 3 6 14 16 17 20 21 23 19 17 20 22 24 23 23 20 16 11 9 6 7 12 17 26 32 32 35 37 38 38 35 35 32 30 32 32 32 35 36 35 34 33
5 1 2 2 5 4 4 4 5 13 14 14 14 22 25 17 14 22 31 30 27 25 22 18 15 11 8 3 3 8 16 23 29 34 38 38 38 37 37 35 32 31 32 32 34 36 37 35 33
2 3 3 3 2 2 3 3 7 10 11 12 12 18 22 16 15 29 36 37 34 29 25 21 19 15 11 7 5 6 11 16 23 29 32 35 38 41 39 36 33 31 31 30 34 35 35 35 34
3 4 4 3 2 2 2 3 5 10 9 10 14 19 20 20 21 39 40 39 39 36 31 29 24 21 17 14 8 6 4 8 11 18 22 24 29 33 34 32 31 31 31 30 33 34 34 35 33

GFSSGP_850_spd_117.txt.gz
Wind_Speed
5 4 5 4 3 1 2 5 1 6 3 4 11 10 14 12 5 4 7 11 18 31 30 28 26 25 24 23 22 19 17 16 16 15 19 22 23 22 20 18 16 15 15 15 14 14 13 12 13
3 5 6 3 2 4 5 4 10 6 4 13 10 6 4 4 9 16 22 15 23 30 30 29 27 26 25 24 21 19 18 17 16 15 17 20 22 21 20 18 17 15 14 15 14 14 13 13 13
4 7 3 2 3 8 4 2 4 3 8 8 4 4 6 7 13 9 15 22 32 31 29 28 26 26 25 23 21 20 19 18 17 17 18 19 19 19 18 17 16 15 15 15 14 13 13 13 12
5 4 2 3 8 5 5 3 1 9 3 1 4 9 11 5 16 21 14 26 29 29 29 27 26 26 25 23 22 21 21 19 19 18 19 19 19 18 17 16 15 14 14 14 14 13 14 13 11
5 1 3 1 4 5 6 10 13 12 10 8 8 7 10 15 20 18 11 24 27 29 28 27 26 26 24 22 22 21 21 20 20 20 20 19 19 18 16 16 14 14 14 14 14 14 14 12 11
3 2 3 6 5 4 6 17 11 13 12 15 6 8 5 12 13 21 14 24 29 29 29 28 26 25 24 22 21 21 22 21 20 21 21 20 19 18 17 15 15 14 15 14 14 13 13 12 11
1 1 4 2 4 5 6 10 9 12 12 16 12 9 12 13 21 25 19 24 30 29 30 29 28 27 24 22 21 21 22 22 21 21 20 20 18 18 16 16 15 15 14 14 13 13 13 11 11
2 2 3 3 8 12 7 7 11 9 13 7 5 3 5 26 32 28 24 19 30 32 32 32 30 28 26 24 22 21 21 21 21 21 21 20 19 18 17 16 16 15 15 14 13 13 11 10 10
3 4 6 7 9 7 7 6 13 15 16 15 14 13 23 21 21 23 21 19 32 36 35 34 32 30 27 25 24 23 21 22 22 21 21 21 21 19 18 18 17 17 16 16 14 13 11 10 10
4 3 4 4 6 6 11 11 18 12 22 20 23 18 10 19 23 26 27 22 36 39 40 37 34 32 30 27 25 25 24 24 25 25 24 24 22 20 20 19 18 18 18 16 15 13 14 10 11
0 5 2 3 6 10 11 19 15 19 21 19 20 34 35 35 30 24 25 23 33 38 40 38 35 35 32 30 28 27 27 26 26 26 25 24 24 22 22 21 21 21 22 20 15 17 17 13 11
6 7 4 6 11 11 15 16 16 19 26 32 32 35 36 34 39 31 27 28 25 40 38 39 38 37 35 32 29 27 28 28 26 26 27 26 26 24 23 24 24 24 26 22 18 20 17 14 11
10 9 8 7 23 25 21 23 23 23 25 17 31 30 32 33 29 32 29 28 29 36 40 42 40 39 37 34 31 28 28 29 27 25 26 27 26 25 24 24 26 26 26 23 20 22 20 15 13
5 16 21 17 19 20 21 24 10 16 23 17 20 32 33 31 27 33 33 28 29 31 42 43 43 41 39 36 33 30 27 27 27 26 24 26 26 25 24 25 26 26 25 23 21 22 23 17 15
13 19 24 22 18 10 11 27 17 25 20 28 29 31 39 36 30 28 35 33 31 31 32 44 45 43 41 39 36 33 29 28 28 28 25 25 25 25 24 24 25 26 25 23 22 21 22 21 18
11 13 10 6 14 20 10 32 18 24 19 27 34 33 36 45 39 36 32 34 34 29 31 35 45 47 44 42 39 34 31 29 30 29 27 24 24 24 24 24 24 25 24 24 24 23 23 23 21
2 13 19 23 7 15 6 21 30 35 38 37 33 33 31 37 41 34 33 35 32 30 35 35 43 49 47 44 40 34 33 32 32 30 28 25 24 25 25 25 24 23 23 25 26 25 25 24 23
11 17 20 23 16 19 23 26 28 41 36 37 36 36 35 37 46 34 32 38 38 33 36 38 37 49 49 46 41 37 36 35 34 31 30 28 26 25 26 26 25 24 24 24 26 27 26 25 24
15 17 24 28 25 23 23 23 28 32 38 33 38 37 37 38 39 33 34 38 37 33 34 35 40 47 50 49 45 41 40 38 36 34 32 30 28 26 26 27 27 26 26 25 25 27 27 26 25
14 17 24 25 16 13 25 29 26 27 29 38 36 36 37 40 41 30 31 32 33 30 31 30 36 41 50 48 47 42 35 36 36 36 35 33 30 28 27 27 28 28 27 27 28 29 29 27 27
14 14 18 19 24 19 22 24 21 21 26 33 27 23 24 15 19 11 13 17 20 21 28 35 36 39 45 47 43 37 34 36 37 38 37 35 32 31 30 29 28 28 29 30 31 30 31 28 28
6 9 13 16 12 11 9 13 22 18 16 14 15 14 12 9 8 4 1 1 7 11 19 33 35 32 36 42 39 38 37 37 36 38 38 38 35 33 32 29 28 28 30 31 32 31 31 31 31
10 6 13 16 15 14 13 6 5 16 17 13 13 16 14 13 13 12 10 8 8 9 12 17 30 31 32 32 36 37 36 37 36 36 37 39 37 36 32 31 30 30 30 32 33 32 32 31 30
8 7 14 8 4 5 5 3 3 10 13 15 15 18 18 17 16 13 13 11 12 12 13 14 17 25 27 31 29 31 33 36 36 38 37 35 37 38 35 32 32 30 30 32 33 32 33 33 32
3 5 5 3 1 6 7 1 4 12 14 14 15 25 22 19 20 20 20 19 17 16 15 13 15 16 19 25 27 29 31 32 33 37 37 37 35 37 38 35 34 32 30 31 32 31 34 35 37
8 4 3 5 6 10 6 5 4 8 19 22 22 27 31 25 23 22 22 22 21 20 15 12 13 12 11 16 20 25 27 31 32 32 35 35 35 35 40 42 36 34 32 30 31 29 32 35 34
2 3 2 5 7 4 2 3 1 16 17 23 26 27 32 32 27 26 24 23 23 22 22 15 13 11 8 8 14 19 27 29 31 32 31 32 35 36 36 34 33 32 32 32 32 31 32 35 37
6 1 4 2 4 5 3 4 7 14 16 17 19 27 31 34 32 29 29 26 25 24 22 20 18 13 9 6 7 12 17 24 29 31 29 26 31 33 34 33 31 33 33 33 33 34 33 34 36
6 5 5 3 4 4 3 4 6 11 12 14 16 26 28 33 33 29 28 29 28 28 26 23 21 17 13 9 7 2 4 8 14 18 25 31 24 31 34 33 32 33 34 33 33 36 35 36 35
6 11 7 4 2 1 3 3 5 9 10 18 20 24 28 32 33 30 28 29 36 37 33 30 24 20 17 13 10 7 4 1 5 8 13 21 24 19 21 24 28 34 32 33 33 34 37 36 37

GFSSGP_850_spd_120.txt.gz
Wind_Speed
4 2 3 3 6 6 8 3 4 6 3 2 2 7 11 13 9 9 9 17 14 20 26 27 26 24 23 21 19 17 17 17 20 22 22 22 21 20 19 17 16 15 15 15 15 12 12 12 12
4 4 4 4 7 9 8 4 7 2 3 6 11 8 8 3 4 12 14 22 12 19 28 28 27 25 23 21 19 18 17 16 18 21 23 24 23 21 20 17 15 15 15 15 14 13 12 12 12
3 6 7 4 7 12 11 9 7 4 2 7 4 3 8 2 8 13 16 20 13 21 28 28 26 25 22 21 20 19 18 17 17 19 22 23 23 21 19 16 15 15 14 14 13 13 12 13 13
3 4 5 8 15 10 8 5 4 6 4 2 7 14 8 2 11 15 19 14 14 19 25 28 25 24 23 21 20 19 18 17 17 18 20 22 22 21 19 17 16 14 14 14 13 14 13 13 12
4 5 9 10 14 11 12 16 17 14 14 13 14 13 12 8 8 16 19 10 12 17 22 25 26 24 22 22 21 20 18 18 18 18 19 21 22 20 19 17 15 14 14 15 14 13 13 12 11
8 5 9 13 16 10 14 18 18 17 15 13 12 12 8 5 17 20 20 12 13 17 23 26 27 25 23 22 21 20 19 19 19 18 20 21 21 20 18 16 15 15 16 14 13 12 12 11 10
12 8 14 15 15 15 15 13 15 18 19 17 13 13 13 8 17 20 22 17 11 22 25 28 29 27 25 23 22 21 20 20 20 19 20 20 19 19 17 16 16 16 15 14 13 12 11 11 11
8 6 14 12 14 17 12 13 15 15 16 8 6 5 4 17 19 19 17 16 11 21 28 28 30 29 28 26 24 22 21 21 21 20 20 20 19 19 18 17 16 16 15 14 13 13 12 11 10
4 7 11 15 13 14 6 11 13 16 21 17 13 14 19 19 22 20 17 14 11 16 26 28 28 31 30 28 26 24 22 22 21 21 21 21 20 21 20 19 18 17 16 15 14 14 13 11 11
8 10 12 8 9 11 10 12 17 21 22 22 23 20 18 25 27 26 22 18 14 14 24 27 30 32 32 30 27 26 25 25 25 25 24 23 19 19 18 20 18 17 16 16 15 15 12 13 10
3 10 11 10 10 11 17 21 23 24 27 27 30 31 30 28 29 27 25 22 19 15 19 32 32 33 34 31 30 29 28 23 24 24 23 22 22 21 20 17 21 20 18 18 17 16 14 13 11
10 12 12 15 15 18 19 25 25 26 33 35 31 34 30 25 25 30 29 26 23 20 18 23 34 36 37 28 31 30 31 30 27 27 27 26 25 23 20 17 18 20 20 17 16 14 14 15 13
15 9 9 11 18 24 26 27 28 33 32 32 34 27 31 31 28 28 29 28 25 23 23 22 31 39 39 36 27 33 33 33 30 29 28 28 29 26 20 18 19 21 19 19 17 14 15 15 13
8 16 19 21 22 25 26 28 23 20 21 25 27 32 33 34 33 31 31 30 27 24 22 24 29 40 42 41 35 35 34 33 31 31 31 29 29 28 22 21 19 20 19 19 17 16 15 14 12
14 20 19 16 5 4 17 23 20 18 17 25 26 26 29 37 38 36 31 33 29 27 24 26 29 36 44 43 39 36 37 34 33 32 31 31 29 29 27 24 21 21 23 24 20 16 16 15 13
12 11 6 3 10 15 7 25 18 20 20 28 34 37 37 38 41 39 33 33 34 30 27 26 30 32 41 46 42 40 38 36 33 32 32 31 31 29 30 29 28 25 26 25 20 19 16 16 15
6 10 16 14 3 5 8 27 23 30 32 32 34 37 39 39 39 40 35 33 35 33 29 27 29 34 37 44 46 41 39 35 28 24 33 32 31 30 29 29 28 28 28 26 26 23 17 16 16
14 17 17 18 4 21 23 26 28 37 31 32 35 37 36 37 39 35 39 36 32 34 31 28 28 34 34 38 47 38 32 35 27 25 27 33 32 31 30 29 28 28 28 27 28 27 20 18 16
13 16 20 19 20 16 14 20 23 32 30 24 27 31 34 38 37 34 38 35 32 33 32 30 29 35 34 36 36 34 32 33 30 27 26 30 33 32 31 30 30 29 29 28 27 28 28 23 18
13 17 18 18 6 18 21 23 19 14 19 26 27 27 29 31 31 29 29 34 24 26 27 27 27 34 35 36 38 36 36 32 29 26 26 30 33 34 33 32 32 31 29 29 28 28 29 28 28
14 14 16 20 21 20 15 15 13 11 17 25 25 26 26 26 26 23 18 18 17 19 20 20 24 34 36 36 37 32 28 24 26 28 30 36 35 35 34 34 33 31 30 31 30 30 31 32 31
14 7 13 17 16 11 14 12 20 13 18 22 29 30 31 25 22 16 14 15 14 14 18 15 21 35 36 40 39 43 40 39 35 33 33 37 35 33 34 35 34 32 31 32 32 31 31 31 32
7 14 15 20 18 15 12 7 4 17 22 24 24 28 31 30 23 18 16 14 15 9 7 11 12 34 37 39 43 48 33 28 22 24 29 34 34 36 35 36 36 34 34 33 33 32 32 33 31
14 16 19 13 8 7 6 4 3 12 17 19 20 27 28 32 28 22 18 14 15 10 2 6 3 26 35 39 39 37 40 25 22 25 26 28 30 35 38 37 35 36 35 34 34 33 32 33 32
5 12 6 4 7 7 8 4 9 11 15 16 17 25 25 33 33 29 27 24 20 17 12 11 7 13 24 30 27 36 27 31 25 23 22 24 31 32 36 41 40 39 38 36 34 33 32 32 33
13 5 5 6 9 15 2 3 4 8 14 20 23 26 25 31 37 34 30 27 22 20 18 16 15 11 11 12 15 26 31 34 29 27 21 21 31 32 32 35 43 43 40 38 36 33 30 29 30
3 7 5 7 16 7 2 3 7 17 17 21 24 28 29 30 36 37 33 30 27 24 23 20 16 14 11 10 10 15 17 21 26 26 29 31 28 30 30 33 33 42 38 40 38 37 33 31 28
12 5 6 3 5 5 4 4 8 15 17 15 19 26 32 34 38 40 36 31 29 26 27 25 18 20 17 13 9 9 10 14 19 22 25 23 28 26 28 30 32 31 33 34 39 41 34 32 32
6 6 6 4 7 5 6 5 5 10 12 15 17 23 28 29 35 37 36 33 29 30 27 27 29 27 24 19 15 9 6 6 9 16 20 26 26 27 23 23 24 26 27 29 33 35 29 35 38
8 9 10 6 5 3 3 3 6 10 13 17 18 21 26 28 34 36 38 37 37 38 38 32 31 30 25 22 20 17 11 7 2 2 7 12 20 23 20 13 16 21 22 27 29 33 36 39 37

GFSSGP_850_spd_123.txt.gz
Wind_Speed
2 4 4 7 7 7 14 7 5 3 4 5 5 7 12 12 9 6 11 13 11 6 21 24 23 21 18 16 15 14 13 13 16 18 19 19 18 16 15 15 14 12 12 12 12 11 10 10 9
2 4 5 11 8 12 12 10 6 3 8 8 8 9 10 4 3 9 14 21 14 8 13 26 24 21 19 17 16 15 14 14 15 17 18 19 19 17 16 15 14 13 12 11 12 10 10 10 10
2 6 12 8 13 14 13 10 8 6 1 5 4 4 6 8 9 12 18 20 11 8 13 21 24 22 19 18 17 15 14 14 16 17 18 19 19 18 16 14 13 12 12 12 11 10 10 10 10
4 7 12 10 19 15 10 7 3 7 7 3 7 10 8 1 7 13 19 18 6 7 11 20 23 21 21 19 17 16 14 14 15 16 19 20 20 19 17 15 13 12 11 12 11 10 9 10 10
7 12 12 16 19 17 13 9 18 16 15 10 9 14 12 10 3 13 17 16 6 6 10 19 20 23 21 20 18 16 15 15 15 16 18 19 20 19 18 16 14 13 12 12 11 10 10 10 9
15 9 12 15 17 13 5 9 17 17 15 13 11 15 9 7 6 15 17 16 8 6 11 14 20 24 22 21 18 17 16 16 15 15 17 19 20 19 18 16 14 13 13 12 12 11 11 10 9
13 11 16 19 19 17 14 10 12 14 15 14 13 10 12 6 12 16 16 17 11 6 11 12 17 24 22 21 19 18 18 17 16 16 17 18 19 19 18 17 15 15 14 13 12 11 11 10 9
10 9 18 17 16 14 11 10 14 14 16 13 12 8 10 14 15 17 17 14 14 7 11 12 14 22 24 23 22 20 19 18 17 17 18 19 19 19 19 18 16 16 15 14 13 12 11 10 9
8 7 13 17 16 14 16 14 10 17 20 18 18 14 16 22 21 22 21 17 13 13 10 14 16 17 19 19 24 23 22 20 19 19 20 20 21 21 20 19 17 17 16 14 12 12 12 11 10
10 11 16 15 10 14 15 15 19 22 25 25 24 22 21 22 26 27 24 21 17 15 12 15 17 20 19 19 19 25 25 24 23 23 24 24 20 18 18 17 19 18 17 15 14 14 12 12 9
9 13 14 18 15 16 19 23 24 25 24 27 29 30 29 29 26 27 25 22 21 18 16 15 19 26 27 22 22 19 19 20 21 22 23 24 20 22 20 22 22 20 18 16 16 16 15 11 12
9 14 14 15 16 19 19 25 26 28 32 32 32 33 33 32 29 25 26 24 22 21 19 15 20 28 29 29 22 24 22 21 21 23 26 24 25 23 23 19 18 20 19 15 17 15 13 13 12
16 13 9 13 17 22 24 23 24 29 30 28 28 26 27 28 29 28 27 27 26 25 22 21 20 25 25 34 24 25 26 28 21 23 29 26 25 24 21 20 20 22 18 18 17 17 16 17 17
11 14 18 21 22 23 21 19 20 25 27 27 26 28 28 29 30 28 27 28 29 27 25 23 22 26 27 28 29 26 26 25 34 29 28 30 28 24 21 21 20 21 20 22 19 19 16 14 13
12 16 15 15 5 10 16 17 16 15 24 25 24 27 28 33 34 35 33 33 31 32 28 27 27 24 29 29 29 27 26 28 32 33 31 31 30 27 23 23 23 22 21 22 21 21 17 16 15
15 13 9 2 6 9 9 20 14 20 20 24 27 29 31 32 34 36 37 35 32 32 32 32 28 27 32 35 31 31 27 29 32 35 35 34 31 32 28 22 23 21 24 24 23 21 18 19 18
11 9 15 12 7 7 10 26 19 22 20 23 25 27 29 31 31 31 36 36 35 33 31 33 33 31 28 35 34 35 32 29 30 31 36 36 37 34 30 25 30 23 25 28 23 19 17 19 19
12 16 15 14 12 16 19 22 20 22 16 15 19 24 28 31 32 32 32 34 34 33 32 32 34 33 34 38 35 34 33 31 27 28 27 35 38 37 35 34 30 31 29 28 24 22 20 18 19
12 16 17 15 13 11 16 22 20 22 14 14 20 23 26 29 31 30 31 31 31 31 33 35 35 32 30 30 37 38 38 34 33 30 30 32 37 39 38 36 34 32 31 29 28 28 23 21 19
14 17 19 15 5 14 19 22 21 2 8 11 18 23 26 30 31 31 30 28 27 25 23 23 27 27 32 36 42 40 38 36 36 34 34 31 33 38 40 38 36 34 33 31 29 29 28 23 22
15 15 18 18 18 18 19 18 13 6 7 20 22 24 26 28 30 30 29 27 28 27 20 21 26 28 34 33 40 40 37 36 37 36 35 36 33 35 39 38 36 34 34 33 33 31 31 27 27
15 11 13 18 15 14 16 15 16 5 11 17 25 28 28 29 29 28 27 28 26 26 27 32 28 28 36 41 32 46 44 43 40 37 36 34 35 35 37 39 37 35 33 33 34 32 32 31 32
10 11 16 19 19 18 20 11 5 8 16 22 24 27 29 27 28 29 28 28 26 25 28 27 26 24 37 46 37 45 48 41 39 37 35 35 35 31 33 38 38 35 33 32 34 34 34 32 32
12 14 19 20 13 12 17 5 4 8 13 17 21 27 29 27 26 26 26 26 26 23 22 18 12 22 33 36 38 42 48 40 37 36 34 35 33 32 29 31 36 35 32 33 35 35 33 33 32
9 12 8 8 6 14 6 9 7 12 14 14 18 24 28 28 27 27 30 30 29 26 20 12 9 10 21 13 31 34 41 41 38 35 32 34 32 28 30 27 27 33 32 32 33 34 35 33 34
10 9 7 8 11 18 22 5 5 12 16 19 21 24 28 30 29 29 30 29 28 27 20 14 10 2 13 8 13 23 37 40 33 33 5 23 20 19 23 26 27 29 29 31 32 32 33 33 31
3 9 6 11 19 14 6 4 3 15 16 21 22 25 29 30 30 33 34 30 29 28 23 19 15 15 15 14 14 16 21 20 23 26 29 16 13 14 16 17 18 27 32 30 33 34 29 26 27
11 6 5 4 5 9 5 4 5 15 16 15 17 24 27 29 32 36 38 37 32 30 31 25 22 28 23 18 18 15 15 14 25 28 26 20 22 20 16 18 17 20 22 29 33 38 31 31 38
7 5 4 10 9 6 9 4 6 9 11 14 17 22 27 30 33 36 40 39 35 34 38 37 31 35 34 29 23 21 20 16 17 17 22 23 20 20 22 15 13 15 19 23 27 31 31 34 35
5 6 10 5 8 6 5 3 4 8 12 16 18 21 27 28 33 33 37 40 42 42 44 43 40 39 37 30 29 27 21 11 16 7 11 11 11 15 17 14 13 11 13 14 20 24 26 29 32